Time,TemperatureF,DewpointF,PressureIn,WindDirection,WindDirectionDegrees,WindSpeedMPH,WindSpeedGustMPH,Humidity,HourlyPrecipIn,Conditions,Clouds,dailyrainin,SoftwareType,DateUTC
2013-07-11 00:00:00,64.6,60.4,29.88,West,263,0.0,3.6,86,0.00,,---,0.12,VWS V14.01,2013-07-11 04:00:00,
2013-07-11 00:01:00,64.8,61.2,29.82,NW,304,0.0,0.0,88,0.00,,---,0.00,VWS V14.01,2013-07-11 04:01:00,
2013-07-11 00:02:00,64.6,60.4,29.88,West,263,0.0,0.0,86,0.00,,---,0.12,VWS V14.01,2013-07-11 04:02:00,
2013-07-11 00:03:00,64.8,60.5,29.88,West,263,0.0,0.0,86,0.00,,---,0.12,VWS V14.01,2013-07-11 04:03:00,
2013-07-11 00:04:00,64.8,60.5,29.88,West,263,0.0,0.0,86,0.00,,---,0.12,VWS V14.01,2013-07-11 04:04:00,
2013-07-11 00:05:00,64.8,60.5,29.85,West,263,0.0,0.0,86,0.00,,---,0.12,VWS V14.01,2013-07-11 04:05:00,
2013-07-11 00:06:00,64.6,61.3,29.82,West,276,0.0,0.0,89,0.00,,---,0.00,VWS V14.01,2013-07-11 04:06:00,
2013-07-11 00:07:00,64.8,60.5,29.85,West,263,0.0,0.0,86,0.00,,---,0.12,VWS V14.01,2013-07-11 04:07:00,
2013-07-11 00:08:00,64.6,60.4,29.85,West,263,0.0,0.0,86,0.00,,---,0.12,VWS V14.01,2013-07-11 04:08:00,
2013-07-11 00:09:00,64.6,60.4,29.85,West,263,0.0,0.0,86,0.00,,---,0.12,VWS V14.01,2013-07-11 04:09:00,
2013-07-11 00:10:00,64.6,60.4,29.85,West,263,0.0,0.0,86,0.00,,---,0.12,VWS V14.01,2013-07-11 04:10:00,
2013-07-11 00:11:00,64.6,61.3,29.82,West,269,0.0,0.0,89,0.00,,---,0.00,VWS V14.01,2013-07-11 04:11:00,
2013-07-11 00:12:00,64.6,60.4,29.85,West,263,0.0,0.0,86,0.00,,---,0.12,VWS V14.01,2013-07-11 04:12:00,
2013-07-11 00:13:00,64.6,60.4,29.85,West,263,0.0,0.0,86,0.00,,---,0.12,VWS V14.01,2013-07-11 04:13:00,
2013-07-11 00:14:00,64.6,60.4,29.85,West,263,0.0,0.0,86,0.00,,---,0.12,VWS V14.01,2013-07-11 04:14:00,
2013-07-11 00:15:00,64.6,60.4,29.85,West,263,0.0,0.0,86,0.00,,---,0.12,VWS V14.01,2013-07-11 04:15:00,
2013-07-11 00:16:00,64.6,61.3,29.82,West,269,0.0,0.0,89,0.00,,---,0.00,VWS V14.01,2013-07-11 04:16:00,
2013-07-11 00:17:00,64.6,60.4,29.85,West,263,0.0,0.0,86,0.00,,---,0.12,VWS V14.01,2013-07-11 04:17:00,
2013-07-11 00:18:00,64.6,60.4,29.85,West,263,0.0,0.0,86,0.00,,---,0.12,VWS V14.01,2013-07-11 04:18:00,
2013-07-11 00:19:00,64.6,60.4,29.85,West,263,0.0,0.0,86,0.00,,---,0.12,VWS V14.01,2013-07-11 04:19:00,
2013-07-11 00:20:00,64.6,60.4,29.85,West,263,0.0,0.0,86,0.00,,---,0.12,VWS V14.01,2013-07-11 04:20:00,
2013-07-11 00:21:00,64.6,61.6,29.82,West,269,0.0,0.0,90,0.00,,---,0.00,VWS V14.01,2013-07-11 04:21:00,
2013-07-11 00:22:00,64.6,60.4,29.85,West,262,0.0,0.0,86,0.00,,---,0.12,VWS V14.01,2013-07-11 04:22:00,
2013-07-11 00:23:00,64.6,60.4,29.85,West,262,0.0,0.0,86,0.00,,---,0.12,VWS V14.01,2013-07-11 04:23:00,
2013-07-11 00:24:00,64.6,60.4,29.85,West,263,0.0,0.0,86,0.00,,---,0.12,VWS V14.01,2013-07-11 04:24:00,
2013-07-11 00:25:00,64.5,60.2,29.85,West,262,0.0,0.0,86,0.00,,---,0.12,VWS V14.01,2013-07-11 04:25:00,
2013-07-11 00:26:00,64.5,61.5,29.82,West,269,0.0,0.0,90,0.00,,---,0.00,VWS V14.01,2013-07-11 04:26:00,
2013-07-11 00:27:00,64.6,60.4,29.85,West,263,0.0,0.0,86,0.00,,---,0.12,VWS V14.01,2013-07-11 04:27:00,
2013-07-11 00:28:00,64.6,60.7,29.85,West,262,0.0,0.0,87,0.00,,---,0.12,VWS V14.01,2013-07-11 04:28:00,
2013-07-11 00:29:00,64.6,60.7,29.85,West,262,0.0,0.0,87,0.00,,---,0.12,VWS V14.01,2013-07-11 04:29:00,
2013-07-11 00:30:00,64.6,60.7,29.85,West,263,0.0,0.0,87,0.00,,---,0.12,VWS V14.01,2013-07-11 04:30:00,
2013-07-11 00:31:00,64.5,61.5,29.82,West,269,0.0,0.0,90,0.00,,---,0.00,VWS V14.01,2013-07-11 04:31:00,
2013-07-11 00:32:00,64.6,60.7,29.85,West,263,0.0,0.0,87,0.00,,---,0.12,VWS V14.01,2013-07-11 04:32:00,
2013-07-11 00:33:00,64.6,60.7,29.85,West,262,0.0,0.0,87,0.00,,---,0.12,VWS V14.01,2013-07-11 04:33:00,
2013-07-11 00:34:00,64.6,60.7,29.85,West,262,0.0,0.0,87,0.00,,---,0.12,VWS V14.01,2013-07-11 04:34:00,
2013-07-11 00:35:00,64.6,60.7,29.82,West,262,0.0,0.0,87,0.00,,---,0.12,VWS V14.01,2013-07-11 04:35:00,
2013-07-11 00:36:00,64.6,61.6,29.82,WSW,255,0.0,0.0,90,0.00,,---,0.00,VWS V14.01,2013-07-11 04:36:00,
2013-07-11 00:37:00,64.6,60.7,29.82,West,262,0.0,0.0,87,0.00,,---,0.12,VWS V14.01,2013-07-11 04:37:00,
2013-07-11 00:38:00,64.6,60.7,29.82,West,262,0.0,0.0,87,0.00,,---,0.12,VWS V14.01,2013-07-11 04:38:00,
2013-07-11 00:39:00,64.6,60.7,29.82,West,263,0.0,0.0,87,0.00,,---,0.12,VWS V14.01,2013-07-11 04:39:00,
2013-07-11 00:40:00,64.8,60.9,29.82,NW,311,2.7,3.6,87,0.00,,---,0.12,VWS V14.01,2013-07-11 04:40:00,
2013-07-11 00:41:00,64.5,61.5,29.82,WSW,255,0.0,0.0,90,0.00,,---,0.00,VWS V14.01,2013-07-11 04:41:00,
2013-07-11 00:42:00,64.8,61.2,29.82,NW,322,5.4,5.8,88,0.00,,---,0.12,VWS V14.01,2013-07-11 04:42:00,
2013-07-11 00:43:00,64.8,61.2,29.82,NW,304,5.8,6.3,88,0.00,,---,0.12,VWS V14.01,2013-07-11 04:43:00,
2013-07-11 00:44:00,65.0,61.4,29.82,NW,310,2.7,5.8,88,0.00,,---,0.12,VWS V14.01,2013-07-11 04:44:00,
2013-07-11 00:45:00,65.0,61.4,29.82,NW,312,0.0,3.1,88,0.00,,---,0.12,VWS V14.01,2013-07-11 04:45:00,
2013-07-11 00:46:00,64.5,61.5,29.82,WSW,255,0.0,0.0,90,0.00,,---,0.00,VWS V14.01,2013-07-11 04:46:00,
2013-07-11 00:47:00,64.8,61.2,29.82,NW,311,0.0,0.0,88,0.00,,---,0.12,VWS V14.01,2013-07-11 04:47:00,
2013-07-11 00:48:00,64.8,61.2,29.82,NW,312,0.0,0.0,88,0.00,,---,0.12,VWS V14.01,2013-07-11 04:48:00,
2013-07-11 00:49:00,64.8,61.2,29.82,NW,312,0.0,0.0,88,0.00,,---,0.12,VWS V14.01,2013-07-11 04:49:00,
2013-07-11 00:50:00,64.8,61.2,29.82,NW,312,0.0,0.0,88,0.00,,---,0.12,VWS V14.01,2013-07-11 04:50:00,
2013-07-11 00:51:00,64.5,61.5,29.82,WSW,255,0.0,0.0,90,0.00,,---,0.00,VWS V14.01,2013-07-11 04:51:00,
2013-07-11 00:52:00,64.8,61.2,29.82,NW,312,0.0,0.0,88,0.00,,---,0.12,VWS V14.01,2013-07-11 04:52:00,
2013-07-11 00:53:00,64.8,61.2,29.82,NW,312,0.0,0.0,88,0.00,,---,0.12,VWS V14.01,2013-07-11 04:53:00,
2013-07-11 00:54:00,64.8,61.2,29.82,NW,315,3.6,3.6,88,0.00,,---,0.12,VWS V14.01,2013-07-11 04:54:00,
2013-07-11 00:55:00,64.8,61.2,29.82,NW,317,4.0,4.0,88,0.00,,---,0.12,VWS V14.01,2013-07-11 04:55:00,
2013-07-11 00:56:00,64.5,61.8,29.82,WSW,255,0.0,0.0,91,0.00,,---,0.00,VWS V14.01,2013-07-11 04:56:00,
2013-07-11 00:57:00,64.8,61.2,29.82,NW,304,0.0,3.1,88,0.00,,---,0.12,VWS V14.01,2013-07-11 04:57:00,
2013-07-11 00:58:00,64.8,61.5,29.82,NW,304,0.0,0.0,89,0.00,,---,0.12,VWS V14.01,2013-07-11 04:58:00,
2013-07-11 00:59:00,64.8,61.5,29.82,NW,304,0.0,0.0,89,0.00,,---,0.12,VWS V14.01,2013-07-11 04:59:00,
2013-07-11 01:00:00,64.8,61.5,29.82,NW,304,0.0,0.0,89,0.00,,---,0.00,VWS V14.01,2013-07-11 05:00:00,
2013-07-11 01:01:00,64.5,61.8,29.82,WSW,255,0.0,0.0,91,0.00,,---,0.00,VWS V14.01,2013-07-11 05:01:00,
2013-07-11 01:02:00,64.6,61.0,29.82,NW,304,0.0,0.0,88,0.00,,---,0.00,VWS V14.01,2013-07-11 05:02:00,
2013-07-11 01:03:00,64.6,61.0,29.82,NW,304,0.0,0.0,88,0.00,,---,0.00,VWS V14.01,2013-07-11 05:03:00,
2013-07-11 01:04:00,64.6,61.0,29.82,NW,304,0.0,0.0,88,0.00,,---,0.00,VWS V14.01,2013-07-11 05:04:00,
2013-07-11 01:05:00,64.6,61.3,29.82,NW,304,0.0,0.0,89,0.00,,---,0.00,VWS V14.01,2013-07-11 05:05:00,
2013-07-11 01:06:00,64.5,61.8,29.82,WSW,255,0.0,0.0,91,0.00,,---,0.00,VWS V14.01,2013-07-11 05:06:00,
2013-07-11 01:07:00,64.6,61.3,29.82,West,276,0.0,0.0,89,0.00,,---,0.00,VWS V14.01,2013-07-11 05:07:00,
2013-07-11 01:08:00,64.6,61.3,29.82,West,276,0.0,0.0,89,0.00,,---,0.00,VWS V14.01,2013-07-11 05:08:00,
2013-07-11 01:09:00,64.6,61.3,29.82,West,275,0.0,0.0,89,0.00,,---,0.00,VWS V14.01,2013-07-11 05:09:00,
2013-07-11 01:10:00,64.6,61.3,29.82,West,269,0.0,0.0,89,0.00,,---,0.00,VWS V14.01,2013-07-11 05:10:00,
2013-07-11 01:11:00,64.5,61.8,29.82,WSW,255,0.0,0.0,91,0.00,,---,0.00,VWS V14.01,2013-07-11 05:11:00,
2013-07-11 01:12:00,64.6,61.3,29.82,West,270,0.0,0.0,89,0.00,,---,0.00,VWS V14.01,2013-07-11 05:12:00,
2013-07-11 01:13:00,64.6,61.3,29.82,West,269,0.0,0.0,89,0.00,,---,0.00,VWS V14.01,2013-07-11 05:13:00,
2013-07-11 01:14:00,64.5,61.2,29.82,West,269,0.0,0.0,89,0.00,,---,0.00,VWS V14.01,2013-07-11 05:14:00,
2013-07-11 01:15:00,64.5,61.2,29.82,West,270,0.0,0.0,89,0.00,,---,0.00,VWS V14.01,2013-07-11 05:15:00,
2013-07-11 01:16:00,64.5,61.8,29.82,WSW,255,0.0,0.0,91,0.00,,---,0.00,VWS V14.01,2013-07-11 05:16:00,
2013-07-11 01:17:00,64.6,61.3,29.82,West,269,0.0,0.0,89,0.00,,---,0.00,VWS V14.01,2013-07-11 05:17:00,
2013-07-11 01:18:00,64.6,61.3,29.82,West,269,0.0,0.0,89,0.00,,---,0.00,VWS V14.01,2013-07-11 05:18:00,
2013-07-11 01:19:00,64.6,61.3,29.82,West,269,0.0,0.0,89,0.00,,---,0.00,VWS V14.01,2013-07-11 05:19:00,
2013-07-11 01:20:00,64.6,61.3,29.82,West,269,0.0,0.0,89,0.00,,---,0.00,VWS V14.01,2013-07-11 05:20:00,
2013-07-11 01:21:00,64.5,61.8,29.82,WSW,255,0.0,0.0,91,0.00,,---,0.00,VWS V14.01,2013-07-11 05:21:00,
2013-07-11 01:22:00,64.6,61.7,29.82,West,269,0.0,0.0,90,0.00,,---,0.00,VWS V14.01,2013-07-11 05:22:00,
2013-07-11 01:23:00,64.6,61.7,29.82,West,269,0.0,0.0,90,0.00,,---,0.00,VWS V14.01,2013-07-11 05:23:00,
2013-07-11 01:24:00,64.6,61.7,29.82,West,270,0.0,0.0,90,0.00,,---,0.00,VWS V14.01,2013-07-11 05:24:00,
2013-07-11 01:25:00,64.6,61.7,29.82,West,269,0.0,0.0,90,0.00,,---,0.00,VWS V14.01,2013-07-11 05:25:00,
2013-07-11 01:26:00,64.5,62.1,29.82,WSW,255,0.0,0.0,92,0.00,,---,0.00,VWS V14.01,2013-07-11 05:26:00,
2013-07-11 01:27:00,64.5,61.5,29.82,West,269,0.0,0.0,90,0.00,,---,0.00,VWS V14.01,2013-07-11 05:27:00,
2013-07-11 01:28:00,64.5,61.5,29.82,West,269,0.0,0.0,90,0.00,,---,0.00,VWS V14.01,2013-07-11 05:28:00,
2013-07-11 01:29:00,64.5,61.5,29.82,West,269,0.0,0.0,90,0.00,,---,0.00,VWS V14.01,2013-07-11 05:29:00,
2013-07-11 01:30:00,64.5,61.5,29.82,West,269,0.0,0.0,90,0.00,,---,0.00,VWS V14.01,2013-07-11 05:30:00,
2013-07-11 01:31:00,64.6,62.3,29.82,WNW,292,3.6,3.6,92,0.00,,---,0.00,VWS V14.01,2013-07-11 05:31:00,
2013-07-11 01:32:00,64.5,61.5,29.82,West,269,0.0,0.0,90,0.00,,---,0.00,VWS V14.01,2013-07-11 05:32:00,
2013-07-11 01:33:00,64.5,61.5,29.82,West,269,0.0,0.0,90,0.00,,---,0.00,VWS V14.01,2013-07-11 05:33:00,
2013-07-11 01:34:00,64.5,61.5,29.82,WSW,255,0.0,0.0,90,0.00,,---,0.00,VWS V14.01,2013-07-11 05:34:00,
2013-07-11 01:35:00,64.5,61.5,29.82,WSW,255,0.0,0.0,90,0.00,,---,0.00,VWS V14.01,2013-07-11 05:35:00,
2013-07-11 01:36:00,64.6,62.3,29.82,NW,312,0.0,0.0,92,0.00,,---,0.00,VWS V14.01,2013-07-11 05:36:00,
2013-07-11 01:37:00,64.6,61.7,29.82,WSW,255,0.0,0.0,90,0.00,,---,0.00,VWS V14.01,2013-07-11 05:37:00,
2013-07-11 01:38:00,64.5,61.5,29.82,WSW,255,0.0,0.0,90,0.00,,---,0.00,VWS V14.01,2013-07-11 05:38:00,
2013-07-11 01:39:00,64.5,61.5,29.82,WSW,255,0.0,0.0,90,0.00,,---,0.00,VWS V14.01,2013-07-11 05:39:00,
2013-07-11 01:40:00,64.5,61.5,29.82,WSW,255,0.0,0.0,90,0.00,,---,0.00,VWS V14.01,2013-07-11 05:40:00,
2013-07-11 01:41:00,64.5,62.1,29.82,West,262,0.0,0.0,92,0.00,,---,0.00,VWS V14.01,2013-07-11 05:41:00,
2013-07-11 01:42:00,64.5,61.5,29.82,WSW,255,0.0,0.0,90,0.00,,---,0.00,VWS V14.01,2013-07-11 05:42:00,
2013-07-11 01:43:00,64.5,61.5,29.82,WSW,255,0.0,0.0,90,0.00,,---,0.00,VWS V14.01,2013-07-11 05:43:00,
2013-07-11 01:44:00,64.5,61.5,29.82,WSW,255,0.0,0.0,90,0.00,,---,0.00,VWS V14.01,2013-07-11 05:44:00,
2013-07-11 01:45:00,64.5,61.5,29.82,WSW,255,0.0,0.0,90,0.00,,---,0.00,VWS V14.01,2013-07-11 05:45:00,
2013-07-11 01:46:00,64.3,61.9,29.82,WSW,251,0.0,0.0,92,0.00,,---,0.00,VWS V14.01,2013-07-11 05:46:00,
2013-07-11 01:47:00,64.5,61.5,29.82,WSW,255,0.0,0.0,90,0.00,,---,0.00,VWS V14.01,2013-07-11 05:47:00,
2013-07-11 01:48:00,64.5,61.5,29.82,WSW,255,0.0,0.0,90,0.00,,---,0.00,VWS V14.01,2013-07-11 05:48:00,
2013-07-11 01:49:00,64.5,61.5,29.82,WSW,255,0.0,0.0,90,0.00,,---,0.00,VWS V14.01,2013-07-11 05:49:00,
2013-07-11 01:50:00,64.5,61.5,29.82,WSW,255,0.0,0.0,90,0.00,,---,0.00,VWS V14.01,2013-07-11 05:50:00,
2013-07-11 01:51:00,64.3,61.9,29.82,WSW,251,0.0,0.0,92,0.00,,---,0.00,VWS V14.01,2013-07-11 05:51:00,
2013-07-11 01:52:00,64.5,61.5,29.82,WSW,255,0.0,0.0,90,0.00,,---,0.00,VWS V14.01,2013-07-11 05:52:00,
2013-07-11 01:53:00,64.5,61.5,29.82,WSW,255,0.0,0.0,90,0.00,,---,0.00,VWS V14.01,2013-07-11 05:53:00,
2013-07-11 01:54:00,64.5,61.8,29.82,WSW,255,0.0,0.0,91,0.00,,---,0.00,VWS V14.01,2013-07-11 05:54:00,
2013-07-11 01:55:00,64.5,61.8,29.82,WSW,255,0.0,0.0,91,0.00,,---,0.00,VWS V14.01,2013-07-11 05:55:00,
2013-07-11 01:56:00,64.3,61.9,29.82,WSW,251,0.0,0.0,92,0.00,,---,0.00,VWS V14.01,2013-07-11 05:56:00,
2013-07-11 01:57:00,64.5,61.8,29.82,WSW,255,0.0,0.0,91,0.00,,---,0.00,VWS V14.01,2013-07-11 05:57:00,
2013-07-11 01:58:00,64.5,61.8,29.82,WSW,255,0.0,0.0,91,0.00,,---,0.00,VWS V14.01,2013-07-11 05:58:00,
2013-07-11 01:59:00,64.5,61.8,29.82,WSW,255,0.0,0.0,91,0.00,,---,0.00,VWS V14.01,2013-07-11 05:59:00,
2013-07-11 02:00:00,64.5,61.8,29.82,WSW,255,0.0,0.0,91,0.00,,---,0.00,VWS V14.01,2013-07-11 06:00:00,
2013-07-11 02:01:00,64.3,61.9,29.82,WSW,251,0.0,0.0,92,0.00,,---,0.00,VWS V14.01,2013-07-11 06:01:00,
2013-07-11 02:02:00,64.5,61.8,29.82,WSW,255,0.0,0.0,91,0.00,,---,0.00,VWS V14.01,2013-07-11 06:02:00,
2013-07-11 02:03:00,64.5,61.8,29.82,WSW,255,0.0,0.0,91,0.00,,---,0.00,VWS V14.01,2013-07-11 06:03:00,
2013-07-11 02:04:00,64.6,62.0,29.82,WSW,255,0.0,0.0,91,0.00,,---,0.00,VWS V14.01,2013-07-11 06:04:00,
2013-07-11 02:05:00,64.6,62.0,29.82,WSW,255,0.0,0.0,91,0.00,,---,0.00,VWS V14.01,2013-07-11 06:05:00,
2013-07-11 02:06:00,64.1,61.7,29.82,SW,217,0.0,0.0,92,0.00,,---,0.00,VWS V14.01,2013-07-11 06:06:00,
2013-07-11 02:07:00,64.5,61.8,29.82,WSW,255,0.0,0.0,91,0.00,,---,0.00,VWS V14.01,2013-07-11 06:07:00,
2013-07-11 02:08:00,64.6,62.0,29.82,WSW,255,0.0,0.0,91,0.00,,---,0.00,VWS V14.01,2013-07-11 06:08:00,
2013-07-11 02:09:00,64.6,62.0,29.82,WSW,255,0.0,0.0,91,0.00,,---,0.00,VWS V14.01,2013-07-11 06:09:00,
2013-07-11 02:10:00,64.6,62.0,29.82,WSW,255,0.0,0.0,91,0.00,,---,0.00,VWS V14.01,2013-07-11 06:10:00,
2013-07-11 02:11:00,64.1,61.7,29.82,SW,217,0.0,0.0,92,0.00,,---,0.00,VWS V14.01,2013-07-11 06:11:00,
2013-07-11 02:12:00,64.5,61.8,29.82,WSW,255,0.0,0.0,91,0.00,,---,0.00,VWS V14.01,2013-07-11 06:12:00,
2013-07-11 02:13:00,64.5,61.8,29.82,WSW,255,0.0,0.0,91,0.00,,---,0.00,VWS V14.01,2013-07-11 06:13:00,
2013-07-11 02:14:00,64.5,61.8,29.82,WSW,255,0.0,0.0,91,0.00,,---,0.00,VWS V14.01,2013-07-11 06:14:00,
2013-07-11 02:15:00,64.5,61.8,29.82,WSW,255,0.0,0.0,91,0.00,,---,0.00,VWS V14.01,2013-07-11 06:15:00,
2013-07-11 02:16:00,64.1,62.0,29.82,SW,217,0.0,0.0,93,0.00,,---,0.00,VWS V14.01,2013-07-11 06:16:00,
2013-07-11 02:17:00,64.5,61.8,29.82,WSW,255,0.0,0.0,91,0.00,,---,0.00,VWS V14.01,2013-07-11 06:17:00,
2013-07-11 02:18:00,64.5,61.8,29.82,WSW,255,0.0,0.0,91,0.00,,---,0.00,VWS V14.01,2013-07-11 06:18:00,
2013-07-11 02:19:00,64.5,61.8,29.82,WSW,255,0.0,0.0,91,0.00,,---,0.00,VWS V14.01,2013-07-11 06:19:00,
2013-07-11 02:20:00,64.5,61.8,29.82,WSW,255,0.0,0.0,91,0.00,,---,0.00,VWS V14.01,2013-07-11 06:20:00,
2013-07-11 02:21:00,64.3,62.2,29.82,WSW,239,0.0,0.0,93,0.00,,---,0.00,VWS V14.01,2013-07-11 06:21:00,
2013-07-11 02:22:00,64.5,61.8,29.82,WSW,255,0.0,0.0,91,0.00,,---,0.00,VWS V14.01,2013-07-11 06:22:00,
2013-07-11 02:23:00,64.5,61.8,29.82,WSW,255,0.0,0.0,91,0.00,,---,0.00,VWS V14.01,2013-07-11 06:23:00,
2013-07-11 02:24:00,64.5,62.1,29.82,WSW,255,0.0,0.0,92,0.00,,---,0.00,VWS V14.01,2013-07-11 06:24:00,
2013-07-11 02:25:00,64.5,62.1,29.82,WSW,255,0.0,0.0,92,0.00,,---,0.00,VWS V14.01,2013-07-11 06:25:00,
2013-07-11 02:26:00,64.1,62.0,29.82,WSW,246,0.0,0.0,93,0.00,,---,0.00,VWS V14.01,2013-07-11 06:26:00,
2013-07-11 02:27:00,64.6,62.3,29.82,WSW,255,0.0,0.0,92,0.00,,---,0.00,VWS V14.01,2013-07-11 06:27:00,
2013-07-11 02:28:00,64.6,62.3,29.82,WSW,255,0.0,0.0,92,0.00,,---,0.00,VWS V14.01,2013-07-11 06:28:00,
2013-07-11 02:29:00,64.6,62.3,29.82,West,276,2.7,3.1,92,0.00,,---,0.00,VWS V14.01,2013-07-11 06:29:00,
2013-07-11 02:30:00,64.6,62.3,29.82,WNW,291,0.0,4.0,92,0.00,,---,0.00,VWS V14.01,2013-07-11 06:30:00,
2013-07-11 02:31:00,64.1,62.0,29.82,WSW,247,0.0,0.0,93,0.00,,---,0.00,VWS V14.01,2013-07-11 06:31:00,
2013-07-11 02:32:00,64.6,62.3,29.82,WNW,300,0.0,4.0,92,0.00,,---,0.00,VWS V14.01,2013-07-11 06:32:00,
2013-07-11 02:33:00,64.6,62.3,29.82,WNW,300,0.0,0.0,92,0.00,,---,0.00,VWS V14.01,2013-07-11 06:33:00,
2013-07-11 02:34:00,64.6,62.3,29.82,NW,314,0.0,0.0,92,0.00,,---,0.00,VWS V14.01,2013-07-11 06:34:00,
2013-07-11 02:35:00,64.6,62.3,29.82,NW,313,0.0,4.0,92,0.00,,---,0.00,VWS V14.01,2013-07-11 06:35:00,
2013-07-11 02:36:00,64.1,62.0,29.82,WSW,248,0.0,0.0,93,0.00,,---,0.00,VWS V14.01,2013-07-11 06:36:00,
2013-07-11 02:37:00,64.6,62.3,29.82,North,8,0.0,4.0,92,0.00,,---,0.00,VWS V14.01,2013-07-11 06:37:00,
2013-07-11 02:38:00,64.6,62.3,29.82,NW,309,0.0,2.7,92,0.00,,---,0.00,VWS V14.01,2013-07-11 06:38:00,
2013-07-11 02:39:00,64.6,62.3,29.82,WNW,301,0.0,3.6,92,0.00,,---,0.00,VWS V14.01,2013-07-11 06:39:00,
2013-07-11 02:40:00,64.5,62.1,29.82,WNW,295,0.0,0.0,92,0.00,,---,0.00,VWS V14.01,2013-07-11 06:40:00,
2013-07-11 02:41:00,63.9,61.9,29.82,WSW,248,0.0,0.0,93,0.00,,---,0.00,VWS V14.01,2013-07-11 06:41:00,
2013-07-11 02:42:00,64.5,62.1,29.82,WSW,250,0.0,0.0,92,0.00,,---,0.00,VWS V14.01,2013-07-11 06:42:00,
2013-07-11 02:43:00,64.5,62.1,29.82,WSW,251,0.0,3.1,92,0.00,,---,0.00,VWS V14.01,2013-07-11 06:43:00,
2013-07-11 02:44:00,64.3,61.9,29.82,WSW,251,0.0,0.0,92,0.00,,---,0.00,VWS V14.01,2013-07-11 06:44:00,
2013-07-11 02:45:00,64.3,61.9,29.82,WSW,251,0.0,0.0,92,0.00,,---,0.00,VWS V14.01,2013-07-11 06:45:00,
2013-07-11 02:46:00,64.1,62.0,29.82,WSW,248,0.0,0.0,93,0.00,,---,0.00,VWS V14.01,2013-07-11 06:46:00,
2013-07-11 02:47:00,64.3,61.9,29.82,WSW,251,0.0,0.0,92,0.00,,---,0.00,VWS V14.01,2013-07-11 06:47:00,
2013-07-11 02:48:00,64.3,61.9,29.82,WSW,251,0.0,0.0,92,0.00,,---,0.00,VWS V14.01,2013-07-11 06:48:00,
2013-07-11 02:49:00,64.3,61.9,29.82,WSW,251,0.0,0.0,92,0.00,,---,0.00,VWS V14.01,2013-07-11 06:49:00,
2013-07-11 02:50:00,64.3,61.9,29.82,WSW,251,0.0,0.0,92,0.00,,---,0.00,VWS V14.01,2013-07-11 06:50:00,
2013-07-11 02:51:00,63.9,61.9,29.82,WSW,248,0.0,0.0,93,0.00,,---,0.00,VWS V14.01,2013-07-11 06:51:00,
2013-07-11 02:52:00,64.3,61.9,29.82,WSW,251,0.0,0.0,92,0.00,,---,0.00,VWS V14.01,2013-07-11 06:52:00,
2013-07-11 02:53:00,64.3,61.9,29.82,WSW,251,0.0,0.0,92,0.00,,---,0.00,VWS V14.01,2013-07-11 06:53:00,
2013-07-11 02:54:00,64.3,61.9,29.82,WSW,251,0.0,0.0,92,0.00,,---,0.00,VWS V14.01,2013-07-11 06:54:00,
2013-07-11 02:55:00,64.3,61.9,29.82,WSW,251,0.0,0.0,92,0.00,,---,0.00,VWS V14.01,2013-07-11 06:55:00,
2013-07-11 02:56:00,63.9,61.9,29.82,WSW,248,0.0,0.0,93,0.00,,---,0.00,VWS V14.01,2013-07-11 06:56:00,
2013-07-11 02:57:00,64.3,61.9,29.82,WSW,250,2.7,3.6,92,0.00,,---,0.00,VWS V14.01,2013-07-11 06:57:00,
2013-07-11 02:58:00,64.3,61.9,29.82,WSW,241,3.1,4.0,92,0.00,,---,0.00,VWS V14.01,2013-07-11 06:58:00,
2013-07-11 02:59:00,64.3,61.9,29.82,WSW,251,0.0,4.9,92,0.00,,---,0.00,VWS V14.01,2013-07-11 06:59:00,
2013-07-11 03:00:00,64.3,61.9,29.82,WSW,251,0.0,0.0,92,0.00,,---,0.00,VWS V14.01,2013-07-11 07:00:00,
2013-07-11 03:01:00,63.9,61.9,29.82,WSW,248,0.0,0.0,93,0.00,,---,0.00,VWS V14.01,2013-07-11 07:01:00,
2013-07-11 03:02:00,64.3,61.9,29.82,SW,217,0.0,0.0,92,0.00,,---,0.00,VWS V14.01,2013-07-11 07:02:00,
2013-07-11 03:03:00,64.3,61.9,29.82,SW,217,0.0,0.0,92,0.00,,---,0.00,VWS V14.01,2013-07-11 07:03:00,
2013-07-11 03:04:00,64.3,61.9,29.82,SW,217,0.0,0.0,92,0.00,,---,0.00,VWS V14.01,2013-07-11 07:04:00,
2013-07-11 03:05:00,64.3,61.9,29.82,SW,217,0.0,0.0,92,0.00,,---,0.00,VWS V14.01,2013-07-11 07:05:00,
2013-07-11 03:06:00,63.9,61.9,29.85,WSW,248,0.0,0.0,93,0.00,,---,0.00,VWS V14.01,2013-07-11 07:06:00,
2013-07-11 03:07:00,64.1,61.7,29.82,SW,217,0.0,0.0,92,0.00,,---,0.00,VWS V14.01,2013-07-11 07:07:00,
2013-07-11 03:08:00,64.1,61.7,29.82,SW,217,0.0,0.0,92,0.00,,---,0.00,VWS V14.01,2013-07-11 07:08:00,
2013-07-11 03:09:00,64.1,61.7,29.82,SW,217,0.0,0.0,92,0.00,,---,0.00,VWS V14.01,2013-07-11 07:09:00,
2013-07-11 03:10:00,64.1,61.7,29.82,SW,217,0.0,0.0,92,0.00,,---,0.00,VWS V14.01,2013-07-11 07:10:00,
2013-07-11 03:11:00,63.9,61.9,29.85,WSW,248,0.0,0.0,93,0.00,,---,0.00,VWS V14.01,2013-07-11 07:11:00,
2013-07-11 03:12:00,64.1,61.7,29.82,SW,217,0.0,0.0,92,0.00,,---,0.00,VWS V14.01,2013-07-11 07:12:00,
2013-07-11 03:13:00,64.1,61.7,29.82,SW,217,0.0,0.0,92,0.00,,---,0.00,VWS V14.01,2013-07-11 07:13:00,
2013-07-11 03:14:00,64.1,62.0,29.82,SW,217,0.0,0.0,93,0.00,,---,0.00,VWS V14.01,2013-07-11 07:14:00,
2013-07-11 03:15:00,64.1,62.0,29.82,SW,217,0.0,0.0,93,0.00,,---,0.00,VWS V14.01,2013-07-11 07:15:00,
2013-07-11 03:16:00,63.9,61.9,29.85,WSW,248,0.0,0.0,93,0.00,,---,0.00,VWS V14.01,2013-07-11 07:16:00,
2013-07-11 03:17:00,64.1,62.0,29.82,SW,217,0.0,0.0,93,0.00,,---,0.00,VWS V14.01,2013-07-11 07:17:00,
2013-07-11 03:18:00,64.1,62.0,29.82,SW,217,0.0,0.0,93,0.00,,---,0.00,VWS V14.01,2013-07-11 07:18:00,
2013-07-11 03:19:00,64.1,62.0,29.82,WSW,239,0.0,0.0,93,0.00,,---,0.00,VWS V14.01,2013-07-11 07:19:00,
2013-07-11 03:20:00,64.1,62.0,29.82,WSW,239,0.0,0.0,93,0.00,,---,0.00,VWS V14.01,2013-07-11 07:20:00,
2013-07-11 03:21:00,63.9,62.2,29.85,WSW,248,0.0,0.0,94,0.00,,---,0.00,VWS V14.01,2013-07-11 07:21:00,
2013-07-11 03:22:00,64.3,62.2,29.82,WSW,239,0.0,0.0,93,0.00,,---,0.00,VWS V14.01,2013-07-11 07:22:00,
2013-07-11 03:23:00,64.3,62.2,29.82,WSW,247,0.0,0.0,93,0.00,,---,0.00,VWS V14.01,2013-07-11 07:23:00,
2013-07-11 03:24:00,64.3,62.2,29.82,WSW,247,0.0,0.0,93,0.00,,---,0.00,VWS V14.01,2013-07-11 07:24:00,
2013-07-11 03:25:00,64.3,62.2,29.82,WSW,246,0.0,0.0,93,0.00,,---,0.00,VWS V14.01,2013-07-11 07:25:00,
2013-07-11 03:26:00,64.1,62.3,29.85,WSW,248,0.0,0.0,94,0.00,,---,0.00,VWS V14.01,2013-07-11 07:26:00,
2013-07-11 03:27:00,64.1,62.0,29.82,WSW,247,0.0,0.0,93,0.00,,---,0.00,VWS V14.01,2013-07-11 07:27:00,
2013-07-11 03:28:00,64.1,62.0,29.82,WSW,247,0.0,0.0,93,0.00,,---,0.00,VWS V14.01,2013-07-11 07:28:00,
2013-07-11 03:29:00,64.1,62.0,29.82,WSW,247,0.0,0.0,93,0.00,,---,0.00,VWS V14.01,2013-07-11 07:29:00,
2013-07-11 03:30:00,64.1,62.0,29.82,WSW,247,0.0,0.0,93,0.00,,---,0.00,VWS V14.01,2013-07-11 07:30:00,
2013-07-11 03:31:00,63.9,62.2,29.85,WSW,248,0.0,0.0,94,0.00,,---,0.00,VWS V14.01,2013-07-11 07:31:00,
2013-07-11 03:32:00,64.1,62.0,29.82,WSW,247,0.0,0.0,93,0.00,,---,0.00,VWS V14.01,2013-07-11 07:32:00,
2013-07-11 03:33:00,64.1,62.0,29.82,WSW,247,0.0,0.0,93,0.00,,---,0.00,VWS V14.01,2013-07-11 07:33:00,
2013-07-11 03:34:00,64.1,62.0,29.82,WSW,247,0.0,0.0,93,0.00,,---,0.00,VWS V14.01,2013-07-11 07:34:00,
2013-07-11 03:35:00,64.1,62.0,29.82,WSW,247,0.0,0.0,93,0.00,,---,0.00,VWS V14.01,2013-07-11 07:35:00,
2013-07-11 03:36:00,63.9,62.2,29.85,WSW,248,0.0,0.0,94,0.00,,---,0.00,VWS V14.01,2013-07-11 07:36:00,
2013-07-11 03:37:00,64.1,62.0,29.82,WSW,248,0.0,0.0,93,0.00,,---,0.00,VWS V14.01,2013-07-11 07:37:00,
2013-07-11 03:38:00,64.1,62.0,29.82,WSW,248,0.0,0.0,93,0.00,,---,0.00,VWS V14.01,2013-07-11 07:38:00,
2013-07-11 03:39:00,64.1,62.0,29.82,WSW,248,0.0,0.0,93,0.00,,---,0.00,VWS V14.01,2013-07-11 07:39:00,
2013-07-11 03:40:00,63.9,61.9,29.82,WSW,248,0.0,0.0,93,0.00,,---,0.00,VWS V14.01,2013-07-11 07:40:00,
2013-07-11 03:41:00,63.7,62.0,29.85,WSW,248,0.0,0.0,94,0.00,,---,0.00,VWS V14.01,2013-07-11 07:41:00,
2013-07-11 03:42:00,63.9,61.9,29.82,WSW,248,0.0,0.0,93,0.00,,---,0.00,VWS V14.01,2013-07-11 07:42:00,
2013-07-11 03:43:00,64.1,62.0,29.82,WSW,248,0.0,0.0,93,0.00,,---,0.00,VWS V14.01,2013-07-11 07:43:00,
2013-07-11 03:44:00,64.1,62.0,29.82,WSW,248,0.0,0.0,93,0.00,,---,0.00,VWS V14.01,2013-07-11 07:44:00,
2013-07-11 03:45:00,64.1,62.0,29.82,WSW,248,0.0,0.0,93,0.00,,---,0.00,VWS V14.01,2013-07-11 07:45:00,
2013-07-11 03:46:00,63.7,62.0,29.85,WSW,248,0.0,0.0,94,0.00,,---,0.00,VWS V14.01,2013-07-11 07:46:00,
2013-07-11 03:47:00,64.1,62.0,29.82,WSW,248,0.0,0.0,93,0.00,,---,0.00,VWS V14.01,2013-07-11 07:47:00,
2013-07-11 03:48:00,63.9,61.9,29.82,WSW,248,0.0,0.0,93,0.00,,---,0.00,VWS V14.01,2013-07-11 07:48:00,
2013-07-11 03:49:00,63.9,61.9,29.82,WSW,248,0.0,0.0,93,0.00,,---,0.00,VWS V14.01,2013-07-11 07:49:00,
2013-07-11 03:50:00,63.9,61.9,29.82,WSW,248,0.0,0.0,93,0.00,,---,0.00,VWS V14.01,2013-07-11 07:50:00,
2013-07-11 03:51:00,63.6,61.8,29.85,WSW,248,0.0,0.0,94,0.00,,---,0.00,VWS V14.01,2013-07-11 07:51:00,
2013-07-11 03:52:00,63.9,61.9,29.82,WSW,248,0.0,0.0,93,0.00,,---,0.00,VWS V14.01,2013-07-11 07:52:00,
2013-07-11 03:53:00,63.9,61.9,29.82,WSW,248,0.0,0.0,93,0.00,,---,0.00,VWS V14.01,2013-07-11 07:53:00,
2013-07-11 03:54:00,63.9,61.9,29.82,WSW,248,0.0,0.0,93,0.00,,---,0.00,VWS V14.01,2013-07-11 07:54:00,
2013-07-11 03:55:00,63.9,61.9,29.82,WSW,248,0.0,0.0,93,0.00,,---,0.00,VWS V14.01,2013-07-11 07:55:00,
2013-07-11 03:56:00,63.6,61.8,29.85,WSW,248,0.0,0.0,94,0.00,,---,0.00,VWS V14.01,2013-07-11 07:56:00,
2013-07-11 03:57:00,63.9,61.9,29.82,WSW,248,0.0,0.0,93,0.00,,---,0.00,VWS V14.01,2013-07-11 07:57:00,
2013-07-11 03:58:00,63.9,61.9,29.82,WSW,248,0.0,0.0,93,0.00,,---,0.00,VWS V14.01,2013-07-11 07:58:00,
2013-07-11 03:59:00,63.6,61.8,29.85,WSW,248,0.0,0.0,94,0.00,,---,0.00,VWS V14.01,2013-07-11 07:59:00,
2013-07-11 04:00:00,63.9,61.9,29.82,WSW,248,0.0,0.0,93,0.00,,---,0.00,VWS V14.01,2013-07-11 08:00:00,
2013-07-11 04:01:00,63.6,61.8,29.85,WSW,248,0.0,0.0,94,0.00,,---,0.00,VWS V14.01,2013-07-11 08:01:00,
2013-07-11 04:02:00,63.9,61.9,29.82,WSW,248,0.0,0.0,93,0.00,,---,0.00,VWS V14.01,2013-07-11 08:02:00,
2013-07-11 04:03:00,64.1,62.0,29.82,WSW,248,0.0,0.0,93,0.00,,---,0.00,VWS V14.01,2013-07-11 08:03:00,
2013-07-11 04:04:00,63.9,62.2,29.82,WSW,248,0.0,0.0,94,0.00,,---,0.00,VWS V14.01,2013-07-11 08:04:00,
2013-07-11 04:05:00,63.9,61.9,29.85,WSW,248,0.0,0.0,93,0.00,,---,0.00,VWS V14.01,2013-07-11 08:05:00,
2013-07-11 04:06:00,63.6,61.8,29.85,WSW,248,0.0,0.0,94,0.00,,---,0.00,VWS V14.01,2013-07-11 08:06:00,
2013-07-11 04:07:00,63.9,61.9,29.85,WSW,248,0.0,0.0,93,0.00,,---,0.00,VWS V14.01,2013-07-11 08:07:00,
2013-07-11 04:08:00,63.9,62.2,29.85,WSW,248,0.0,0.0,94,0.00,,---,0.00,VWS V14.01,2013-07-11 08:08:00,
2013-07-11 04:09:00,63.9,61.9,29.85,WSW,248,0.0,0.0,93,0.00,,---,0.00,VWS V14.01,2013-07-11 08:09:00,
2013-07-11 04:10:00,63.9,61.9,29.85,WSW,248,0.0,0.0,93,0.00,,---,0.00,VWS V14.01,2013-07-11 08:10:00,
2013-07-11 04:11:00,63.6,61.8,29.85,WSW,248,0.0,0.0,94,0.00,,---,0.00,VWS V14.01,2013-07-11 08:11:00,
2013-07-11 04:12:00,63.9,61.9,29.85,WSW,248,0.0,0.0,93,0.00,,---,0.00,VWS V14.01,2013-07-11 08:12:00,
2013-07-11 04:13:00,63.9,61.9,29.85,WSW,248,0.0,0.0,93,0.00,,---,0.00,VWS V14.01,2013-07-11 08:13:00,
2013-07-11 04:14:00,63.7,61.7,29.85,WSW,248,0.0,0.0,93,0.00,,---,0.00,VWS V14.01,2013-07-11 08:14:00,
2013-07-11 04:15:00,63.7,61.7,29.85,WSW,248,0.0,0.0,93,0.00,,---,0.00,VWS V14.01,2013-07-11 08:15:00,
2013-07-11 04:16:00,63.6,61.8,29.85,WSW,248,0.0,0.0,94,0.00,,---,0.00,VWS V14.01,2013-07-11 08:16:00,
2013-07-11 04:17:00,63.9,61.9,29.85,WSW,248,0.0,0.0,93,0.00,,---,0.00,VWS V14.01,2013-07-11 08:17:00,
2013-07-11 04:18:00,63.9,62.2,29.85,WSW,248,0.0,0.0,94,0.00,,---,0.00,VWS V14.01,2013-07-11 08:18:00,
2013-07-11 04:19:00,63.9,62.2,29.85,WSW,248,0.0,0.0,94,0.00,,---,0.00,VWS V14.01,2013-07-11 08:19:00,
2013-07-11 04:20:00,63.9,62.2,29.85,WSW,248,0.0,0.0,94,0.00,,---,0.00,VWS V14.01,2013-07-11 08:20:00,
2013-07-11 04:21:00,63.6,61.8,29.85,WSW,248,0.0,0.0,94,0.00,,---,0.00,VWS V14.01,2013-07-11 08:21:00,
2013-07-11 04:22:00,63.9,62.2,29.85,WSW,248,0.0,0.0,94,0.00,,---,0.00,VWS V14.01,2013-07-11 08:22:00,
2013-07-11 04:23:00,63.9,62.2,29.85,WSW,248,0.0,0.0,94,0.00,,---,0.00,VWS V14.01,2013-07-11 08:23:00,
2013-07-11 04:24:00,63.6,61.8,29.85,WSW,248,0.0,0.0,94,0.00,,---,0.00,VWS V14.01,2013-07-11 08:24:00,
2013-07-11 04:25:00,64.1,62.3,29.85,WSW,248,0.0,0.0,94,0.00,,---,0.00,VWS V14.01,2013-07-11 08:25:00,
2013-07-11 04:26:00,63.6,61.8,29.85,WSW,248,0.0,0.0,94,0.00,,---,0.00,VWS V14.01,2013-07-11 08:26:00,
2013-07-11 04:27:00,64.1,62.3,29.85,WSW,248,0.0,0.0,94,0.00,,---,0.00,VWS V14.01,2013-07-11 08:27:00,
2013-07-11 04:28:00,64.1,62.3,29.85,WSW,248,0.0,0.0,94,0.00,,---,0.00,VWS V14.01,2013-07-11 08:28:00,
2013-07-11 04:29:00,64.1,62.3,29.85,WSW,248,0.0,0.0,94,0.00,,---,0.00,VWS V14.01,2013-07-11 08:29:00,
2013-07-11 04:30:00,63.9,62.2,29.85,WSW,248,0.0,0.0,94,0.00,,---,0.00,VWS V14.01,2013-07-11 08:30:00,
2013-07-11 04:31:00,63.6,61.8,29.85,WSW,248,0.0,0.0,94,0.00,,---,0.00,VWS V14.01,2013-07-11 08:31:00,
2013-07-11 04:32:00,63.9,62.2,29.85,WSW,248,0.0,0.0,94,0.00,,---,0.00,VWS V14.01,2013-07-11 08:32:00,
2013-07-11 04:33:00,63.7,62.0,29.85,WSW,248,0.0,0.0,94,0.00,,---,0.00,VWS V14.01,2013-07-11 08:33:00,
2013-07-11 04:34:00,63.7,62.0,29.85,WSW,248,0.0,0.0,94,0.00,,---,0.00,VWS V14.01,2013-07-11 08:34:00,
2013-07-11 04:35:00,63.9,62.2,29.85,WSW,248,0.0,0.0,94,0.00,,---,0.00,VWS V14.01,2013-07-11 08:35:00,
2013-07-11 04:36:00,63.6,61.8,29.85,WSW,248,0.0,0.0,94,0.00,,---,0.00,VWS V14.01,2013-07-11 08:36:00,
2013-07-11 04:37:00,63.7,62.0,29.85,WSW,248,0.0,0.0,94,0.00,,---,0.00,VWS V14.01,2013-07-11 08:37:00,
2013-07-11 04:38:00,63.7,62.0,29.85,WSW,248,0.0,0.0,94,0.00,,---,0.00,VWS V14.01,2013-07-11 08:38:00,
2013-07-11 04:39:00,63.7,62.0,29.85,WSW,248,0.0,0.0,94,0.00,,---,0.00,VWS V14.01,2013-07-11 08:39:00,
2013-07-11 04:40:00,63.7,62.0,29.85,WSW,248,0.0,0.0,94,0.00,,---,0.00,VWS V14.01,2013-07-11 08:40:00,
2013-07-11 04:41:00,63.7,62.0,29.85,SE,146,0.0,0.0,94,0.00,,---,0.00,VWS V14.01,2013-07-11 08:41:00,
2013-07-11 04:42:00,63.7,62.0,29.85,WSW,248,0.0,0.0,94,0.00,,---,0.00,VWS V14.01,2013-07-11 08:42:00,
2013-07-11 04:43:00,63.7,62.0,29.85,WSW,248,0.0,0.0,94,0.00,,---,0.00,VWS V14.01,2013-07-11 08:43:00,
2013-07-11 04:44:00,63.7,62.0,29.85,WSW,248,0.0,0.0,94,0.00,,---,0.00,VWS V14.01,2013-07-11 08:44:00,
2013-07-11 04:45:00,63.7,62.0,29.85,WSW,248,0.0,0.0,94,0.00,,---,0.00,VWS V14.01,2013-07-11 08:45:00,
2013-07-11 04:46:00,63.9,62.2,29.85,WSW,251,4.0,4.0,94,0.00,,---,0.00,VWS V14.01,2013-07-11 08:46:00,
2013-07-11 04:47:00,63.7,62.0,29.85,WSW,248,0.0,0.0,94,0.00,,---,0.00,VWS V14.01,2013-07-11 08:47:00,
2013-07-11 04:48:00,63.7,62.0,29.85,WSW,248,0.0,0.0,94,0.00,,---,0.00,VWS V14.01,2013-07-11 08:48:00,
2013-07-11 04:49:00,63.7,62.0,29.85,WSW,248,0.0,0.0,94,0.00,,---,0.00,VWS V14.01,2013-07-11 08:49:00,
2013-07-11 04:50:00,63.6,61.8,29.85,WSW,248,0.0,0.0,94,0.00,,---,0.00,VWS V14.01,2013-07-11 08:50:00,
2013-07-11 04:51:00,63.9,62.5,29.85,WSW,258,3.1,3.6,95,0.00,,---,0.00,VWS V14.01,2013-07-11 08:51:00,
2013-07-11 04:52:00,63.6,61.8,29.85,WSW,248,0.0,0.0,94,0.00,,---,0.00,VWS V14.01,2013-07-11 08:52:00,
2013-07-11 04:53:00,63.6,61.8,29.85,WSW,248,0.0,0.0,94,0.00,,---,0.00,VWS V14.01,2013-07-11 08:53:00,
2013-07-11 04:54:00,63.6,61.8,29.85,WSW,248,0.0,0.0,94,0.00,,---,0.00,VWS V14.01,2013-07-11 08:54:00,
2013-07-11 04:55:00,63.6,61.8,29.85,WSW,248,0.0,0.0,94,0.00,,---,0.00,VWS V14.01,2013-07-11 08:55:00,
2013-07-11 04:56:00,63.7,62.3,29.85,WNW,292,3.6,4.0,95,0.00,,---,0.00,VWS V14.01,2013-07-11 08:56:00,
2013-07-11 04:57:00,63.6,61.8,29.85,WSW,248,0.0,0.0,94,0.00,,---,0.00,VWS V14.01,2013-07-11 08:57:00,
2013-07-11 04:58:00,63.6,61.8,29.85,WSW,248,0.0,0.0,94,0.00,,---,0.00,VWS V14.01,2013-07-11 08:58:00,
2013-07-11 04:59:00,63.6,61.8,29.85,WSW,248,0.0,0.0,94,0.00,,---,0.00,VWS V14.01,2013-07-11 08:59:00,
2013-07-11 05:00:00,63.6,61.8,29.85,WSW,248,0.0,0.0,94,0.00,,---,0.00,VWS V14.01,2013-07-11 09:00:00,
2013-07-11 05:01:00,63.7,62.3,29.85,NW,319,3.1,4.5,95,0.00,,---,0.00,VWS V14.01,2013-07-11 09:01:00,
2013-07-11 05:02:00,63.6,61.8,29.85,WSW,248,0.0,0.0,94,0.00,,---,0.00,VWS V14.01,2013-07-11 09:02:00,
2013-07-11 05:03:00,63.6,61.8,29.85,WSW,248,0.0,0.0,94,0.00,,---,0.00,VWS V14.01,2013-07-11 09:03:00,
2013-07-11 05:04:00,63.6,61.8,29.85,WSW,248,0.0,0.0,94,0.00,,---,0.00,VWS V14.01,2013-07-11 09:04:00,
2013-07-11 05:05:00,63.6,61.8,29.85,WSW,248,0.0,0.0,94,0.00,,---,0.00,VWS V14.01,2013-07-11 09:05:00,
2013-07-11 05:06:00,63.7,62.0,29.85,NW,314,5.8,5.8,94,0.00,,---,0.00,VWS V14.01,2013-07-11 09:06:00,
2013-07-11 05:07:00,63.6,61.8,29.85,WSW,248,0.0,0.0,94,0.00,,---,0.00,VWS V14.01,2013-07-11 09:07:00,
2013-07-11 05:08:00,63.6,61.8,29.85,WSW,248,0.0,0.0,94,0.00,,---,0.00,VWS V14.01,2013-07-11 09:08:00,
2013-07-11 05:09:00,63.6,61.8,29.85,WSW,248,0.0,0.0,94,0.00,,---,0.00,VWS V14.01,2013-07-11 09:09:00,
2013-07-11 05:10:00,63.6,61.8,29.85,WSW,248,0.0,0.0,94,0.00,,---,0.00,VWS V14.01,2013-07-11 09:10:00,
2013-07-11 05:11:00,63.7,62.0,29.85,WNW,300,0.0,0.0,94,0.00,,---,0.00,VWS V14.01,2013-07-11 09:11:00,
2013-07-11 05:12:00,63.6,61.8,29.85,WSW,248,0.0,0.0,94,0.00,,---,0.00,VWS V14.01,2013-07-11 09:12:00,
2013-07-11 05:13:00,63.6,61.8,29.85,WSW,248,0.0,0.0,94,0.00,,---,0.00,VWS V14.01,2013-07-11 09:13:00,
2013-07-11 05:14:00,63.6,61.8,29.85,WSW,248,0.0,0.0,94,0.00,,---,0.00,VWS V14.01,2013-07-11 09:14:00,
2013-07-11 05:15:00,63.6,61.8,29.85,WSW,248,0.0,0.0,94,0.00,,---,0.00,VWS V14.01,2013-07-11 09:15:00,
2013-07-11 05:16:00,63.7,62.0,29.85,NW,316,4.9,5.8,94,0.00,,---,0.00,VWS V14.01,2013-07-11 09:16:00,
2013-07-11 05:17:00,63.6,61.8,29.85,WSW,248,0.0,0.0,94,0.00,,---,0.00,VWS V14.01,2013-07-11 09:17:00,
2013-07-11 05:18:00,63.6,61.8,29.85,WSW,248,0.0,0.0,94,0.00,,---,0.00,VWS V14.01,2013-07-11 09:18:00,
2013-07-11 05:19:00,63.6,61.8,29.85,WSW,248,0.0,0.0,94,0.00,,---,0.00,VWS V14.01,2013-07-11 09:19:00,
2013-07-11 05:20:00,63.6,61.8,29.85,WSW,248,0.0,0.0,94,0.00,,---,0.00,VWS V14.01,2013-07-11 09:20:00,
2013-07-11 05:21:00,63.6,61.8,29.85,NW,304,2.7,4.0,94,0.00,,---,0.00,VWS V14.01,2013-07-11 09:21:00,
2013-07-11 05:22:00,63.6,61.8,29.85,WSW,248,0.0,0.0,94,0.00,,---,0.00,VWS V14.01,2013-07-11 09:22:00,
2013-07-11 05:23:00,63.6,61.8,29.85,WSW,248,0.0,0.0,94,0.00,,---,0.00,VWS V14.01,2013-07-11 09:23:00,
2013-07-11 05:24:00,63.6,61.8,29.85,WSW,248,0.0,0.0,94,0.00,,---,0.00,VWS V14.01,2013-07-11 09:24:00,
2013-07-11 05:25:00,63.6,61.8,29.85,WSW,248,0.0,0.0,94,0.00,,---,0.00,VWS V14.01,2013-07-11 09:25:00,
2013-07-11 05:26:00,63.7,61.7,29.85,WNW,303,4.0,4.0,93,0.00,,---,0.00,VWS V14.01,2013-07-11 09:26:00,
2013-07-11 05:27:00,63.7,62.0,29.85,WSW,248,0.0,0.0,94,0.00,,---,0.00,VWS V14.01,2013-07-11 09:27:00,
2013-07-11 05:28:00,63.6,61.8,29.85,WSW,248,0.0,0.0,94,0.00,,---,0.00,VWS V14.01,2013-07-11 09:28:00,
2013-07-11 05:29:00,63.6,61.8,29.85,WSW,248,0.0,0.0,94,0.00,,---,0.00,VWS V14.01,2013-07-11 09:29:00,
2013-07-11 05:30:00,63.6,61.8,29.85,WSW,248,0.0,0.0,94,0.00,,---,0.00,VWS V14.01,2013-07-11 09:30:00,
2013-07-11 05:31:00,63.7,61.7,29.85,West,276,4.9,4.9,93,0.00,,---,0.00,VWS V14.01,2013-07-11 09:31:00,
2013-07-11 05:32:00,63.6,61.8,29.85,WSW,248,0.0,0.0,94,0.00,,---,0.00,VWS V14.01,2013-07-11 09:32:00,
2013-07-11 05:33:00,63.6,61.8,29.85,WSW,248,0.0,0.0,94,0.00,,---,0.00,VWS V14.01,2013-07-11 09:33:00,
2013-07-11 05:34:00,63.6,61.8,29.85,WSW,248,0.0,0.0,94,0.00,,---,0.00,VWS V14.01,2013-07-11 09:34:00,
2013-07-11 05:35:00,63.6,61.8,29.85,WSW,248,0.0,0.0,94,0.00,,---,0.00,VWS V14.01,2013-07-11 09:35:00,
2013-07-11 05:36:00,63.7,61.7,29.85,NW,308,3.1,3.1,93,0.00,,---,0.00,VWS V14.01,2013-07-11 09:36:00,
2013-07-11 05:37:00,63.6,61.8,29.85,WSW,248,0.0,0.0,94,0.00,,---,0.00,VWS V14.01,2013-07-11 09:37:00,
2013-07-11 05:38:00,63.7,62.0,29.85,SE,146,0.0,0.0,94,0.00,,---,0.00,VWS V14.01,2013-07-11 09:38:00,
2013-07-11 05:39:00,63.7,62.0,29.85,SE,146,0.0,0.0,94,0.00,,---,0.00,VWS V14.01,2013-07-11 09:39:00,
2013-07-11 05:40:00,63.7,62.0,29.85,SE,146,0.0,0.0,94,0.00,,---,0.00,VWS V14.01,2013-07-11 09:40:00,
2013-07-11 05:41:00,63.6,61.5,29.85,WNW,298,0.0,2.7,93,0.00,,---,0.00,VWS V14.01,2013-07-11 09:41:00,
2013-07-11 05:42:00,63.7,62.0,29.85,WSW,241,0.0,0.0,94,0.00,,---,0.00,VWS V14.01,2013-07-11 09:42:00,
2013-07-11 05:43:00,63.7,62.0,29.85,WSW,240,0.0,0.0,94,0.00,,---,0.00,VWS V14.01,2013-07-11 09:43:00,
2013-07-11 05:44:00,63.7,62.0,29.85,WSW,240,0.0,0.0,94,0.00,,---,0.00,VWS V14.01,2013-07-11 09:44:00,
2013-07-11 05:45:00,63.7,62.0,29.85,WSW,240,0.0,0.0,94,0.00,,---,0.00,VWS V14.01,2013-07-11 09:45:00,
2013-07-11 05:46:00,63.7,61.4,29.85,NW,313,0.0,0.0,92,0.00,,---,0.00,VWS V14.01,2013-07-11 09:46:00,
2013-07-11 05:47:00,63.7,61.4,29.85,NW,320,3.1,4.5,92,0.00,,---,0.00,VWS V14.01,2013-07-11 09:47:00,
2013-07-11 05:48:00,63.9,62.5,29.85,West,271,4.0,4.9,95,0.00,,---,0.00,VWS V14.01,2013-07-11 09:48:00,
2013-07-11 05:49:00,63.9,62.5,29.85,WSW,251,3.1,4.0,95,0.00,,---,0.00,VWS V14.01,2013-07-11 09:49:00,
2013-07-11 05:50:00,63.9,62.5,29.85,WSW,252,3.1,3.6,95,0.00,,---,0.00,VWS V14.01,2013-07-11 09:50:00,
2013-07-11 05:51:00,63.6,61.2,29.85,NW,309,0.0,3.6,92,0.00,,---,0.00,VWS V14.01,2013-07-11 09:51:00,
2013-07-11 05:52:00,63.7,62.3,29.85,West,275,4.9,4.9,95,0.00,,---,0.00,VWS V14.01,2013-07-11 09:52:00,
2013-07-11 05:53:00,63.7,62.3,29.85,West,279,2.7,5.4,95,0.00,,---,0.00,VWS V14.01,2013-07-11 09:53:00,
2013-07-11 05:54:00,63.7,62.3,29.85,WSW,242,0.0,5.4,95,0.00,,---,0.00,VWS V14.01,2013-07-11 09:54:00,
2013-07-11 05:55:00,63.7,62.3,29.85,NNW,328,4.5,5.8,95,0.00,,---,0.00,VWS V14.01,2013-07-11 09:55:00,
2013-07-11 05:56:00,63.4,61.0,29.85,WNW,298,0.0,0.0,92,0.00,,---,0.00,VWS V14.01,2013-07-11 09:56:00,
2013-07-11 05:57:00,63.7,62.3,29.85,WSW,238,4.0,4.5,95,0.00,,---,0.00,VWS V14.01,2013-07-11 09:57:00,
2013-07-11 05:58:00,63.4,61.0,29.85,NNW,329,0.0,4.5,92,0.00,,---,0.00,VWS V14.01,2013-07-11 09:58:00,
2013-07-11 05:59:00,63.6,62.1,29.85,North,351,4.9,6.9,95,0.00,,---,0.00,VWS V14.01,2013-07-11 09:59:00,
2013-07-11 06:00:00,63.7,62.3,29.85,WNW,286,3.1,7.4,95,0.00,,---,0.00,VWS V14.01,2013-07-11 10:00:00,
2013-07-11 06:01:00,63.4,61.0,29.85,WNW,302,0.0,4.5,92,0.00,,---,0.00,VWS V14.01,2013-07-11 10:01:00,
2013-07-11 06:02:00,63.7,62.3,29.85,NW,315,4.9,5.8,95,0.00,,---,0.00,VWS V14.01,2013-07-11 10:02:00,
2013-07-11 06:03:00,63.7,62.3,29.85,SE,127,2.7,10.1,95,0.00,,---,0.00,VWS V14.01,2013-07-11 10:03:00,
2013-07-11 06:04:00,63.7,62.3,29.85,WNW,283,0.0,4.9,95,0.00,,---,0.00,VWS V14.01,2013-07-11 10:04:00,
2013-07-11 06:05:00,63.7,62.0,29.85,West,263,3.1,4.5,94,0.00,,---,0.00,VWS V14.01,2013-07-11 10:05:00,
2013-07-11 06:06:00,63.4,61.0,29.85,NW,311,0.0,0.0,92,0.00,,---,0.00,VWS V14.01,2013-07-11 10:06:00,
2013-07-11 06:07:00,63.7,62.0,29.85,NW,308,2.7,5.8,94,0.00,,---,0.00,VWS V14.01,2013-07-11 10:07:00,
2013-07-11 06:08:00,63.7,62.0,29.85,WNW,290,7.8,7.8,94,0.00,,---,0.00,VWS V14.01,2013-07-11 10:08:00,
2013-07-11 06:09:00,63.7,62.0,29.85,NW,317,3.6,7.8,94,0.00,,---,0.00,VWS V14.01,2013-07-11 10:09:00,
2013-07-11 06:10:00,63.7,62.0,29.85,WNW,303,3.1,3.6,94,0.00,,---,0.00,VWS V14.01,2013-07-11 10:10:00,
2013-07-11 06:11:00,63.4,61.0,29.85,NW,324,0.0,0.0,92,0.00,,---,0.00,VWS V14.01,2013-07-11 10:11:00,
2013-07-11 06:12:00,63.7,62.0,29.85,NW,310,3.6,4.9,94,0.00,,---,0.00,VWS V14.01,2013-07-11 10:12:00,
2013-07-11 06:13:00,63.7,62.0,29.85,WNW,297,5.8,7.4,94,0.00,,---,0.00,VWS V14.01,2013-07-11 10:13:00,
2013-07-11 06:14:00,63.7,62.0,29.85,NNW,327,4.9,7.4,94,0.00,,---,0.00,VWS V14.01,2013-07-11 10:14:00,
2013-07-11 06:15:00,63.7,62.0,29.85,WSW,237,4.0,5.4,94,0.00,,---,0.00,VWS V14.01,2013-07-11 10:15:00,
2013-07-11 06:16:00,63.2,60.8,29.85,West,265,0.0,0.0,92,0.00,,---,0.00,VWS V14.01,2013-07-11 10:16:00,
2013-07-11 06:17:00,63.7,62.0,29.85,North,356,4.9,6.9,94,0.00,,---,0.00,VWS V14.01,2013-07-11 10:17:00,
2013-07-11 06:18:00,63.7,62.0,29.85,NNW,331,4.9,6.7,94,0.00,,---,0.00,VWS V14.01,2013-07-11 10:18:00,
2013-07-11 06:19:00,63.7,62.0,29.85,WNW,285,3.6,5.4,94,0.00,,---,0.00,VWS V14.01,2013-07-11 10:19:00,
2013-07-11 06:20:00,63.7,62.0,29.85,West,268,4.5,6.3,94,0.00,,---,0.00,VWS V14.01,2013-07-11 10:20:00,
2013-07-11 06:21:00,63.4,60.7,29.85,WNW,292,0.0,0.0,91,0.00,,---,0.00,VWS V14.01,2013-07-11 10:21:00,
2013-07-11 06:22:00,63.7,62.0,29.85,West,276,3.6,5.8,94,0.00,,---,0.00,VWS V14.01,2013-07-11 10:22:00,
2013-07-11 06:23:00,63.7,61.7,29.85,WNW,297,2.7,5.8,93,0.00,,---,0.00,VWS V14.01,2013-07-11 10:23:00,
2013-07-11 06:24:00,63.7,61.7,29.85,NW,312,4.9,6.3,93,0.00,,---,0.00,VWS V14.01,2013-07-11 10:24:00,
2013-07-11 06:25:00,63.7,61.7,29.85,WSW,246,4.0,7.4,93,0.00,,---,0.00,VWS V14.01,2013-07-11 10:25:00,
2013-07-11 06:26:00,63.2,60.5,29.85,WSW,257,4.5,4.5,91,0.00,,---,0.00,VWS V14.01,2013-07-11 10:26:00,
2013-07-11 06:27:00,63.7,61.7,29.85,NW,318,6.3,7.4,93,0.00,,---,0.00,VWS V14.01,2013-07-11 10:27:00,
2013-07-11 06:28:00,63.7,61.7,29.85,NW,307,4.0,6.7,93,0.00,,---,0.00,VWS V14.01,2013-07-11 10:28:00,
2013-07-11 06:29:00,63.7,61.7,29.85,NW,305,5.8,6.3,93,0.00,,---,0.00,VWS V14.01,2013-07-11 10:29:00,
2013-07-11 06:30:00,63.7,61.7,29.85,NNW,338,3.1,5.8,93,0.00,,---,0.00,VWS V14.01,2013-07-11 10:30:00,
2013-07-11 06:31:00,63.4,60.4,29.85,West,265,0.0,3.1,90,0.00,,---,0.00,VWS V14.01,2013-07-11 10:31:00,
2013-07-11 06:32:00,63.7,61.7,29.85,WSW,251,4.0,5.4,93,0.00,,---,0.00,VWS V14.01,2013-07-11 10:32:00,
2013-07-11 06:33:00,63.7,61.7,29.85,West,259,4.0,4.9,93,0.00,,---,0.00,VWS V14.01,2013-07-11 10:33:00,
2013-07-11 06:34:00,63.7,61.7,29.85,NW,305,5.4,5.4,93,0.00,,---,0.00,VWS V14.01,2013-07-11 10:34:00,
2013-07-11 06:35:00,63.7,61.7,29.85,WNW,298,0.0,5.4,93,0.00,,---,0.00,VWS V14.01,2013-07-11 10:35:00,
2013-07-11 06:36:00,63.4,60.4,29.88,WSW,247,0.0,0.0,90,0.00,,---,0.00,VWS V14.01,2013-07-11 10:36:00,
2013-07-11 06:37:00,63.7,61.7,29.85,NNW,336,3.1,4.9,93,0.00,,---,0.00,VWS V14.01,2013-07-11 10:37:00,
2013-07-11 06:38:00,63.7,61.7,29.85,NW,316,4.0,4.5,93,0.00,,---,0.00,VWS V14.01,2013-07-11 10:38:00,
2013-07-11 06:39:00,63.6,61.5,29.85,NW,310,4.0,4.9,93,0.00,,---,0.00,VWS V14.01,2013-07-11 10:39:00,
2013-07-11 06:40:00,63.6,61.5,29.85,NW,305,3.1,6.3,93,0.00,,---,0.00,VWS V14.01,2013-07-11 10:40:00,
2013-07-11 06:41:00,63.4,60.4,29.88,WSW,247,0.0,0.0,90,0.00,,---,0.00,VWS V14.01,2013-07-11 10:41:00,
2013-07-11 06:42:00,63.6,61.2,29.85,WSW,256,3.1,5.4,92,0.00,,---,0.00,VWS V14.01,2013-07-11 10:42:00,
2013-07-11 06:43:00,63.6,61.2,29.85,WNW,289,3.6,4.9,92,0.00,,---,0.00,VWS V14.01,2013-07-11 10:43:00,
2013-07-11 06:44:00,63.6,61.2,29.85,NW,319,0.0,4.0,92,0.00,,---,0.00,VWS V14.01,2013-07-11 10:44:00,
2013-07-11 06:45:00,63.6,61.2,29.85,NW,312,0.0,3.6,92,0.00,,---,0.00,VWS V14.01,2013-07-11 10:45:00,
2013-07-11 06:46:00,63.4,60.4,29.88,WSW,247,0.0,0.0,90,0.00,,---,0.00,VWS V14.01,2013-07-11 10:46:00,
2013-07-11 06:47:00,63.7,61.4,29.85,NW,320,3.1,4.5,92,0.00,,---,0.00,VWS V14.01,2013-07-11 10:47:00,
2013-07-11 06:48:00,63.7,61.4,29.85,NW,319,0.0,4.0,92,0.00,,---,0.00,VWS V14.01,2013-07-11 10:48:00,
2013-07-11 06:49:00,63.7,61.4,29.85,NW,315,3.1,3.6,92,0.00,,---,0.00,VWS V14.01,2013-07-11 10:49:00,
2013-07-11 06:50:00,63.6,61.2,29.85,NW,304,0.0,3.1,92,0.00,,---,0.00,VWS V14.01,2013-07-11 10:50:00,
2013-07-11 06:51:00,63.4,60.4,29.88,WSW,248,0.0,3.1,90,0.00,,---,0.00,VWS V14.01,2013-07-11 10:51:00,
2013-07-11 06:52:00,63.6,61.2,29.85,NNW,331,2.7,3.6,92,0.00,,---,0.00,VWS V14.01,2013-07-11 10:52:00,
2013-07-11 06:53:00,63.6,61.2,29.85,WNW,290,2.7,4.5,92,0.00,,---,0.00,VWS V14.01,2013-07-11 10:53:00,
2013-07-11 06:54:00,63.6,61.2,29.85,NW,307,2.7,4.9,92,0.00,,---,0.00,VWS V14.01,2013-07-11 10:54:00,
2013-07-11 06:55:00,63.6,61.2,29.85,NW,316,0.0,4.0,92,0.00,,---,0.00,VWS V14.01,2013-07-11 10:55:00,
2013-07-11 06:56:00,63.4,60.4,29.88,WNW,297,0.0,0.0,90,0.00,,---,0.00,VWS V14.01,2013-07-11 10:56:00,
2013-07-11 06:57:00,63.4,61.0,29.85,WNW,302,0.0,5.4,92,0.00,,---,0.00,VWS V14.01,2013-07-11 10:57:00,
2013-07-11 06:58:00,63.4,61.0,29.85,NNW,329,0.0,4.5,92,0.00,,---,0.00,VWS V14.01,2013-07-11 10:58:00,
2013-07-11 06:59:00,63.4,61.0,29.85,WNW,303,0.0,3.1,92,0.00,,---,0.00,VWS V14.01,2013-07-11 10:59:00,
2013-07-11 07:00:00,63.4,61.0,29.85,NW,312,4.0,4.0,92,0.00,,---,0.00,VWS V14.01,2013-07-11 11:00:00,
2013-07-11 07:01:00,63.6,60.6,29.88,West,261,2.7,5.4,90,0.00,,---,0.00,VWS V14.01,2013-07-11 11:01:00,
2013-07-11 07:02:00,63.4,61.0,29.85,WNW,283,0.0,3.6,92,0.00,,---,0.00,VWS V14.01,2013-07-11 11:02:00,
2013-07-11 07:03:00,63.4,61.0,29.85,NW,326,0.0,3.6,92,0.00,,---,0.00,VWS V14.01,2013-07-11 11:03:00,
2013-07-11 07:04:00,63.4,61.0,29.85,NW,306,4.0,4.0,92,0.00,,---,0.00,VWS V14.01,2013-07-11 11:04:00,
2013-07-11 07:05:00,63.4,61.0,29.85,NW,314,0.0,4.0,92,0.00,,---,0.00,VWS V14.01,2013-07-11 11:05:00,
2013-07-11 07:06:00,63.9,60.3,29.88,WSW,255,0.0,0.0,88,0.00,,---,0.00,VWS V14.01,2013-07-11 11:06:00,
2013-07-11 07:07:00,63.4,61.0,29.85,NW,310,3.6,4.5,92,0.00,,---,0.00,VWS V14.01,2013-07-11 11:07:00,
2013-07-11 07:08:00,63.4,61.0,29.85,NW,315,3.1,4.5,92,0.00,,---,0.00,VWS V14.01,2013-07-11 11:08:00,
2013-07-11 07:09:00,63.4,61.0,29.85,NW,309,0.0,3.1,92,0.00,,---,0.00,VWS V14.01,2013-07-11 11:09:00,
2013-07-11 07:10:00,63.4,61.0,29.85,NNW,327,0.0,4.5,92,0.00,,---,0.00,VWS V14.01,2013-07-11 11:10:00,
2013-07-11 07:11:00,63.9,60.0,29.88,WSW,243,2.7,4.0,87,0.00,,---,0.00,VWS V14.01,2013-07-11 11:11:00,
2013-07-11 07:12:00,63.4,61.0,29.85,NW,314,0.0,3.1,92,0.00,,---,0.00,VWS V14.01,2013-07-11 11:12:00,
2013-07-11 07:13:00,63.4,61.0,29.85,NW,314,0.0,0.0,92,0.00,,---,0.00,VWS V14.01,2013-07-11 11:13:00,
2013-07-11 07:14:00,63.2,60.8,29.85,SW,233,0.0,0.0,92,0.00,,---,0.00,VWS V14.01,2013-07-11 11:14:00,
2013-07-11 07:15:00,63.2,60.8,29.85,West,262,3.1,3.6,92,0.00,,---,0.00,VWS V14.01,2013-07-11 11:15:00,
2013-07-11 07:16:00,64.5,59.5,29.88,WSW,237,3.1,4.9,84,0.00,,---,0.00,VWS V14.01,2013-07-11 11:16:00,
2013-07-11 07:17:00,63.2,60.8,29.85,WSW,255,3.6,4.0,92,0.00,,---,0.00,VWS V14.01,2013-07-11 11:17:00,
2013-07-11 07:18:00,63.2,60.5,29.85,WSW,256,0.0,3.6,91,0.00,,---,0.00,VWS V14.01,2013-07-11 11:18:00,
2013-07-11 07:19:00,63.4,60.7,29.85,West,269,0.0,0.0,91,0.00,,---,0.00,VWS V14.01,2013-07-11 11:19:00,
2013-07-11 07:20:00,63.4,60.7,29.85,WNW,292,0.0,0.0,91,0.00,,---,0.00,VWS V14.01,2013-07-11 11:20:00,
2013-07-11 07:21:00,65.0,60.0,29.88,West,259,4.0,5.4,84,0.00,,---,0.00,VWS V14.01,2013-07-11 11:21:00,
2013-07-11 07:22:00,63.4,60.7,29.85,WNW,290,4.5,5.4,91,0.00,,---,0.00,VWS V14.01,2013-07-11 11:22:00,
2013-07-11 07:23:00,63.4,60.7,29.85,NW,310,3.1,4.5,91,0.00,,---,0.00,VWS V14.01,2013-07-11 11:23:00,
2013-07-11 07:24:00,63.4,60.7,29.85,WSW,246,2.7,4.0,91,0.00,,---,0.00,VWS V14.01,2013-07-11 11:24:00,
2013-07-11 07:25:00,63.4,60.7,29.85,West,260,0.0,4.0,91,0.00,,---,0.00,VWS V14.01,2013-07-11 11:25:00,
2013-07-11 07:26:00,65.4,59.4,29.88,West,274,3.1,4.0,81,0.00,,---,0.00,VWS V14.01,2013-07-11 11:26:00,
2013-07-11 07:27:00,63.4,60.7,29.85,WSW,257,2.7,4.5,91,0.00,,---,0.00,VWS V14.01,2013-07-11 11:27:00,
2013-07-11 07:28:00,63.4,60.7,29.85,WSW,242,3.6,3.6,91,0.00,,---,0.00,VWS V14.01,2013-07-11 11:28:00,
2013-07-11 07:29:00,63.4,60.4,29.85,West,268,3.1,3.6,90,0.00,,---,0.00,VWS V14.01,2013-07-11 11:29:00,
2013-07-11 07:30:00,63.4,60.4,29.85,West,265,2.7,3.6,90,0.00,,---,0.00,VWS V14.01,2013-07-11 11:30:00,
2013-07-11 07:31:00,65.7,59.7,29.88,West,276,0.0,0.0,81,0.00,,---,0.00,VWS V14.01,2013-07-11 11:31:00,
2013-07-11 07:32:00,65.7,59.7,29.88,West,276,0.0,0.0,81,0.00,,---,0.00,VWS V14.01,2013-07-11 11:32:00,
2013-07-11 07:33:00,63.4,60.4,29.85,WSW,247,0.0,3.6,90,0.00,,---,0.00,VWS V14.01,2013-07-11 11:33:00,
2013-07-11 07:34:00,63.4,60.4,29.85,WSW,247,0.0,0.0,90,0.00,,---,0.00,VWS V14.01,2013-07-11 11:34:00,
2013-07-11 07:35:00,63.4,60.4,29.88,WSW,247,0.0,0.0,90,0.00,,---,0.00,VWS V14.01,2013-07-11 11:35:00,
2013-07-11 07:36:00,65.9,59.2,29.88,West,259,0.0,0.0,79,0.00,,---,0.00,VWS V14.01,2013-07-11 11:36:00,
2013-07-11 07:37:00,63.4,60.4,29.88,WSW,247,0.0,0.0,90,0.00,,---,0.00,VWS V14.01,2013-07-11 11:37:00,
2013-07-11 07:38:00,63.4,60.4,29.88,WSW,247,0.0,0.0,90,0.00,,---,0.00,VWS V14.01,2013-07-11 11:38:00,
2013-07-11 07:39:00,63.4,60.4,29.88,WSW,247,0.0,0.0,90,0.00,,---,0.00,VWS V14.01,2013-07-11 11:39:00,
2013-07-11 07:40:00,63.4,60.4,29.88,WSW,247,0.0,0.0,90,0.00,,---,0.00,VWS V14.01,2013-07-11 11:40:00,
2013-07-11 07:41:00,66.1,57.2,29.88,WSW,238,5.4,5.8,73,0.00,,---,0.00,VWS V14.01,2013-07-11 11:41:00,
2013-07-11 07:42:00,63.4,60.4,29.88,WSW,247,0.0,0.0,90,0.00,,---,0.00,VWS V14.01,2013-07-11 11:42:00,
2013-07-11 07:43:00,63.4,60.4,29.88,WSW,247,0.0,0.0,90,0.00,,---,0.00,VWS V14.01,2013-07-11 11:43:00,
2013-07-11 07:44:00,63.4,60.4,29.88,WSW,247,0.0,0.0,90,0.00,,---,0.00,VWS V14.01,2013-07-11 11:44:00,
2013-07-11 07:45:00,63.4,60.4,29.88,WSW,247,0.0,0.0,90,0.00,,---,0.00,VWS V14.01,2013-07-11 11:45:00,
2013-07-11 07:46:00,67.3,58.0,29.88,West,280,4.0,4.5,72,0.00,,---,0.00,VWS V14.01,2013-07-11 11:46:00,
2013-07-11 07:47:00,63.4,60.4,29.88,WSW,247,0.0,0.0,90,0.00,,---,0.00,VWS V14.01,2013-07-11 11:47:00,
2013-07-11 07:48:00,63.4,60.4,29.88,WSW,247,0.0,0.0,90,0.00,,---,0.00,VWS V14.01,2013-07-11 11:48:00,
2013-07-11 07:49:00,63.2,60.2,29.88,SSW,213,3.6,3.6,90,0.00,,---,0.00,VWS V14.01,2013-07-11 11:49:00,
2013-07-11 07:50:00,63.2,60.2,29.88,WSW,248,3.1,3.6,90,0.00,,---,0.00,VWS V14.01,2013-07-11 11:50:00,
2013-07-11 07:51:00,68.4,57.0,29.88,WSW,253,0.0,3.1,67,0.00,,---,0.00,VWS V14.01,2013-07-11 11:51:00,
2013-07-11 07:52:00,63.4,60.4,29.88,WSW,248,2.7,2.7,90,0.00,,---,0.00,VWS V14.01,2013-07-11 11:52:00,
2013-07-11 07:53:00,63.4,60.4,29.88,West,267,0.0,3.6,90,0.00,,---,0.00,VWS V14.01,2013-07-11 11:53:00,
2013-07-11 07:54:00,63.4,60.4,29.88,West,267,0.0,0.0,90,0.00,,---,0.00,VWS V14.01,2013-07-11 11:54:00,
2013-07-11 07:55:00,63.4,60.4,29.88,NW,325,0.0,5.4,90,0.00,,---,0.00,VWS V14.01,2013-07-11 11:55:00,
2013-07-11 07:56:00,68.8,57.4,29.88,SSW,199,0.0,0.0,67,0.00,,---,0.00,VWS V14.01,2013-07-11 11:56:00,
2013-07-11 07:57:00,63.6,60.6,29.88,WSW,256,0.0,0.0,90,0.00,,---,0.00,VWS V14.01,2013-07-11 11:57:00,
2013-07-11 07:58:00,63.6,60.6,29.88,NW,316,3.1,3.1,90,0.00,,---,0.00,VWS V14.01,2013-07-11 11:58:00,
2013-07-11 07:59:00,63.6,60.6,29.88,WSW,258,3.1,3.6,90,0.00,,---,0.00,VWS V14.01,2013-07-11 11:59:00,
2013-07-11 08:00:00,63.6,60.6,29.88,West,264,0.0,3.6,90,0.00,,---,0.00,VWS V14.01,2013-07-11 12:00:00,
2013-07-11 08:01:00,69.0,56.3,29.88,SW,235,0.0,0.0,64,0.00,,---,0.00,VWS V14.01,2013-07-11 12:01:00,
2013-07-11 08:02:00,63.6,60.6,29.88,SW,231,3.6,3.6,90,0.00,,---,0.00,VWS V14.01,2013-07-11 12:02:00,
2013-07-11 08:03:00,63.6,60.3,29.88,WSW,255,2.7,4.0,89,0.00,,---,0.00,VWS V14.01,2013-07-11 12:03:00,
2013-07-11 08:04:00,63.7,60.1,29.88,WSW,255,0.0,4.5,88,0.00,,---,0.00,VWS V14.01,2013-07-11 12:04:00,
2013-07-11 08:05:00,67.7,53.8,29.88,WSW,242,4.0,7.4,61,0.00,,---,0.00,VWS V14.01,2013-07-11 12:05:00,
2013-07-11 08:06:00,63.9,60.3,29.88,WSW,255,0.0,0.0,88,0.00,,---,0.00,VWS V14.01,2013-07-11 12:06:00,
2013-07-11 08:07:00,64.1,60.5,29.88,WSW,255,0.0,0.0,88,0.00,,---,0.00,VWS V14.01,2013-07-11 12:07:00,
2013-07-11 08:08:00,64.1,60.5,29.88,WSW,255,0.0,0.0,88,0.00,,---,0.00,VWS V14.01,2013-07-11 12:08:00,
2013-07-11 08:09:00,64.1,60.5,29.88,SW,231,2.7,3.1,88,0.00,,---,0.00,VWS V14.01,2013-07-11 12:09:00,
2013-07-11 08:10:00,67.3,54.8,29.88,SW,235,4.9,6.3,64,0.00,,---,0.00,VWS V14.01,2013-07-11 12:10:00,
2013-07-11 08:11:00,63.9,60.0,29.88,WSW,243,2.7,4.0,87,0.00,,---,0.00,VWS V14.01,2013-07-11 12:11:00,
2013-07-11 08:12:00,63.9,60.0,29.88,WSW,242,3.1,4.0,87,0.00,,---,0.00,VWS V14.01,2013-07-11 12:12:00,
2013-07-11 08:13:00,63.9,59.7,29.88,West,262,6.7,6.7,86,0.00,,---,0.00,VWS V14.01,2013-07-11 12:13:00,
2013-07-11 08:14:00,64.1,59.5,29.88,WSW,240,3.1,6.7,85,0.00,,---,0.00,VWS V14.01,2013-07-11 12:14:00,
2013-07-11 08:15:00,67.0,54.4,29.88,WSW,251,3.1,5.8,64,0.00,,---,0.00,VWS V14.01,2013-07-11 12:15:00,
2013-07-11 08:16:00,64.5,59.5,29.88,WSW,237,3.1,4.9,84,0.00,,---,0.00,VWS V14.01,2013-07-11 12:16:00,
2013-07-11 08:17:00,64.6,59.7,29.88,WSW,238,0.0,3.1,84,0.00,,---,0.00,VWS V14.01,2013-07-11 12:17:00,
2013-07-11 08:18:00,64.6,60.0,29.88,WSW,238,0.0,0.0,85,0.00,,---,0.00,VWS V14.01,2013-07-11 12:18:00,
2013-07-11 08:19:00,64.8,60.2,29.88,West,271,3.6,4.0,85,0.00,,---,0.00,VWS V14.01,2013-07-11 12:19:00,
2013-07-11 08:20:00,67.0,54.8,29.88,NNW,335,0.0,5.8,65,0.00,,---,0.00,VWS V14.01,2013-07-11 12:20:00,
2013-07-11 08:21:00,65.0,60.0,29.88,West,259,4.0,5.4,84,0.00,,---,0.00,VWS V14.01,2013-07-11 12:21:00,
2013-07-11 08:22:00,65.0,60.0,29.88,WSW,258,3.1,4.9,84,0.00,,---,0.00,VWS V14.01,2013-07-11 12:22:00,
2013-07-11 08:23:00,65.2,59.9,29.88,WSW,258,2.7,3.6,83,0.00,,---,0.00,VWS V14.01,2013-07-11 12:23:00,
2013-07-11 08:24:00,65.0,59.4,29.88,WSW,256,4.5,5.4,82,0.00,,---,0.00,VWS V14.01,2013-07-11 12:24:00,
2013-07-11 08:25:00,67.3,55.2,29.88,West,277,4.9,7.4,65,0.00,,---,0.00,VWS V14.01,2013-07-11 12:25:00,
2013-07-11 08:26:00,65.4,59.4,29.88,West,275,2.7,4.0,81,0.00,,---,0.00,VWS V14.01,2013-07-11 12:26:00,
2013-07-11 08:27:00,65.4,59.4,29.88,WNW,303,3.1,3.1,81,0.00,,---,0.00,VWS V14.01,2013-07-11 12:27:00,
2013-07-11 08:28:00,65.5,59.9,29.88,NW,310,0.0,3.1,82,0.00,,---,0.00,VWS V14.01,2013-07-11 12:28:00,
2013-07-11 08:29:00,65.7,60.1,29.88,West,276,4.5,5.8,82,0.00,,---,0.00,VWS V14.01,2013-07-11 12:29:00,
2013-07-11 08:30:00,67.5,54.5,29.88,West,279,3.1,6.3,63,0.00,,---,0.00,VWS V14.01,2013-07-11 12:30:00,
2013-07-11 08:31:00,65.7,59.7,29.88,West,276,0.0,0.0,81,0.00,,---,0.00,VWS V14.01,2013-07-11 12:31:00,
2013-07-11 08:32:00,65.7,59.7,29.88,West,276,0.0,0.0,81,0.00,,---,0.00,VWS V14.01,2013-07-11 12:32:00,
2013-07-11 08:33:00,65.9,59.9,29.88,West,276,0.0,0.0,81,0.00,,---,0.00,VWS V14.01,2013-07-11 12:33:00,
2013-07-11 08:34:00,65.7,59.4,29.88,WSW,257,0.0,0.0,80,0.00,,---,0.00,VWS V14.01,2013-07-11 12:34:00,
2013-07-11 08:35:00,68.2,54.7,29.88,North,10,3.6,4.9,62,0.00,,---,0.00,VWS V14.01,2013-07-11 12:35:00,
2013-07-11 08:36:00,65.9,59.2,29.88,West,259,0.0,0.0,79,0.00,,---,0.00,VWS V14.01,2013-07-11 12:36:00,
2013-07-11 08:37:00,66.1,59.4,29.88,West,259,0.0,0.0,79,0.00,,---,0.00,VWS V14.01,2013-07-11 12:37:00,
2013-07-11 08:38:00,66.1,59.4,29.88,SW,227,3.1,3.6,79,0.00,,---,0.00,VWS V14.01,2013-07-11 12:38:00,
2013-07-11 08:39:00,66.3,59.9,29.88,SW,229,2.7,3.6,80,0.00,,---,0.00,VWS V14.01,2013-07-11 12:39:00,
2013-07-11 08:40:00,68.8,55.7,29.88,WNW,303,6.9,9.2,63,0.00,,---,0.00,VWS V14.01,2013-07-11 12:40:00,
2013-07-11 08:41:00,66.1,57.2,29.88,SW,222,4.5,5.8,73,0.00,,---,0.00,VWS V14.01,2013-07-11 12:41:00,
2013-07-11 08:42:00,66.4,57.5,29.88,West,264,0.0,4.5,73,0.00,,---,0.00,VWS V14.01,2013-07-11 12:42:00,
2013-07-11 08:43:00,66.6,58.1,29.88,West,264,0.0,0.0,74,0.00,,---,0.00,VWS V14.01,2013-07-11 12:43:00,
2013-07-11 08:44:00,67.0,58.4,29.88,West,264,0.0,0.0,74,0.00,,---,0.00,VWS V14.01,2013-07-11 12:44:00,
2013-07-11 08:45:00,68.8,54.8,29.88,NNW,336,4.9,5.4,61,0.00,,---,0.00,VWS V14.01,2013-07-11 12:45:00,
2013-07-11 08:46:00,67.3,58.0,29.88,West,280,4.0,4.5,72,0.00,,---,0.00,VWS V14.01,2013-07-11 12:46:00,
2013-07-11 08:47:00,67.5,56.6,29.88,WSW,243,3.6,4.5,68,0.00,,---,0.00,VWS V14.01,2013-07-11 12:47:00,
2013-07-11 08:48:00,67.7,56.4,29.88,SSW,198,0.0,3.6,67,0.00,,---,0.00,VWS V14.01,2013-07-11 12:48:00,
2013-07-11 08:49:00,67.9,56.9,29.88,SSW,198,0.0,3.1,68,0.00,,---,0.00,VWS V14.01,2013-07-11 12:49:00,
2013-07-11 08:50:00,68.8,53.9,29.88,WNW,298,0.0,4.0,59,0.00,,---,0.00,VWS V14.01,2013-07-11 12:50:00,
2013-07-11 08:51:00,68.4,57.0,29.88,WSW,253,0.0,3.1,67,0.00,,---,0.00,VWS V14.01,2013-07-11 12:51:00,
2013-07-11 08:52:00,68.6,57.2,29.88,WNW,298,0.0,3.6,67,0.00,,---,0.00,VWS V14.01,2013-07-11 12:52:00,
2013-07-11 08:53:00,68.4,56.2,29.88,SSW,209,0.0,0.0,65,0.00,,---,0.00,VWS V14.01,2013-07-11 12:53:00,
2013-07-11 08:54:00,68.6,56.0,29.88,SSW,199,0.0,3.6,64,0.00,,---,0.00,VWS V14.01,2013-07-11 12:54:00,
2013-07-11 08:55:00,68.6,56.4,29.88,SSW,199,0.0,0.0,65,0.00,,---,0.00,VWS V14.01,2013-07-11 12:55:00,
2013-07-11 08:56:00,69.5,54.1,29.88,SW,227,0.0,3.1,58,0.00,,---,0.00,VWS V14.01,2013-07-11 12:56:00,
2013-07-11 08:57:00,68.6,57.2,29.88,SSW,195,0.0,0.0,67,0.00,,---,0.00,VWS V14.01,2013-07-11 12:57:00,
2013-07-11 08:58:00,68.8,57.0,29.88,SSW,195,0.0,0.0,66,0.00,,---,0.00,VWS V14.01,2013-07-11 12:58:00,
2013-07-11 08:59:00,69.0,57.1,29.88,SSW,195,0.0,0.0,66,0.00,,---,0.00,VWS V14.01,2013-07-11 12:59:00,
2013-07-11 09:00:00,69.1,56.9,29.88,West,278,0.0,0.0,65,0.00,,---,0.00,VWS V14.01,2013-07-11 13:00:00,
2013-07-11 09:01:00,72.7,56.6,29.88,ENE,75,0.0,0.0,57,0.00,,---,0.00,VWS V14.01,2013-07-11 13:01:00,
2013-07-11 09:02:00,68.4,54.5,29.88,SW,233,3.6,5.8,61,0.00,,---,0.00,VWS V14.01,2013-07-11 13:02:00,
2013-07-11 09:03:00,68.4,54.5,29.88,WSW,258,3.6,4.5,61,0.00,,---,0.00,VWS V14.01,2013-07-11 13:03:00,
2013-07-11 09:04:00,68.1,53.7,29.88,West,271,6.7,6.7,60,0.00,,---,0.00,VWS V14.01,2013-07-11 13:04:00,
2013-07-11 09:05:00,67.9,54.0,29.88,West,273,4.9,6.7,61,0.00,,---,0.00,VWS V14.01,2013-07-11 13:05:00,
2013-07-11 09:06:00,74.0,53.7,29.88,NW,305,0.0,0.0,49,0.00,,---,0.00,VWS V14.01,2013-07-11 13:06:00,
2013-07-11 09:07:00,67.7,54.2,29.88,SSW,200,0.0,4.0,62,0.00,,---,0.00,VWS V14.01,2013-07-11 13:07:00,
2013-07-11 09:08:00,67.5,53.6,29.88,NNW,329,2.7,4.5,61,0.00,,---,0.00,VWS V14.01,2013-07-11 13:08:00,
2013-07-11 09:09:00,67.3,53.9,29.88,West,263,2.7,6.9,62,0.00,,---,0.00,VWS V14.01,2013-07-11 13:09:00,
2013-07-11 09:10:00,75.1,53.5,29.88,NNW,333,3.6,6.3,47,0.00,,---,0.00,VWS V14.01,2013-07-11 13:10:00,
2013-07-11 09:11:00,75.6,54.6,29.88,NNE,33,3.6,4.5,48,0.00,,---,0.00,VWS V14.01,2013-07-11 13:11:00,
2013-07-11 09:12:00,67.3,54.8,29.88,SW,234,0.0,3.6,64,0.00,,---,0.00,VWS V14.01,2013-07-11 13:12:00,
2013-07-11 09:13:00,67.2,55.0,29.88,SW,234,0.0,0.0,65,0.00,,---,0.00,VWS V14.01,2013-07-11 13:13:00,
2013-07-11 09:14:00,67.2,54.6,29.88,West,274,4.5,4.5,64,0.00,,---,0.00,VWS V14.01,2013-07-11 13:14:00,
2013-07-11 09:15:00,67.0,54.4,29.88,NNW,343,4.0,4.5,64,0.00,,---,0.00,VWS V14.01,2013-07-11 13:15:00,
2013-07-11 09:16:00,76.5,53.6,29.88,North,356,2.7,3.6,45,0.00,,---,0.00,VWS V14.01,2013-07-11 13:16:00,
2013-07-11 09:17:00,67.0,54.8,29.88,NNW,331,6.7,6.7,65,0.00,,---,0.00,VWS V14.01,2013-07-11 13:17:00,
2013-07-11 09:18:00,67.0,54.8,29.88,NW,315,6.9,7.8,65,0.00,,---,0.00,VWS V14.01,2013-07-11 13:18:00,
2013-07-11 09:19:00,67.0,54.8,29.88,West,281,3.6,6.9,65,0.00,,---,0.00,VWS V14.01,2013-07-11 13:19:00,
2013-07-11 09:20:00,77.2,54.3,29.91,North,351,5.8,7.4,45,0.00,,---,0.00,VWS V14.01,2013-07-11 13:20:00,
2013-07-11 09:21:00,76.9,50.8,29.91,NNW,343,4.9,5.4,40,0.00,,---,0.00,VWS V14.01,2013-07-11 13:21:00,
2013-07-11 09:22:00,67.2,55.0,29.88,NW,317,4.0,5.4,65,0.00,,---,0.00,VWS V14.01,2013-07-11 13:22:00,
2013-07-11 09:23:00,77.1,53.5,29.91,NNW,337,5.4,7.4,44,0.00,,---,0.00,VWS V14.01,2013-07-11 13:23:00,
2013-07-11 09:24:00,67.3,55.6,29.88,South,179,2.7,4.5,66,0.00,,---,0.00,VWS V14.01,2013-07-11 13:24:00,
2013-07-11 09:25:00,67.3,55.6,29.88,NE,52,0.0,6.3,66,0.00,,---,0.00,VWS V14.01,2013-07-11 13:25:00,
2013-07-11 09:26:00,77.8,54.2,29.91,SSW,211,0.0,3.6,44,0.00,,---,0.00,VWS V14.01,2013-07-11 13:26:00,
2013-07-11 09:27:00,77.8,54.2,29.91,NE,42,3.6,4.9,44,0.00,,---,0.00,VWS V14.01,2013-07-11 13:27:00,
2013-07-11 09:28:00,67.2,54.2,29.88,NW,311,7.4,9.6,63,0.00,,---,0.00,VWS V14.01,2013-07-11 13:28:00,
2013-07-11 09:29:00,67.3,54.8,29.88,WNW,296,4.5,7.4,64,0.00,,---,0.00,VWS V14.01,2013-07-11 13:29:00,
2013-07-11 09:30:00,67.3,54.8,29.88,SW,224,6.3,10.1,64,0.00,,---,0.00,VWS V14.01,2013-07-11 13:30:00,
2013-07-11 09:31:00,77.8,52.9,29.91,NNE,17,0.0,8.7,42,0.00,,---,0.00,VWS V14.01,2013-07-11 13:31:00,
2013-07-11 09:32:00,77.8,52.2,29.91,NNW,344,6.3,8.7,41,0.00,,---,0.00,VWS V14.01,2013-07-11 13:32:00,
2013-07-11 09:33:00,68.2,55.6,29.88,WNW,297,4.0,6.9,64,0.00,,---,0.00,VWS V14.01,2013-07-11 13:33:00,
2013-07-11 09:34:00,68.2,55.2,29.88,North,3,8.3,9.2,63,0.00,,---,0.00,VWS V14.01,2013-07-11 13:34:00,
2013-07-11 09:35:00,68.2,54.7,29.88,WNW,287,0.0,8.3,62,0.00,,---,0.00,VWS V14.01,2013-07-11 13:35:00,
2013-07-11 09:36:00,78.5,54.8,29.88,NW,325,4.0,9.6,44,0.00,,---,0.00,VWS V14.01,2013-07-11 13:36:00,
2013-07-11 09:37:00,78.7,53.7,29.88,WNW,301,0.0,4.9,42,0.00,,---,0.00,VWS V14.01,2013-07-11 13:37:00,
2013-07-11 09:38:00,68.2,55.2,29.88,NNW,341,3.6,5.8,63,0.00,,---,0.00,VWS V14.01,2013-07-11 13:38:00,
2013-07-11 09:39:00,78.5,52.2,29.88,WNW,295,4.5,9.2,40,0.00,,---,0.00,VWS V14.01,2013-07-11 13:39:00,
2013-07-11 09:40:00,78.0,51.0,29.88,North,356,4.0,9.2,39,0.00,,---,0.00,VWS V14.01,2013-07-11 13:40:00,
2013-07-11 09:41:00,68.8,55.7,29.88,NW,320,4.5,9.2,63,0.00,,---,0.00,VWS V14.01,2013-07-11 13:41:00,
2013-07-11 09:42:00,78.0,52.4,29.88,NW,305,6.9,6.9,41,0.00,,---,0.00,VWS V14.01,2013-07-11 13:42:00,
2013-07-11 09:43:00,69.0,55.4,29.88,WNW,291,6.3,6.3,62,0.00,,---,0.00,VWS V14.01,2013-07-11 13:43:00,
2013-07-11 09:44:00,69.0,55.4,29.88,ENE,63,3.6,10.1,62,0.00,,---,0.00,VWS V14.01,2013-07-11 13:44:00,
2013-07-11 09:45:00,68.8,54.8,29.88,WNW,298,5.4,5.4,61,0.00,,---,0.00,VWS V14.01,2013-07-11 13:45:00,
2013-07-11 09:46:00,68.8,54.8,29.88,WSW,256,3.1,5.4,61,0.00,,---,0.00,VWS V14.01,2013-07-11 13:46:00,
2013-07-11 09:47:00,78.1,51.9,29.88,WNW,283,4.0,4.9,40,0.00,,---,0.00,VWS V14.01,2013-07-11 13:47:00,
2013-07-11 09:48:00,68.6,54.2,29.88,WNW,290,0.0,0.0,60,0.00,,---,0.00,VWS V14.01,2013-07-11 13:48:00,
2013-07-11 09:49:00,69.0,54.5,29.88,NW,319,3.1,4.9,60,0.00,,---,0.00,VWS V14.01,2013-07-11 13:49:00,
2013-07-11 09:50:00,68.6,53.7,29.88,NW,313,0.0,5.8,59,0.00,,---,0.00,VWS V14.01,2013-07-11 13:50:00,
2013-07-11 09:51:00,68.8,53.9,29.88,WNW,293,2.7,4.0,59,0.00,,---,0.00,VWS V14.01,2013-07-11 13:51:00,
2013-07-11 09:52:00,78.7,51.7,29.88,NW,312,0.0,6.9,39,0.00,,---,0.00,VWS V14.01,2013-07-11 13:52:00,
2013-07-11 09:53:00,78.5,50.8,29.88,West,272,4.9,6.9,38,0.00,,---,0.00,VWS V14.01,2013-07-11 13:53:00,
2013-07-11 09:54:00,69.3,54.4,29.88,NNW,340,0.0,4.9,59,0.00,,---,0.00,VWS V14.01,2013-07-11 13:54:00,
2013-07-11 09:55:00,78.7,50.2,29.88,North,356,6.3,8.3,37,0.00,,---,0.00,VWS V14.01,2013-07-11 13:55:00,
2013-07-11 09:56:00,69.5,54.1,29.88,SW,227,0.0,3.1,58,0.00,,---,0.00,VWS V14.01,2013-07-11 13:56:00,
2013-07-11 09:57:00,78.7,50.2,29.88,North,1,2.7,6.7,37,0.00,,---,0.00,VWS V14.01,2013-07-11 13:57:00,
2013-07-11 09:58:00,70.8,56.2,29.88,SW,219,0.0,0.0,60,0.00,,---,0.00,VWS V14.01,2013-07-11 13:58:00,
2013-07-11 09:59:00,71.5,55.9,29.88,SW,218,0.0,0.0,58,0.00,,---,0.00,VWS V14.01,2013-07-11 13:59:00,
2013-07-11 10:00:00,72.4,56.8,29.88,NNW,346,0.0,0.0,58,0.00,,---,0.00,VWS V14.01,2013-07-11 14:00:00,
2013-07-11 10:01:00,72.7,56.6,29.88,ENE,75,0.0,0.0,57,0.00,,---,0.00,VWS V14.01,2013-07-11 14:01:00,
2013-07-11 10:02:00,78.5,50.1,29.88,SE,145,0.0,4.0,37,0.00,,---,0.00,VWS V14.01,2013-07-11 14:02:00,
2013-07-11 10:03:00,72.7,51.4,29.88,ENE,62,3.1,4.0,47,0.00,,---,0.00,VWS V14.01,2013-07-11 14:03:00,
2013-07-11 10:04:00,72.7,51.4,29.88,ENE,59,0.0,4.0,47,0.00,,---,0.00,VWS V14.01,2013-07-11 14:04:00,
2013-07-11 10:05:00,73.3,52.4,29.88,West,279,0.0,0.0,48,0.00,,---,0.00,VWS V14.01,2013-07-11 14:05:00,
2013-07-11 10:06:00,73.8,53.5,29.88,NW,305,0.0,3.1,49,0.00,,---,0.00,VWS V14.01,2013-07-11 14:06:00,
2013-07-11 10:07:00,79.2,51.5,29.88,NW,306,6.7,6.7,38,0.00,,---,0.00,VWS V14.01,2013-07-11 14:07:00,
2013-07-11 10:08:00,74.4,52.8,29.88,North,351,0.0,4.0,47,0.00,,---,0.00,VWS V14.01,2013-07-11 14:08:00,
2013-07-11 10:09:00,74.7,53.7,29.88,NNW,339,3.6,5.4,48,0.00,,---,0.00,VWS V14.01,2013-07-11 14:09:00,
2013-07-11 10:10:00,78.7,51.0,29.88,NNW,335,4.9,8.3,38,0.00,,---,0.00,VWS V14.01,2013-07-11 14:10:00,
2013-07-11 10:11:00,78.9,51.1,29.88,WNW,292,5.4,6.3,38,0.00,,---,0.00,VWS V14.01,2013-07-11 14:11:00,
2013-07-11 10:12:00,79.2,51.5,29.88,East,85,0.0,5.4,38,0.00,,---,0.00,VWS V14.01,2013-07-11 14:12:00,
2013-07-11 10:13:00,75.6,53.4,29.88,NNE,23,4.5,4.5,46,0.00,,---,0.00,VWS V14.01,2013-07-11 14:13:00,
2013-07-11 10:14:00,79.9,53.5,29.88,North,351,7.8,7.8,40,0.00,,---,0.00,VWS V14.01,2013-07-11 14:14:00,
2013-07-11 10:15:00,75.6,52.8,29.88,NNW,345,4.0,4.9,45,0.00,,---,0.00,VWS V14.01,2013-07-11 14:15:00,
2013-07-11 10:16:00,76.2,53.3,29.88,WSW,237,0.0,4.0,45,0.00,,---,0.00,VWS V14.01,2013-07-11 14:16:00,
2013-07-11 10:17:00,80.1,52.2,29.88,WSW,237,2.7,4.0,38,0.00,,---,0.00,VWS V14.01,2013-07-11 14:17:00,
2013-07-11 10:18:00,76.9,54.0,29.88,NNE,30,2.7,4.9,45,0.00,,---,0.00,VWS V14.01,2013-07-11 14:18:00,
2013-07-11 10:19:00,77.2,54.9,29.88,NNE,12,5.8,6.9,46,0.00,,---,0.00,VWS V14.01,2013-07-11 14:19:00,
2013-07-11 10:20:00,77.2,54.3,29.91,North,351,5.8,7.4,45,0.00,,---,0.00,VWS V14.01,2013-07-11 14:20:00,
2013-07-11 10:21:00,76.9,52.1,29.91,NE,48,3.6,6.3,42,0.00,,---,0.00,VWS V14.01,2013-07-11 14:21:00,
2013-07-11 10:22:00,79.9,52.8,29.91,NW,308,2.7,2.7,39,0.00,,---,0.00,VWS V14.01,2013-07-11 14:22:00,
2013-07-11 10:23:00,77.1,53.5,29.91,NNW,337,5.4,7.4,44,0.00,,---,0.00,VWS V14.01,2013-07-11 14:23:00,
2013-07-11 10:24:00,77.2,53.0,29.91,SSE,154,2.7,5.4,43,0.00,,---,0.00,VWS V14.01,2013-07-11 14:24:00,
2013-07-11 10:25:00,77.2,53.0,29.91,North,8,4.5,5.8,43,0.00,,---,0.00,VWS V14.01,2013-07-11 14:25:00,
2013-07-11 10:26:00,77.4,53.2,29.91,North,8,3.6,4.5,43,0.00,,---,0.00,VWS V14.01,2013-07-11 14:26:00,
2013-07-11 10:27:00,79.6,50.3,29.91,West,271,4.0,5.8,36,0.00,,---,0.00,VWS V14.01,2013-07-11 14:27:00,
2013-07-11 10:28:00,78.0,53.7,29.91,NE,34,4.9,6.9,43,0.00,,---,0.00,VWS V14.01,2013-07-11 14:28:00,
2013-07-11 10:29:00,78.1,53.8,29.91,North,351,7.4,9.2,43,0.00,,---,0.00,VWS V14.01,2013-07-11 14:29:00,
2013-07-11 10:30:00,77.4,50.5,29.91,NNE,20,5.4,7.8,39,0.00,,---,0.00,VWS V14.01,2013-07-11 14:30:00,
2013-07-11 10:31:00,77.8,52.9,29.91,NNE,16,8.7,8.7,42,0.00,,---,0.00,VWS V14.01,2013-07-11 14:31:00,
2013-07-11 10:32:00,78.3,49.9,29.91,NNE,33,4.0,4.5,37,0.00,,---,0.00,VWS V14.01,2013-07-11 14:32:00,
2013-07-11 10:33:00,78.1,54.5,29.91,NW,305,4.0,9.2,44,0.00,,---,0.00,VWS V14.01,2013-07-11 14:33:00,
2013-07-11 10:34:00,78.3,54.6,29.91,NE,34,3.6,7.4,44,0.00,,---,0.00,VWS V14.01,2013-07-11 14:34:00,
2013-07-11 10:35:00,78.3,54.0,29.88,North,3,3.1,4.0,43,0.00,,---,0.00,VWS V14.01,2013-07-11 14:35:00,
2013-07-11 10:36:00,78.5,54.8,29.88,NW,325,4.0,9.6,44,0.00,,---,0.00,VWS V14.01,2013-07-11 14:36:00,
2013-07-11 10:37:00,77.8,49.5,29.91,North,10,2.7,3.1,37,0.00,,---,0.00,VWS V14.01,2013-07-11 14:37:00,
2013-07-11 10:38:00,78.9,53.8,29.88,NNW,345,0.0,8.7,42,0.00,,---,0.00,VWS V14.01,2013-07-11 14:38:00,
2013-07-11 10:39:00,78.5,52.2,29.88,WNW,295,4.5,9.2,40,0.00,,---,0.00,VWS V14.01,2013-07-11 14:39:00,
2013-07-11 10:40:00,78.0,51.0,29.88,North,356,4.0,9.2,39,0.00,,---,0.00,VWS V14.01,2013-07-11 14:40:00,
2013-07-11 10:41:00,78.0,50.3,29.88,North,356,3.1,9.6,38,0.00,,---,0.00,VWS V14.01,2013-07-11 14:41:00,
2013-07-11 10:42:00,78.0,52.4,29.88,West,280,5.8,6.9,41,0.00,,---,0.00,VWS V14.01,2013-07-11 14:42:00,
2013-07-11 10:43:00,78.5,52.9,29.91,South,174,0.0,0.0,41,0.00,,---,0.00,VWS V14.01,2013-07-11 14:43:00,
2013-07-11 10:44:00,78.5,52.9,29.88,ENE,60,0.0,7.8,41,0.00,,---,0.00,VWS V14.01,2013-07-11 14:44:00,
2013-07-11 10:45:00,78.1,51.2,29.88,NW,323,6.9,8.3,39,0.00,,---,0.00,VWS V14.01,2013-07-11 14:45:00,
2013-07-11 10:46:00,78.1,51.2,29.88,North,0,2.7,6.9,39,0.00,,---,0.00,VWS V14.01,2013-07-11 14:46:00,
2013-07-11 10:47:00,78.1,51.9,29.88,NNW,339,4.0,4.9,40,0.00,,---,0.00,VWS V14.01,2013-07-11 14:47:00,
2013-07-11 10:48:00,80.1,50.8,29.91,NW,321,2.7,6.9,36,0.00,,---,0.00,VWS V14.01,2013-07-11 14:48:00,
2013-07-11 10:49:00,78.7,51.7,29.88,NW,311,5.8,5.8,39,0.00,,---,0.00,VWS V14.01,2013-07-11 14:49:00,
2013-07-11 10:50:00,79.0,52.7,29.88,NW,322,4.9,7.8,40,0.00,,---,0.00,VWS V14.01,2013-07-11 14:50:00,
2013-07-11 10:51:00,78.3,50.7,29.88,North,351,6.9,7.4,38,0.00,,---,0.00,VWS V14.01,2013-07-11 14:51:00,
2013-07-11 10:52:00,78.7,51.7,29.88,NW,312,0.0,6.9,39,0.00,,---,0.00,VWS V14.01,2013-07-11 14:52:00,
2013-07-11 10:53:00,80.1,49.2,29.91,ENE,68,2.7,5.4,34,0.00,,---,0.00,VWS V14.01,2013-07-11 14:53:00,
2013-07-11 10:54:00,78.5,50.1,29.88,NW,320,4.9,4.9,37,0.00,,---,0.00,VWS V14.01,2013-07-11 14:54:00,
2013-07-11 10:55:00,78.7,50.2,29.88,North,356,6.3,8.3,37,0.00,,---,0.00,VWS V14.01,2013-07-11 14:55:00,
2013-07-11 10:56:00,78.7,50.2,29.88,North,2,6.3,6.9,37,0.00,,---,0.00,VWS V14.01,2013-07-11 14:56:00,
2013-07-11 10:57:00,78.7,50.2,29.88,North,1,2.7,6.7,37,0.00,,---,0.00,VWS V14.01,2013-07-11 14:57:00,
2013-07-11 10:58:00,78.1,48.3,29.91,NE,55,0.0,3.1,35,0.00,,---,0.00,VWS V14.01,2013-07-11 14:58:00,
2013-07-11 10:59:00,78.9,50.4,29.88,West,278,6.9,9.2,37,0.00,,---,0.00,VWS V14.01,2013-07-11 14:59:00,
2013-07-11 11:00:00,78.9,50.4,29.88,WNW,299,4.0,11.2,37,0.00,,---,0.00,VWS V14.01,2013-07-11 15:00:00,
2013-07-11 11:01:00,78.1,51.2,29.88,ESE,122,3.1,6.3,39,0.00,,---,0.00,VWS V14.01,2013-07-11 15:01:00,
2013-07-11 11:02:00,78.5,50.1,29.88,SE,145,0.0,4.0,37,0.00,,---,0.00,VWS V14.01,2013-07-11 15:02:00,
2013-07-11 11:03:00,80.7,49.7,29.91,NNW,334,4.9,6.7,34,0.00,,---,0.00,VWS V14.01,2013-07-11 15:03:00,
2013-07-11 11:04:00,78.7,51.0,29.88,NE,45,3.6,5.4,38,0.00,,---,0.00,VWS V14.01,2013-07-11 15:04:00,
2013-07-11 11:05:00,78.9,51.8,29.88,NNE,26,4.0,4.5,39,0.00,,---,0.00,VWS V14.01,2013-07-11 15:05:00,
2013-07-11 11:06:00,78.7,50.2,29.88,North,351,4.9,6.7,37,0.00,,---,0.00,VWS V14.01,2013-07-11 15:06:00,
2013-07-11 11:07:00,79.2,51.5,29.88,NW,306,6.7,6.7,38,0.00,,---,0.00,VWS V14.01,2013-07-11 15:07:00,
2013-07-11 11:08:00,79.2,48.5,29.91,ENE,63,2.7,5.8,34,0.00,,---,0.00,VWS V14.01,2013-07-11 15:08:00,
2013-07-11 11:09:00,78.1,49.8,29.88,WNW,303,6.3,6.3,37,0.00,,---,0.00,VWS V14.01,2013-07-11 15:09:00,
2013-07-11 11:10:00,78.7,51.0,29.88,NNW,335,4.9,8.3,38,0.00,,---,0.00,VWS V14.01,2013-07-11 15:10:00,
2013-07-11 11:11:00,78.9,51.1,29.88,WNW,292,5.4,6.3,38,0.00,,---,0.00,VWS V14.01,2013-07-11 15:11:00,
2013-07-11 11:12:00,79.2,51.5,29.88,East,85,0.0,5.4,38,0.00,,---,0.00,VWS V14.01,2013-07-11 15:12:00,
2013-07-11 11:13:00,80.1,50.0,29.91,WNW,287,3.6,4.5,35,0.00,,---,0.00,VWS V14.01,2013-07-11 15:13:00,
2013-07-11 11:14:00,79.9,53.5,29.88,North,351,7.8,7.8,40,0.00,,---,0.00,VWS V14.01,2013-07-11 15:14:00,
2013-07-11 11:15:00,80.1,53.6,29.88,NE,54,0.0,8.3,40,0.00,,---,0.00,VWS V14.01,2013-07-11 15:15:00,
2013-07-11 11:16:00,80.1,52.2,29.88,ENE,57,0.0,3.1,38,0.00,,---,0.00,VWS V14.01,2013-07-11 15:16:00,
2013-07-11 11:17:00,80.1,52.2,29.88,WSW,237,2.7,4.0,38,0.00,,---,0.00,VWS V14.01,2013-07-11 15:17:00,
2013-07-11 11:18:00,80.3,49.4,29.91,NNW,341,6.3,6.3,34,0.00,,---,0.00,VWS V14.01,2013-07-11 15:18:00,
2013-07-11 11:19:00,80.1,52.2,29.88,NNW,330,4.5,7.4,38,0.00,,---,0.00,VWS V14.01,2013-07-11 15:19:00,
2013-07-11 11:20:00,80.5,52.6,29.91,NE,50,3.1,6.3,38,0.00,,---,0.00,VWS V14.01,2013-07-11 15:20:00,
2013-07-11 11:21:00,79.8,51.9,29.91,East,86,0.0,3.1,38,0.00,,---,0.00,VWS V14.01,2013-07-11 15:21:00,
2013-07-11 11:22:00,79.9,52.8,29.91,NW,308,2.7,2.7,39,0.00,,---,0.00,VWS V14.01,2013-07-11 15:22:00,
2013-07-11 11:23:00,81.6,51.3,29.88,NNE,33,4.9,6.9,35,0.00,,---,0.00,VWS V14.01,2013-07-11 15:23:00,
2013-07-11 11:24:00,79.9,51.4,29.91,WNW,297,4.9,5.8,37,0.00,,---,0.00,VWS V14.01,2013-07-11 15:24:00,
2013-07-11 11:25:00,80.1,52.2,29.91,SSW,207,3.1,6.3,38,0.00,,---,0.00,VWS V14.01,2013-07-11 15:25:00,
2013-07-11 11:26:00,80.3,51.7,29.91,ESE,116,0.0,3.1,37,0.00,,---,0.00,VWS V14.01,2013-07-11 15:26:00,
2013-07-11 11:27:00,80.1,50.8,29.91,West,276,3.6,6.7,36,0.00,,---,0.00,VWS V14.01,2013-07-11 15:27:00,
2013-07-11 11:28:00,81.4,47.9,29.88,NNE,26,4.0,6.9,31,0.00,,---,0.00,VWS V14.01,2013-07-11 15:28:00,
2013-07-11 11:29:00,79.4,52.3,29.91,WNW,285,5.4,5.8,39,0.00,,---,0.00,VWS V14.01,2013-07-11 15:29:00,
2013-07-11 11:30:00,79.2,50.7,29.91,NW,324,0.0,6.7,37,0.00,,---,0.00,VWS V14.01,2013-07-11 15:30:00,
2013-07-11 11:31:00,78.9,49.7,29.91,NNW,337,0.0,6.9,36,0.00,,---,0.00,VWS V14.01,2013-07-11 15:31:00,
2013-07-11 11:32:00,78.5,49.3,29.91,North,6,0.0,6.7,36,0.00,,---,0.00,VWS V14.01,2013-07-11 15:32:00,
2013-07-11 11:33:00,81.4,49.5,29.88,North,11,4.5,5.4,33,0.00,,---,0.00,VWS V14.01,2013-07-11 15:33:00,
2013-07-11 11:34:00,78.1,49.8,29.91,NW,323,0.0,3.6,37,0.00,,---,0.00,VWS V14.01,2013-07-11 15:34:00,
2013-07-11 11:35:00,78.7,51.0,29.91,North,351,0.0,0.0,38,0.00,,---,0.00,VWS V14.01,2013-07-11 15:35:00,
2013-07-11 11:36:00,78.5,50.8,29.91,North,7,2.7,5.8,38,0.00,,---,0.00,VWS V14.01,2013-07-11 15:36:00,
2013-07-11 11:37:00,78.1,49.8,29.91,NNW,328,3.1,3.1,37,0.00,,---,0.00,VWS V14.01,2013-07-11 15:37:00,
2013-07-11 11:38:00,77.6,49.3,29.91,NE,56,2.7,3.1,37,0.00,,---,0.00,VWS V14.01,2013-07-11 15:38:00,
2013-07-11 11:39:00,80.7,48.9,29.91,NE,47,4.0,6.7,33,0.00,,---,0.00,VWS V14.01,2013-07-11 15:39:00,
2013-07-11 11:40:00,76.5,48.3,29.91,NNW,328,0.0,3.6,37,0.00,,---,0.00,VWS V14.01,2013-07-11 15:40:00,
2013-07-11 11:41:00,77.2,50.4,29.91,NNW,327,0.0,0.0,39,0.00,,---,0.00,VWS V14.01,2013-07-11 15:41:00,
2013-07-11 11:42:00,77.8,50.9,29.91,NNE,32,0.0,0.0,39,0.00,,---,0.00,VWS V14.01,2013-07-11 15:42:00,
2013-07-11 11:43:00,78.5,52.9,29.91,South,174,0.0,0.0,41,0.00,,---,0.00,VWS V14.01,2013-07-11 15:43:00,
2013-07-11 11:44:00,80.8,47.4,29.91,NNW,332,4.5,4.5,31,0.00,,---,0.00,VWS V14.01,2013-07-11 15:44:00,
2013-07-11 11:45:00,79.2,52.2,29.91,NNW,341,5.4,7.4,39,0.00,,---,0.00,VWS V14.01,2013-07-11 15:45:00,
2013-07-11 11:46:00,79.4,50.2,29.91,West,280,5.8,8.3,36,0.00,,---,0.00,VWS V14.01,2013-07-11 15:46:00,
2013-07-11 11:47:00,79.9,52.1,29.91,WNW,295,6.9,6.9,38,0.00,,---,0.00,VWS V14.01,2013-07-11 15:47:00,
2013-07-11 11:48:00,80.1,50.8,29.91,NW,321,2.7,6.9,36,0.00,,---,0.00,VWS V14.01,2013-07-11 15:48:00,
2013-07-11 11:49:00,81.7,50.7,29.91,NNW,343,6.3,6.9,34,0.00,,---,0.00,VWS V14.01,2013-07-11 15:49:00,
2013-07-11 11:50:00,80.8,53.6,29.91,WNW,289,6.7,6.7,39,0.00,,---,0.00,VWS V14.01,2013-07-11 15:50:00,
2013-07-11 11:51:00,81.0,51.6,29.91,East,81,3.6,6.7,36,0.00,,---,0.00,VWS V14.01,2013-07-11 15:51:00,
2013-07-11 11:52:00,81.2,51.0,29.91,ENE,57,4.5,4.9,35,0.00,,---,0.00,VWS V14.01,2013-07-11 15:52:00,
2013-07-11 11:53:00,80.1,49.2,29.91,ENE,68,2.7,5.4,34,0.00,,---,0.00,VWS V14.01,2013-07-11 15:53:00,
2013-07-11 11:54:00,82.3,48.7,29.91,NW,323,5.8,8.3,31,0.00,,---,0.00,VWS V14.01,2013-07-11 15:54:00,
2013-07-11 11:55:00,79.8,49.7,29.91,NE,43,4.9,5.4,35,0.00,,---,0.00,VWS V14.01,2013-07-11 15:55:00,
2013-07-11 11:56:00,78.9,48.1,29.91,NE,48,4.9,4.9,34,0.00,,---,0.00,VWS V14.01,2013-07-11 15:56:00,
2013-07-11 11:57:00,78.0,47.3,29.91,NE,55,3.1,4.9,34,0.00,,---,0.00,VWS V14.01,2013-07-11 15:57:00,
2013-07-11 11:58:00,78.1,48.3,29.91,NE,55,0.0,3.1,35,0.00,,---,0.00,VWS V14.01,2013-07-11 15:58:00,
2013-07-11 11:59:00,82.8,49.1,29.91,NW,309,4.0,6.7,31,0.00,,---,0.00,VWS V14.01,2013-07-11 15:59:00,
2013-07-11 12:00:00,79.2,49.2,29.91,WNW,294,4.9,7.4,35,0.00,,---,0.00,VWS V14.01,2013-07-11 16:00:00,
2013-07-11 12:01:00,79.9,49.9,29.91,WSW,257,0.0,5.8,35,0.00,,---,0.00,VWS V14.01,2013-07-11 16:01:00,
2013-07-11 12:02:00,82.6,50.7,29.91,NW,324,6.7,6.9,33,0.00,,---,0.00,VWS V14.01,2013-07-11 16:02:00,
2013-07-11 12:03:00,80.7,49.7,29.91,NNW,334,4.9,6.7,34,0.00,,---,0.00,VWS V14.01,2013-07-11 16:03:00,
2013-07-11 12:04:00,82.8,46.4,29.91,NNE,21,0.0,6.9,28,0.00,,---,0.00,VWS V14.01,2013-07-11 16:04:00,
2013-07-11 12:05:00,80.8,49.9,29.91,NNW,343,5.4,5.4,34,0.00,,---,0.00,VWS V14.01,2013-07-11 16:05:00,
2013-07-11 12:06:00,80.8,50.7,29.91,NNE,13,6.9,6.9,35,0.00,,---,0.00,VWS V14.01,2013-07-11 16:06:00,
2013-07-11 12:07:00,80.1,49.2,29.91,NNE,27,3.1,7.8,34,0.00,,---,0.00,VWS V14.01,2013-07-11 16:07:00,
2013-07-11 12:08:00,79.4,48.6,29.91,North,351,4.9,4.9,34,0.00,,---,0.00,VWS V14.01,2013-07-11 16:08:00,
2013-07-11 12:09:00,82.3,48.7,29.88,NE,47,2.7,6.9,31,0.00,,---,0.00,VWS V14.01,2013-07-11 16:09:00,
2013-07-11 12:10:00,79.2,49.2,29.91,South,170,0.0,3.1,35,0.00,,---,0.00,VWS V14.01,2013-07-11 16:10:00,
2013-07-11 12:11:00,79.4,48.6,29.91,South,173,0.0,5.8,34,0.00,,---,0.00,VWS V14.01,2013-07-11 16:11:00,
2013-07-11 12:12:00,79.8,49.7,29.91,NNE,14,2.7,4.9,35,0.00,,---,0.00,VWS V14.01,2013-07-11 16:12:00,
2013-07-11 12:13:00,80.1,50.0,29.91,ENE,65,0.0,4.5,35,0.00,,---,0.00,VWS V14.01,2013-07-11 16:13:00,
2013-07-11 12:14:00,82.3,46.0,29.88,NNE,15,4.5,5.8,28,0.00,,---,0.00,VWS V14.01,2013-07-11 16:14:00,
2013-07-11 12:15:00,80.7,50.5,29.91,NNW,336,5.4,5.4,35,0.00,,---,0.00,VWS V14.01,2013-07-11 16:15:00,
2013-07-11 12:16:00,80.8,50.7,29.91,SE,143,2.7,5.8,35,0.00,,---,0.00,VWS V14.01,2013-07-11 16:16:00,
2013-07-11 12:17:00,81.2,51.0,29.91,North,11,4.5,4.5,35,0.00,,---,0.00,VWS V14.01,2013-07-11 16:17:00,
2013-07-11 12:18:00,81.4,51.1,29.91,NW,315,5.8,6.3,35,0.00,,---,0.00,VWS V14.01,2013-07-11 16:18:00,
2013-07-11 12:19:00,82.1,48.5,29.88,NW,308,5.4,6.7,31,0.00,,---,0.00,VWS V14.01,2013-07-11 16:19:00,
2013-07-11 12:20:00,80.7,49.7,29.88,WSW,252,0.0,4.9,34,0.00,,---,0.00,VWS V14.01,2013-07-11 16:20:00,
2013-07-11 12:21:00,81.0,50.0,29.88,NW,321,2.7,4.5,34,0.00,,---,0.00,VWS V14.01,2013-07-11 16:21:00,
2013-07-11 12:22:00,81.0,50.8,29.88,NNE,19,4.9,5.4,35,0.00,,---,0.00,VWS V14.01,2013-07-11 16:22:00,
2013-07-11 12:23:00,81.0,50.0,29.88,NNW,328,4.9,7.8,34,0.00,,---,0.00,VWS V14.01,2013-07-11 16:23:00,
2013-07-11 12:24:00,82.3,48.7,29.88,NW,308,4.9,6.9,31,0.00,,---,0.00,VWS V14.01,2013-07-11 16:24:00,
2013-07-11 12:25:00,81.9,51.6,29.88,NNE,19,2.7,6.3,35,0.00,,---,0.00,VWS V14.01,2013-07-11 16:25:00,
2013-07-11 12:26:00,81.7,49.9,29.88,ENE,62,0.0,2.7,33,0.00,,---,0.00,VWS V14.01,2013-07-11 16:26:00,
2013-07-11 12:27:00,81.9,50.8,29.88,NNW,342,4.5,4.9,34,0.00,,---,0.00,VWS V14.01,2013-07-11 16:27:00,
2013-07-11 12:28:00,81.6,45.3,29.88,NNW,345,0.0,4.5,28,0.00,,---,0.00,VWS V14.01,2013-07-11 16:28:00,
2013-07-11 12:29:00,81.2,45.0,29.88,West,270,0.0,5.4,28,0.00,,---,0.00,VWS V14.01,2013-07-11 16:29:00,
2013-07-11 12:30:00,81.0,47.6,29.88,North,351,3.1,3.6,31,0.00,,---,0.00,VWS V14.01,2013-07-11 16:30:00,
2013-07-11 12:31:00,81.6,50.5,29.88,West,277,3.1,3.6,34,0.00,,---,0.00,VWS V14.01,2013-07-11 16:31:00,
2013-07-11 12:32:00,81.7,48.2,29.88,NNW,347,6.7,8.3,31,0.00,,---,0.00,VWS V14.01,2013-07-11 16:32:00,
2013-07-11 12:33:00,81.7,49.9,29.88,NE,37,2.7,4.0,33,0.00,,---,0.00,VWS V14.01,2013-07-11 16:33:00,
2013-07-11 12:34:00,81.9,45.7,29.88,WNW,301,6.7,6.9,28,0.00,,---,0.00,VWS V14.01,2013-07-11 16:34:00,
2013-07-11 12:35:00,80.7,47.2,29.91,ENE,62,4.9,4.9,31,0.00,,---,0.00,VWS V14.01,2013-07-11 16:35:00,
2013-07-11 12:36:00,79.9,46.6,29.91,NE,44,3.6,4.9,31,0.00,,---,0.00,VWS V14.01,2013-07-11 16:36:00,
2013-07-11 12:37:00,82.1,48.5,29.88,NW,309,3.6,7.8,31,0.00,,---,0.00,VWS V14.01,2013-07-11 16:37:00,
2013-07-11 12:38:00,80.5,49.6,29.91,NNW,339,4.0,4.9,34,0.00,,---,0.00,VWS V14.01,2013-07-11 16:38:00,
2013-07-11 12:39:00,81.7,45.5,29.88,NW,319,2.7,10.1,28,0.00,,---,0.00,VWS V14.01,2013-07-11 16:39:00,
2013-07-11 12:40:00,80.7,47.2,29.91,NE,43,4.0,4.9,31,0.00,,---,0.00,VWS V14.01,2013-07-11 16:40:00,
2013-07-11 12:41:00,81.0,49.2,29.91,NNW,347,0.0,4.0,33,0.00,,---,0.00,VWS V14.01,2013-07-11 16:41:00,
2013-07-11 12:42:00,81.0,49.2,29.91,ENE,74,5.8,5.8,33,0.00,,---,0.00,VWS V14.01,2013-07-11 16:42:00,
2013-07-11 12:43:00,80.8,47.4,29.91,West,262,4.0,5.8,31,0.00,,---,0.00,VWS V14.01,2013-07-11 16:43:00,
2013-07-11 12:44:00,82.8,46.4,29.88,WNW,296,4.5,4.5,28,0.00,,---,0.00,VWS V14.01,2013-07-11 16:44:00,
2013-07-11 12:45:00,81.0,47.6,29.91,WSW,237,0.0,4.5,31,0.00,,---,0.00,VWS V14.01,2013-07-11 16:45:00,
2013-07-11 12:46:00,81.2,49.4,29.91,NNW,341,5.8,5.8,33,0.00,,---,0.00,VWS V14.01,2013-07-11 16:46:00,
2013-07-11 12:47:00,81.2,47.7,29.91,NNE,25,4.0,6.7,31,0.00,,---,0.00,VWS V14.01,2013-07-11 16:47:00,
2013-07-11 12:48:00,81.6,49.7,29.91,NNW,327,3.1,7.4,33,0.00,,---,0.00,VWS V14.01,2013-07-11 16:48:00,
2013-07-11 12:49:00,83.0,46.6,29.88,NW,308,4.5,5.8,28,0.00,,---,0.00,VWS V14.01,2013-07-11 16:49:00,
2013-07-11 12:50:00,81.9,45.7,29.91,SSE,163,3.1,6.9,28,0.00,,---,0.00,VWS V14.01,2013-07-11 16:50:00,
2013-07-11 12:51:00,82.1,48.5,29.91,NNE,25,3.1,4.9,31,0.00,,---,0.00,VWS V14.01,2013-07-11 16:51:00,
2013-07-11 12:52:00,82.5,50.5,29.91,NW,304,4.0,8.3,33,0.00,,---,0.00,VWS V14.01,2013-07-11 16:52:00,
2013-07-11 12:53:00,82.3,46.0,29.91,WNW,283,3.6,4.0,28,0.00,,---,0.00,VWS V14.01,2013-07-11 16:53:00,
2013-07-11 12:54:00,84.1,49.3,29.91,North,2,4.0,5.4,30,0.00,,---,0.00,VWS V14.01,2013-07-11 16:54:00,
2013-07-11 12:55:00,82.3,48.7,29.91,North,351,6.7,6.7,31,0.00,,---,0.00,VWS V14.01,2013-07-11 16:55:00,
2013-07-11 12:56:00,82.5,50.5,29.91,NNW,345,6.3,6.9,33,0.00,,---,0.00,VWS V14.01,2013-07-11 16:56:00,
2013-07-11 12:57:00,82.5,48.8,29.91,NNW,347,4.9,6.3,31,0.00,,---,0.00,VWS V14.01,2013-07-11 16:57:00,
2013-07-11 12:58:00,82.8,50.8,29.91,NNW,336,6.7,6.7,33,0.00,,---,0.00,VWS V14.01,2013-07-11 16:58:00,
2013-07-11 12:59:00,83.7,47.2,29.91,NW,309,9.6,11.6,28,0.00,,---,0.00,VWS V14.01,2013-07-11 16:59:00,
2013-07-11 13:00:00,82.8,49.1,29.91,WSW,250,2.7,5.4,31,0.00,,---,0.00,VWS V14.01,2013-07-11 17:00:00,
2013-07-11 13:01:00,82.6,49.0,29.91,NW,304,6.9,6.9,31,0.00,,---,0.00,VWS V14.01,2013-07-11 17:01:00,
2013-07-11 13:02:00,82.6,50.7,29.91,NW,324,6.7,6.9,33,0.00,,---,0.00,VWS V14.01,2013-07-11 17:02:00,
2013-07-11 13:03:00,82.8,49.1,29.91,North,4,5.4,6.7,31,0.00,,---,0.00,VWS V14.01,2013-07-11 17:03:00,
2013-07-11 13:04:00,84.1,47.5,29.91,WSW,257,4.5,8.3,28,0.00,,---,0.00,VWS V14.01,2013-07-11 17:04:00,
2013-07-11 13:05:00,82.1,45.8,29.88,ENE,57,3.1,4.5,28,0.00,,---,0.00,VWS V14.01,2013-07-11 17:05:00,
2013-07-11 13:06:00,82.3,46.0,29.88,NE,56,3.6,3.6,28,0.00,,---,0.00,VWS V14.01,2013-07-11 17:06:00,
2013-07-11 13:07:00,81.6,45.3,29.88,ENE,61,4.9,5.4,28,0.00,,---,0.00,VWS V14.01,2013-07-11 17:07:00,
2013-07-11 13:08:00,83.4,46.9,29.88,ENE,74,0.0,4.9,28,0.00,,---,0.00,VWS V14.01,2013-07-11 17:08:00,
2013-07-11 13:09:00,82.3,48.7,29.88,NE,47,2.7,6.9,31,0.00,,---,0.00,VWS V14.01,2013-07-11 17:09:00,
2013-07-11 13:10:00,83.7,47.2,29.88,NNW,340,4.5,6.9,28,0.00,,---,0.00,VWS V14.01,2013-07-11 17:10:00,
2013-07-11 13:11:00,82.6,49.0,29.88,NW,322,8.3,8.7,31,0.00,,---,0.00,VWS V14.01,2013-07-11 17:11:00,
2013-07-11 13:12:00,82.6,49.0,29.88,NNE,15,7.8,9.6,31,0.00,,---,0.00,VWS V14.01,2013-07-11 17:12:00,
2013-07-11 13:13:00,81.7,45.5,29.88,North,351,5.4,8.3,28,0.00,,---,0.00,VWS V14.01,2013-07-11 17:13:00,
2013-07-11 13:14:00,82.3,46.0,29.88,NNE,15,4.5,5.8,28,0.00,,---,0.00,VWS V14.01,2013-07-11 17:14:00,
2013-07-11 13:15:00,82.8,46.4,29.88,NNW,347,2.7,3.6,28,0.00,,---,0.00,VWS V14.01,2013-07-11 17:15:00,
2013-07-11 13:16:00,82.1,50.2,29.88,NW,319,5.4,9.2,33,0.00,,---,0.00,VWS V14.01,2013-07-11 17:16:00,
2013-07-11 13:17:00,83.9,47.3,29.88,WNW,300,4.0,5.4,28,0.00,,---,0.00,VWS V14.01,2013-07-11 17:17:00,
2013-07-11 13:18:00,82.1,45.8,29.88,East,91,4.0,7.4,28,0.00,,---,0.00,VWS V14.01,2013-07-11 17:18:00,
2013-07-11 13:19:00,82.1,48.5,29.88,NW,308,5.4,6.7,31,0.00,,---,0.00,VWS V14.01,2013-07-11 17:19:00,
2013-07-11 13:20:00,84.8,48.1,29.88,WNW,298,3.6,6.3,28,0.00,,---,0.00,VWS V14.01,2013-07-11 17:20:00,
2013-07-11 13:21:00,81.0,44.9,29.88,West,280,0.0,6.7,28,0.00,,---,0.00,VWS V14.01,2013-07-11 17:21:00,
2013-07-11 13:22:00,81.2,47.7,29.88,NNW,335,3.6,6.7,31,0.00,,---,0.00,VWS V14.01,2013-07-11 17:22:00,
2013-07-11 13:23:00,81.6,48.0,29.88,NNE,33,4.5,4.9,31,0.00,,---,0.00,VWS V14.01,2013-07-11 17:23:00,
2013-07-11 13:24:00,82.3,48.7,29.88,NW,308,4.9,6.9,31,0.00,,---,0.00,VWS V14.01,2013-07-11 17:24:00,
2013-07-11 13:25:00,85.2,48.4,29.88,North,5,3.1,4.5,28,0.00,,---,0.00,VWS V14.01,2013-07-11 17:25:00,
2013-07-11 13:26:00,81.2,45.0,29.88,West,262,5.8,5.8,28,0.00,,---,0.00,VWS V14.01,2013-07-11 17:26:00,
2013-07-11 13:27:00,81.0,44.9,29.88,WNW,298,4.0,6.7,28,0.00,,---,0.00,VWS V14.01,2013-07-11 17:27:00,
2013-07-11 13:28:00,81.6,45.3,29.88,NNW,345,0.0,4.5,28,0.00,,---,0.00,VWS V14.01,2013-07-11 17:28:00,
2013-07-11 13:29:00,80.8,44.7,29.88,West,270,0.0,5.4,28,0.00,,---,0.00,VWS V14.01,2013-07-11 17:29:00,
2013-07-11 13:30:00,84.4,47.8,29.88,NNE,24,2.7,4.0,28,0.00,,---,0.00,VWS V14.01,2013-07-11 17:30:00,
2013-07-11 13:31:00,81.4,47.9,29.88,West,276,8.3,8.3,31,0.00,,---,0.00,VWS V14.01,2013-07-11 17:31:00,
2013-07-11 13:32:00,81.7,48.2,29.88,NNW,347,6.7,8.3,31,0.00,,---,0.00,VWS V14.01,2013-07-11 17:32:00,
2013-07-11 13:33:00,82.1,48.5,29.88,WSW,250,2.7,6.9,31,0.00,,---,0.00,VWS V14.01,2013-07-11 17:33:00,
2013-07-11 13:34:00,81.9,45.7,29.88,WNW,301,6.7,6.9,28,0.00,,---,0.00,VWS V14.01,2013-07-11 17:34:00,
2013-07-11 13:35:00,83.2,46.7,29.88,SW,231,0.0,4.9,28,0.00,,---,0.00,VWS V14.01,2013-07-11 17:35:00,
2013-07-11 13:36:00,81.7,45.5,29.88,NW,315,7.8,7.8,28,0.00,,---,0.00,VWS V14.01,2013-07-11 17:36:00,
2013-07-11 13:37:00,82.1,48.5,29.88,NW,309,3.6,7.8,31,0.00,,---,0.00,VWS V14.01,2013-07-11 17:37:00,
2013-07-11 13:38:00,82.3,48.7,29.88,NW,322,6.3,6.9,31,0.00,,---,0.00,VWS V14.01,2013-07-11 17:38:00,
2013-07-11 13:39:00,81.7,45.5,29.88,NW,319,2.7,10.1,28,0.00,,---,0.00,VWS V14.01,2013-07-11 17:39:00,
2013-07-11 13:40:00,83.7,49.9,29.88,NNW,340,4.0,6.7,31,0.00,,---,0.00,VWS V14.01,2013-07-11 17:40:00,
2013-07-11 13:41:00,82.1,45.8,29.88,NNW,340,4.9,7.8,28,0.00,,---,0.00,VWS V14.01,2013-07-11 17:41:00,
2013-07-11 13:42:00,82.5,46.1,29.88,North,351,3.6,7.4,28,0.00,,---,0.00,VWS V14.01,2013-07-11 17:42:00,
2013-07-11 13:43:00,82.6,46.3,29.88,NW,324,4.9,6.7,28,0.00,,---,0.00,VWS V14.01,2013-07-11 17:43:00,
2013-07-11 13:44:00,82.8,46.4,29.88,WSW,243,4.0,7.4,28,0.00,,---,0.00,VWS V14.01,2013-07-11 17:44:00,
2013-07-11 13:45:00,82.8,46.4,29.88,NNW,336,4.5,5.4,28,0.00,,---,0.00,VWS V14.01,2013-07-11 17:45:00,
2013-07-11 13:46:00,82.6,46.3,29.88,South,190,3.1,6.3,28,0.00,,---,0.00,VWS V14.01,2013-07-11 17:46:00,
2013-07-11 13:47:00,82.8,46.4,29.88,NE,42,4.5,4.5,28,0.00,,---,0.00,VWS V14.01,2013-07-11 17:47:00,
2013-07-11 13:48:00,82.8,46.4,29.88,NW,309,0.0,5.4,28,0.00,,---,0.00,VWS V14.01,2013-07-11 17:48:00,
2013-07-11 13:49:00,83.4,46.9,29.88,NNW,334,5.8,8.3,28,0.00,,---,0.00,VWS V14.01,2013-07-11 17:49:00,
2013-07-11 13:50:00,81.9,45.7,29.91,SSE,163,3.1,6.9,28,0.00,,---,0.00,VWS V14.01,2013-07-11 17:50:00,
2013-07-11 13:51:00,84.4,47.8,29.88,North,351,0.0,5.4,28,0.00,,---,0.00,VWS V14.01,2013-07-11 17:51:00,
2013-07-11 13:52:00,83.4,49.6,29.91,North,351,5.8,6.3,31,0.00,,---,0.00,VWS V14.01,2013-07-11 17:52:00,
2013-07-11 13:53:00,83.7,49.9,29.91,ESE,120,0.0,5.8,31,0.00,,---,0.00,VWS V14.01,2013-07-11 17:53:00,
2013-07-11 13:54:00,84.1,49.3,29.91,North,351,5.4,6.7,30,0.00,,---,0.00,VWS V14.01,2013-07-11 17:54:00,
2013-07-11 13:55:00,84.3,49.5,29.91,WNW,289,3.1,6.9,30,0.00,,---,0.00,VWS V14.01,2013-07-11 17:55:00,
2013-07-11 13:56:00,85.0,48.3,29.88,WNW,285,2.7,4.5,28,0.00,,---,0.00,VWS V14.01,2013-07-11 17:56:00,
2013-07-11 13:57:00,84.8,50.0,29.91,North,356,3.1,6.3,30,0.00,,---,0.00,VWS V14.01,2013-07-11 17:57:00,
2013-07-11 13:58:00,84.8,48.1,29.91,NNW,338,4.5,4.5,28,0.00,,---,0.00,VWS V14.01,2013-07-11 17:58:00,
2013-07-11 13:59:00,84.6,48.0,29.91,WNW,292,7.4,8.3,28,0.00,,---,0.00,VWS V14.01,2013-07-11 17:59:00,
2013-07-11 14:00:00,84.4,47.8,29.91,North,0,4.9,11.6,28,0.00,,---,0.00,VWS V14.01,2013-07-11 18:00:00,
2013-07-11 14:01:00,83.7,47.2,29.88,North,351,7.4,7.4,28,0.00,,---,0.00,VWS V14.01,2013-07-11 18:01:00,
2013-07-11 14:02:00,84.3,47.7,29.91,NW,326,3.6,7.8,28,0.00,,---,0.00,VWS V14.01,2013-07-11 18:02:00,
2013-07-11 14:03:00,83.4,46.9,29.91,NW,304,4.0,6.7,28,0.00,,---,0.00,VWS V14.01,2013-07-11 18:03:00,
2013-07-11 14:04:00,84.1,47.5,29.91,WSW,253,3.1,4.9,28,0.00,,---,0.00,VWS V14.01,2013-07-11 18:04:00,
2013-07-11 14:05:00,84.3,47.7,29.88,NW,310,0.0,8.3,28,0.00,,---,0.00,VWS V14.01,2013-07-11 18:05:00,
2013-07-11 14:06:00,81.9,45.7,29.88,NE,47,4.9,5.4,28,0.00,,---,0.00,VWS V14.01,2013-07-11 18:06:00,
2013-07-11 14:07:00,82.8,46.4,29.88,WNW,298,2.7,5.4,28,0.00,,---,0.00,VWS V14.01,2013-07-11 18:07:00,
2013-07-11 14:08:00,83.4,46.9,29.88,ENE,74,0.0,4.9,28,0.00,,---,0.00,VWS V14.01,2013-07-11 18:08:00,
2013-07-11 14:09:00,83.9,49.2,29.88,NNE,31,4.9,4.9,30,0.00,,---,0.00,VWS V14.01,2013-07-11 18:09:00,
2013-07-11 14:10:00,83.9,47.3,29.88,NW,319,5.8,6.9,28,0.00,,---,0.00,VWS V14.01,2013-07-11 18:10:00,
2013-07-11 14:11:00,81.0,44.9,29.88,NNW,347,2.7,4.5,28,0.00,,---,0.00,VWS V14.01,2013-07-11 18:11:00,
2013-07-11 14:12:00,83.7,47.2,29.88,ENE,65,3.6,6.3,28,0.00,,---,0.00,VWS V14.01,2013-07-11 18:12:00,
2013-07-11 14:13:00,83.0,46.6,29.88,North,351,6.7,6.7,28,0.00,,---,0.00,VWS V14.01,2013-07-11 18:13:00,
2013-07-11 14:14:00,82.5,46.1,29.88,NE,49,4.0,6.7,28,0.00,,---,0.00,VWS V14.01,2013-07-11 18:14:00,
2013-07-11 14:15:00,82.8,46.4,29.88,NNE,13,2.7,6.3,28,0.00,,---,0.00,VWS V14.01,2013-07-11 18:15:00,
2013-07-11 14:16:00,83.4,46.9,29.88,WNW,282,3.6,4.5,28,0.00,,---,0.00,VWS V14.01,2013-07-11 18:16:00,
2013-07-11 14:17:00,80.3,45.2,29.88,NNW,343,4.0,5.8,29,0.00,,---,0.00,VWS V14.01,2013-07-11 18:17:00,
2013-07-11 14:18:00,84.1,47.5,29.88,NE,37,3.1,5.4,28,0.00,,---,0.00,VWS V14.01,2013-07-11 18:18:00,
2013-07-11 14:19:00,84.4,47.8,29.88,NNE,15,3.6,8.3,28,0.00,,---,0.00,VWS V14.01,2013-07-11 18:19:00,
2013-07-11 14:20:00,84.6,48.0,29.88,West,277,5.8,6.3,28,0.00,,---,0.00,VWS V14.01,2013-07-11 18:20:00,
2013-07-11 14:21:00,85.0,48.3,29.88,North,351,5.8,6.3,28,0.00,,---,0.00,VWS V14.01,2013-07-11 18:21:00,
2013-07-11 14:22:00,80.1,45.0,29.88,NNW,335,2.7,3.6,29,0.00,,---,0.00,VWS V14.01,2013-07-11 18:22:00,
2013-07-11 14:23:00,84.4,47.8,29.88,NNW,342,2.7,3.1,28,0.00,,---,0.00,VWS V14.01,2013-07-11 18:23:00,
2013-07-11 14:24:00,84.6,48.0,29.88,ENE,58,0.0,3.6,28,0.00,,---,0.00,VWS V14.01,2013-07-11 18:24:00,
2013-07-11 14:25:00,84.8,48.1,29.88,NE,43,0.0,2.7,28,0.00,,---,0.00,VWS V14.01,2013-07-11 18:25:00,
2013-07-11 14:26:00,85.3,48.6,29.88,NW,305,5.8,5.8,28,0.00,,---,0.00,VWS V14.01,2013-07-11 18:26:00,
2013-07-11 14:27:00,81.7,45.5,29.88,SW,235,3.1,5.4,28,0.00,,---,0.00,VWS V14.01,2013-07-11 18:27:00,
2013-07-11 14:28:00,83.4,46.9,29.88,WSW,255,3.1,4.5,28,0.00,,---,0.00,VWS V14.01,2013-07-11 18:28:00,
2013-07-11 14:29:00,84.4,47.8,29.88,NNW,344,4.5,4.5,28,0.00,,---,0.00,VWS V14.01,2013-07-11 18:29:00,
2013-07-11 14:30:00,84.4,47.8,29.88,NNW,335,0.0,4.5,28,0.00,,---,0.00,VWS V14.01,2013-07-11 18:30:00,
2013-07-11 14:31:00,84.4,47.8,29.88,NNE,24,2.7,4.0,28,0.00,,---,0.00,VWS V14.01,2013-07-11 18:31:00,
2013-07-11 14:32:00,82.5,46.1,29.88,NNE,13,6.7,6.7,28,0.00,,---,0.00,VWS V14.01,2013-07-11 18:32:00,
2013-07-11 14:33:00,84.1,47.5,29.88,NW,326,5.4,6.3,28,0.00,,---,0.00,VWS V14.01,2013-07-11 18:33:00,
2013-07-11 14:34:00,84.1,47.5,29.88,West,275,4.0,5.4,28,0.00,,---,0.00,VWS V14.01,2013-07-11 18:34:00,
2013-07-11 14:35:00,83.9,47.3,29.88,WSW,247,3.6,4.9,28,0.00,,---,0.00,VWS V14.01,2013-07-11 18:35:00,
2013-07-11 14:36:00,83.0,46.6,29.88,SW,235,5.8,7.4,28,0.00,,---,0.00,VWS V14.01,2013-07-11 18:36:00,
2013-07-11 14:37:00,82.8,46.4,29.88,WNW,291,4.0,5.4,28,0.00,,---,0.00,VWS V14.01,2013-07-11 18:37:00,
2013-07-11 14:38:00,82.6,46.3,29.88,ENE,68,2.7,7.8,28,0.00,,---,0.00,VWS V14.01,2013-07-11 18:38:00,
2013-07-11 14:39:00,83.0,46.6,29.88,WNW,296,6.3,8.3,28,0.00,,---,0.00,VWS V14.01,2013-07-11 18:39:00,
2013-07-11 14:40:00,83.0,46.6,29.88,ENE,57,4.5,7.4,28,0.00,,---,0.00,VWS V14.01,2013-07-11 18:40:00,
2013-07-11 14:41:00,83.5,47.0,29.88,NW,314,4.9,6.7,28,0.00,,---,0.00,VWS V14.01,2013-07-11 18:41:00,
2013-07-11 14:42:00,83.7,47.2,29.88,NE,53,2.7,4.5,28,0.00,,---,0.00,VWS V14.01,2013-07-11 18:42:00,
2013-07-11 14:43:00,82.5,46.1,29.88,NW,322,6.9,7.8,28,0.00,,---,0.00,VWS V14.01,2013-07-11 18:43:00,
2013-07-11 14:44:00,82.6,46.3,29.88,West,268,3.6,7.4,28,0.00,,---,0.00,VWS V14.01,2013-07-11 18:44:00,
2013-07-11 14:45:00,82.6,46.3,29.88,West,272,3.6,4.9,28,0.00,,---,0.00,VWS V14.01,2013-07-11 18:45:00,
2013-07-11 14:46:00,82.8,46.4,29.88,South,190,0.0,6.3,28,0.00,,---,0.00,VWS V14.01,2013-07-11 18:46:00,
2013-07-11 14:47:00,82.3,46.0,29.88,NW,309,3.6,5.8,28,0.00,,---,0.00,VWS V14.01,2013-07-11 18:47:00,
2013-07-11 14:48:00,83.5,47.0,29.88,WNW,289,4.0,4.5,28,0.00,,---,0.00,VWS V14.01,2013-07-11 18:48:00,
2013-07-11 14:49:00,84.1,49.3,29.88,SE,139,2.7,4.9,30,0.00,,---,0.00,VWS V14.01,2013-07-11 18:49:00,
2013-07-11 14:50:00,84.4,47.8,29.88,NW,318,4.9,6.7,28,0.00,,---,0.00,VWS V14.01,2013-07-11 18:50:00,
2013-07-11 14:51:00,84.4,47.8,29.88,North,351,0.0,5.4,28,0.00,,---,0.00,VWS V14.01,2013-07-11 18:51:00,
2013-07-11 14:52:00,84.3,47.7,29.88,North,8,0.0,2.7,28,0.00,,---,0.00,VWS V14.01,2013-07-11 18:52:00,
2013-07-11 14:53:00,81.2,45.0,29.88,NNW,344,3.6,6.7,28,0.00,,---,0.00,VWS V14.01,2013-07-11 18:53:00,
2013-07-11 14:54:00,84.3,47.7,29.88,North,8,4.9,7.4,28,0.00,,---,0.00,VWS V14.01,2013-07-11 18:54:00,
2013-07-11 14:55:00,84.6,48.0,29.88,NW,321,4.5,8.3,28,0.00,,---,0.00,VWS V14.01,2013-07-11 18:55:00,
2013-07-11 14:56:00,85.0,48.3,29.88,WNW,285,2.7,4.5,28,0.00,,---,0.00,VWS V14.01,2013-07-11 18:56:00,
2013-07-11 14:57:00,85.5,48.7,29.88,NNE,30,0.0,3.1,28,0.00,,---,0.00,VWS V14.01,2013-07-11 18:57:00,
2013-07-11 14:58:00,82.6,46.3,29.88,North,9,3.1,6.9,28,0.00,,---,0.00,VWS V14.01,2013-07-11 18:58:00,
2013-07-11 14:59:00,85.2,48.4,29.88,NNE,22,4.0,6.9,28,0.00,,---,0.00,VWS V14.01,2013-07-11 18:59:00,
2013-07-11 15:00:00,84.3,47.7,29.88,NE,47,4.5,5.8,28,0.00,,---,0.00,VWS V14.01,2013-07-11 19:00:00,
2013-07-11 15:01:00,83.7,47.2,29.88,North,351,7.4,7.4,28,0.00,,---,0.00,VWS V14.01,2013-07-11 19:01:00,
2013-07-11 15:02:00,83.2,46.7,29.88,NNW,345,4.0,9.2,28,0.00,,---,0.00,VWS V14.01,2013-07-11 19:02:00,
2013-07-11 15:03:00,83.0,46.6,29.88,NNW,339,4.5,6.7,28,0.00,,---,0.00,VWS V14.01,2013-07-11 19:03:00,
2013-07-11 15:04:00,81.9,45.7,29.88,SW,236,3.6,4.0,28,0.00,,---,0.00,VWS V14.01,2013-07-11 19:04:00,
2013-07-11 15:05:00,81.9,45.7,29.88,NW,316,5.8,5.8,28,0.00,,---,0.00,VWS V14.01,2013-07-11 19:05:00,
2013-07-11 15:06:00,81.9,45.7,29.88,ENE,57,5.4,6.3,28,0.00,,---,0.00,VWS V14.01,2013-07-11 19:06:00,
2013-07-11 15:07:00,81.9,45.7,29.88,NNW,330,4.9,5.4,28,0.00,,---,0.00,VWS V14.01,2013-07-11 19:07:00,
2013-07-11 15:08:00,81.9,45.7,29.88,NNW,328,6.9,6.9,28,0.00,,---,0.00,VWS V14.01,2013-07-11 19:08:00,
2013-07-11 15:09:00,81.9,45.7,29.88,NNE,21,2.7,5.4,28,0.00,,---,0.00,VWS V14.01,2013-07-11 19:09:00,
2013-07-11 15:10:00,81.7,45.5,29.88,WSW,252,2.7,4.0,28,0.00,,---,0.00,VWS V14.01,2013-07-11 19:10:00,
2013-07-11 15:11:00,81.4,45.2,29.88,WNW,282,0.0,4.0,28,0.00,,---,0.00,VWS V14.01,2013-07-11 19:11:00,
2013-07-11 15:12:00,80.7,44.6,29.88,North,3,4.0,6.9,28,0.00,,---,0.00,VWS V14.01,2013-07-11 19:12:00,
2013-07-11 15:13:00,81.4,45.2,29.88,South,178,0.0,8.7,28,0.00,,---,0.00,VWS V14.01,2013-07-11 19:13:00,
2013-07-11 15:14:00,79.9,44.9,29.88,SSW,195,4.5,7.4,29,0.00,,---,0.00,VWS V14.01,2013-07-11 19:14:00,
2013-07-11 15:15:00,79.8,44.7,29.88,NNW,343,2.7,5.8,29,0.00,,---,0.00,VWS V14.01,2013-07-11 19:15:00,
2013-07-11 15:16:00,79.8,44.7,29.88,WNW,302,2.7,3.6,29,0.00,,---,0.00,VWS V14.01,2013-07-11 19:16:00,
2013-07-11 15:17:00,80.3,45.2,29.88,NNW,343,4.0,5.8,29,0.00,,---,0.00,VWS V14.01,2013-07-11 19:17:00,
2013-07-11 15:18:00,82.1,45.8,29.88,WSW,241,2.7,6.9,28,0.00,,---,0.00,VWS V14.01,2013-07-11 19:18:00,
2013-07-11 15:19:00,80.1,45.0,29.88,NNW,334,3.6,5.8,29,0.00,,---,0.00,VWS V14.01,2013-07-11 19:19:00,
2013-07-11 15:20:00,79.8,44.7,29.88,WSW,248,0.0,3.6,29,0.00,,---,0.00,VWS V14.01,2013-07-11 19:20:00,
2013-07-11 15:21:00,79.6,44.6,29.88,ENE,75,2.7,2.7,29,0.00,,---,0.00,VWS V14.01,2013-07-11 19:21:00,
2013-07-11 15:22:00,80.1,45.0,29.88,NNW,335,2.7,3.6,29,0.00,,---,0.00,VWS V14.01,2013-07-11 19:22:00,
2013-07-11 15:23:00,82.6,46.3,29.88,West,272,5.4,7.4,28,0.00,,---,0.00,VWS V14.01,2013-07-11 19:23:00,
2013-07-11 15:24:00,80.8,44.7,29.88,North,11,3.1,6.7,28,0.00,,---,0.00,VWS V14.01,2013-07-11 19:24:00,
2013-07-11 15:25:00,80.8,44.7,29.88,North,1,5.8,6.9,28,0.00,,---,0.00,VWS V14.01,2013-07-11 19:25:00,
2013-07-11 15:26:00,81.2,45.0,29.88,SW,220,0.0,6.3,28,0.00,,---,0.00,VWS V14.01,2013-07-11 19:26:00,
2013-07-11 15:27:00,81.7,45.5,29.88,ENE,61,3.1,5.4,28,0.00,,---,0.00,VWS V14.01,2013-07-11 19:27:00,
2013-07-11 15:28:00,81.7,45.5,29.88,NW,323,5.8,6.3,28,0.00,,---,0.00,VWS V14.01,2013-07-11 19:28:00,
2013-07-11 15:29:00,82.5,46.1,29.88,NNE,12,3.1,4.9,28,0.00,,---,0.00,VWS V14.01,2013-07-11 19:29:00,
2013-07-11 15:30:00,82.6,46.3,29.88,NNE,22,3.6,6.7,28,0.00,,---,0.00,VWS V14.01,2013-07-11 19:30:00,
2013-07-11 15:31:00,82.6,46.3,29.88,WNW,301,4.5,9.6,28,0.00,,---,0.00,VWS V14.01,2013-07-11 19:31:00,
2013-07-11 15:32:00,82.5,46.1,29.88,NNE,13,6.7,6.7,28,0.00,,---,0.00,VWS V14.01,2013-07-11 19:32:00,
2013-07-11 15:33:00,81.9,45.7,29.88,NW,317,4.9,6.3,28,0.00,,---,0.00,VWS V14.01,2013-07-11 19:33:00,
2013-07-11 15:34:00,82.6,46.3,29.88,NW,323,5.4,5.4,28,0.00,,---,0.00,VWS V14.01,2013-07-11 19:34:00,
2013-07-11 15:35:00,83.0,46.6,29.88,West,269,3.6,5.8,28,0.00,,---,0.00,VWS V14.01,2013-07-11 19:35:00,
2013-07-11 15:36:00,83.0,46.6,29.88,NNW,338,4.5,6.9,28,0.00,,---,0.00,VWS V14.01,2013-07-11 19:36:00,
2013-07-11 15:37:00,81.9,45.7,29.88,WNW,298,6.3,6.7,28,0.00,,---,0.00,VWS V14.01,2013-07-11 19:37:00,
2013-07-11 15:38:00,81.6,45.3,29.88,WNW,294,7.4,10.1,28,0.00,,---,0.00,VWS V14.01,2013-07-11 19:38:00,
2013-07-11 15:39:00,82.8,46.4,29.88,North,351,4.5,6.3,28,0.00,,---,0.00,VWS V14.01,2013-07-11 19:39:00,
2013-07-11 15:40:00,81.7,45.5,29.88,NNW,335,3.1,9.2,28,0.00,,---,0.00,VWS V14.01,2013-07-11 19:40:00,
2013-07-11 15:41:00,83.4,46.9,29.88,SSE,163,0.0,4.5,28,0.00,,---,0.00,VWS V14.01,2013-07-11 19:41:00,
2013-07-11 15:42:00,83.9,47.3,29.88,North,356,4.5,9.2,28,0.00,,---,0.00,VWS V14.01,2013-07-11 19:42:00,
2013-07-11 15:43:00,82.1,45.8,29.88,NW,305,5.4,7.8,28,0.00,,---,0.00,VWS V14.01,2013-07-11 19:43:00,
2013-07-11 15:44:00,83.5,47.0,29.88,North,351,0.0,5.4,28,0.00,,---,0.00,VWS V14.01,2013-07-11 19:44:00,
2013-07-11 15:45:00,83.4,46.9,29.88,North,351,4.5,6.7,28,0.00,,---,0.00,VWS V14.01,2013-07-11 19:45:00,
2013-07-11 15:46:00,83.2,46.7,29.88,NNW,337,4.0,4.5,28,0.00,,---,0.00,VWS V14.01,2013-07-11 19:46:00,
2013-07-11 15:47:00,82.8,46.4,29.88,North,351,5.8,5.8,28,0.00,,---,0.00,VWS V14.01,2013-07-11 19:47:00,
2013-07-11 15:48:00,82.1,45.8,29.88,WNW,299,4.9,5.8,28,0.00,,---,0.00,VWS V14.01,2013-07-11 19:48:00,
2013-07-11 15:49:00,81.9,45.7,29.88,NNW,339,5.4,7.8,28,0.00,,---,0.00,VWS V14.01,2013-07-11 19:49:00,
2013-07-11 15:50:00,81.2,45.0,29.88,NW,323,6.7,6.9,28,0.00,,---,0.00,VWS V14.01,2013-07-11 19:50:00,
2013-07-11 15:51:00,80.8,44.7,29.88,NW,321,2.7,6.7,28,0.00,,---,0.00,VWS V14.01,2013-07-11 19:51:00,
2013-07-11 15:52:00,80.8,44.7,29.88,South,176,0.0,7.8,28,0.00,,---,0.00,VWS V14.01,2013-07-11 19:52:00,
2013-07-11 15:53:00,81.2,45.0,29.88,NNW,344,3.6,6.7,28,0.00,,---,0.00,VWS V14.01,2013-07-11 19:53:00,
2013-07-11 15:54:00,81.4,45.2,29.88,West,259,5.8,6.3,28,0.00,,---,0.00,VWS V14.01,2013-07-11 19:54:00,
2013-07-11 15:55:00,81.9,45.7,29.88,NNW,342,3.1,6.9,28,0.00,,---,0.00,VWS V14.01,2013-07-11 19:55:00,
2013-07-11 15:56:00,82.1,45.8,29.88,NE,49,0.0,4.9,28,0.00,,---,0.00,VWS V14.01,2013-07-11 19:56:00,
2013-07-11 15:57:00,82.5,46.1,29.88,NW,306,6.3,7.4,28,0.00,,---,0.00,VWS V14.01,2013-07-11 19:57:00,
2013-07-11 15:58:00,82.6,46.3,29.88,North,9,3.1,6.9,28,0.00,,---,0.00,VWS V14.01,2013-07-11 19:58:00,
2013-07-11 15:59:00,81.2,45.0,29.88,WNW,301,4.9,7.8,28,0.00,,---,0.00,VWS V14.01,2013-07-11 19:59:00,
2013-07-11 16:00:00,83.0,46.6,29.88,West,271,5.4,9.6,28,0.00,,---,0.00,VWS V14.01,2013-07-11 20:00:00,
2013-07-11 16:01:00,80.8,44.7,29.88,SW,235,3.1,4.9,28,0.00,,---,0.00,VWS V14.01,2013-07-11 20:01:00,
2013-07-11 16:02:00,81.0,44.9,29.88,WNW,288,4.0,8.7,28,0.00,,---,0.00,VWS V14.01,2013-07-11 20:02:00,
2013-07-11 16:03:00,83.0,46.6,29.88,NNW,339,4.5,6.7,28,0.00,,---,0.00,VWS V14.01,2013-07-11 20:03:00,
2013-07-11 16:04:00,81.2,45.0,29.88,NNW,338,3.1,5.4,28,0.00,,---,0.00,VWS V14.01,2013-07-11 20:04:00,
2013-07-11 16:05:00,82.8,46.4,29.88,SSW,210,0.0,6.7,28,0.00,,---,0.00,VWS V14.01,2013-07-11 20:05:00,
2013-07-11 16:06:00,82.6,46.3,29.88,SE,139,7.4,8.3,28,0.00,,---,0.00,VWS V14.01,2013-07-11 20:06:00,
2013-07-11 16:07:00,82.3,46.0,29.88,SE,141,2.7,7.4,28,0.00,,---,0.00,VWS V14.01,2013-07-11 20:07:00,
2013-07-11 16:08:00,81.4,45.2,29.88,NW,320,5.8,5.8,28,0.00,,---,0.00,VWS V14.01,2013-07-11 20:08:00,
2013-07-11 16:09:00,81.4,45.2,29.88,WNW,296,4.0,7.4,28,0.00,,---,0.00,VWS V14.01,2013-07-11 20:09:00,
2013-07-11 16:10:00,81.4,45.2,29.88,NW,316,3.1,6.7,28,0.00,,---,0.00,VWS V14.01,2013-07-11 20:10:00,
2013-07-11 16:11:00,81.4,45.2,29.88,NW,323,0.0,6.3,28,0.00,,---,0.00,VWS V14.01,2013-07-11 20:11:00,
2013-07-11 16:12:00,81.4,45.2,29.88,North,351,7.8,8.3,28,0.00,,---,0.00,VWS V14.01,2013-07-11 20:12:00,
2013-07-11 16:13:00,81.6,45.3,29.88,South,178,0.0,8.7,28,0.00,,---,0.00,VWS V14.01,2013-07-11 20:13:00,
2013-07-11 16:14:00,81.2,45.0,29.88,South,191,3.6,6.7,28,0.00,,---,0.00,VWS V14.01,2013-07-11 20:14:00,
2013-07-11 16:15:00,81.9,45.7,29.88,NNW,332,5.4,11.0,28,0.00,,---,0.00,VWS V14.01,2013-07-11 20:15:00,
2013-07-11 16:16:00,82.1,45.8,29.88,NW,311,5.4,11.0,28,0.00,,---,0.00,VWS V14.01,2013-07-11 20:16:00,
2013-07-11 16:17:00,82.1,45.8,29.88,WNW,288,3.1,9.2,28,0.00,,---,0.00,VWS V14.01,2013-07-11 20:17:00,
2013-07-11 16:18:00,82.1,45.8,29.88,WSW,241,2.7,6.9,28,0.00,,---,0.00,VWS V14.01,2013-07-11 20:18:00,
2013-07-11 16:19:00,80.8,44.7,29.88,WNW,301,2.7,4.5,28,0.00,,---,0.00,VWS V14.01,2013-07-11 20:19:00,
2013-07-11 16:20:00,82.1,45.8,29.88,NW,315,4.5,6.7,28,0.00,,---,0.00,VWS V14.01,2013-07-11 20:20:00,
2013-07-11 16:21:00,82.3,46.0,29.88,West,266,4.0,5.4,28,0.00,,---,0.00,VWS V14.01,2013-07-11 20:21:00,
2013-07-11 16:22:00,82.5,46.1,29.88,WNW,285,3.6,6.7,28,0.00,,---,0.00,VWS V14.01,2013-07-11 20:22:00,
2013-07-11 16:23:00,82.6,46.3,29.88,West,272,5.4,7.4,28,0.00,,---,0.00,VWS V14.01,2013-07-11 20:23:00,
2013-07-11 16:24:00,80.7,42.6,29.88,ENE,71,4.5,4.5,26,0.00,,---,0.00,VWS V14.01,2013-07-11 20:24:00,
2013-07-11 16:25:00,81.9,45.7,29.88,West,268,4.0,6.9,28,0.00,,---,0.00,VWS V14.01,2013-07-11 20:25:00,
2013-07-11 16:26:00,81.6,45.3,29.88,NNW,340,4.5,6.7,28,0.00,,---,0.00,VWS V14.01,2013-07-11 20:26:00,
2013-07-11 16:27:00,81.7,45.5,29.88,ENE,61,3.1,5.4,28,0.00,,---,0.00,VWS V14.01,2013-07-11 20:27:00,
2013-07-11 16:28:00,81.7,45.5,29.88,NNW,327,4.5,4.5,28,0.00,,---,0.00,VWS V14.01,2013-07-11 20:28:00,
2013-07-11 16:29:00,80.7,44.6,29.88,NE,35,3.1,7.8,28,0.00,,---,0.00,VWS V14.01,2013-07-11 20:29:00,
2013-07-11 16:30:00,81.9,45.7,29.88,WNW,282,6.9,7.8,28,0.00,,---,0.00,VWS V14.01,2013-07-11 20:30:00,
2013-07-11 16:31:00,81.9,45.7,29.88,NNW,334,2.7,9.2,28,0.00,,---,0.00,VWS V14.01,2013-07-11 20:31:00,
2013-07-11 16:32:00,81.9,45.7,29.88,WNW,303,3.1,4.0,28,0.00,,---,0.00,VWS V14.01,2013-07-11 20:32:00,
2013-07-11 16:33:00,81.9,45.7,29.88,NW,313,5.8,5.8,28,0.00,,---,0.00,VWS V14.01,2013-07-11 20:33:00,
2013-07-11 16:34:00,79.9,44.9,29.88,North,0,8.3,9.2,29,0.00,,---,0.00,VWS V14.01,2013-07-11 20:34:00,
2013-07-11 16:35:00,81.9,45.7,29.88,NW,305,6.9,8.3,28,0.00,,---,0.00,VWS V14.01,2013-07-11 20:35:00,
2013-07-11 16:36:00,82.1,45.8,29.88,NW,321,4.5,6.9,28,0.00,,---,0.00,VWS V14.01,2013-07-11 20:36:00,
2013-07-11 16:37:00,81.9,45.7,29.88,WNW,298,6.3,6.7,28,0.00,,---,0.00,VWS V14.01,2013-07-11 20:37:00,
2013-07-11 16:38:00,81.7,45.5,29.88,WNW,301,7.4,9.6,28,0.00,,---,0.00,VWS V14.01,2013-07-11 20:38:00,
2013-07-11 16:39:00,79.2,44.2,29.88,SW,215,0.0,4.9,29,0.00,,---,0.00,VWS V14.01,2013-07-11 20:39:00,
2013-07-11 16:40:00,81.7,45.5,29.88,NNW,335,3.1,9.2,28,0.00,,---,0.00,VWS V14.01,2013-07-11 20:40:00,
2013-07-11 16:41:00,81.9,45.7,29.88,NNW,347,4.9,6.7,28,0.00,,---,0.00,VWS V14.01,2013-07-11 20:41:00,
2013-07-11 16:42:00,81.9,45.7,29.88,NW,308,9.6,9.6,28,0.00,,---,0.00,VWS V14.01,2013-07-11 20:42:00,
2013-07-11 16:43:00,81.9,45.7,29.88,NNW,327,4.5,9.6,28,0.00,,---,0.00,VWS V14.01,2013-07-11 20:43:00,
2013-07-11 16:44:00,78.9,41.1,29.88,North,1,0.0,2.7,26,0.00,,---,0.00,VWS V14.01,2013-07-11 20:44:00,
2013-07-11 16:45:00,81.9,45.7,29.88,NW,305,6.7,6.7,28,0.00,,---,0.00,VWS V14.01,2013-07-11 20:45:00,
2013-07-11 16:46:00,81.9,45.7,29.88,SSE,147,0.0,7.8,28,0.00,,---,0.00,VWS V14.01,2013-07-11 20:46:00,
2013-07-11 16:47:00,81.9,45.7,29.88,WNW,300,5.4,8.3,28,0.00,,---,0.00,VWS V14.01,2013-07-11 20:47:00,
2013-07-11 16:48:00,78.3,41.6,29.88,NNE,23,0.0,4.5,27,0.00,,---,0.00,VWS V14.01,2013-07-11 20:48:00,
2013-07-11 16:49:00,78.1,41.5,29.88,WNW,292,0.0,4.5,27,0.00,,---,0.00,VWS V14.01,2013-07-11 20:49:00,
2013-07-11 16:50:00,81.7,45.5,29.88,WNW,290,4.5,7.4,28,0.00,,---,0.00,VWS V14.01,2013-07-11 20:50:00,
2013-07-11 16:51:00,81.6,45.3,29.88,NNW,336,5.8,7.4,28,0.00,,---,0.00,VWS V14.01,2013-07-11 20:51:00,
2013-07-11 16:52:00,81.4,45.2,29.88,West,262,4.5,6.3,28,0.00,,---,0.00,VWS V14.01,2013-07-11 20:52:00,
2013-07-11 16:53:00,78.1,43.3,29.88,NNW,343,2.7,6.7,29,0.00,,---,0.00,VWS V14.01,2013-07-11 20:53:00,
2013-07-11 16:54:00,81.4,45.2,29.88,West,259,6.7,6.7,28,0.00,,---,0.00,VWS V14.01,2013-07-11 20:54:00,
2013-07-11 16:55:00,78.0,43.2,29.88,North,351,4.9,5.8,29,0.00,,---,0.00,VWS V14.01,2013-07-11 20:55:00,
2013-07-11 16:56:00,77.8,43.0,29.88,North,4,0.0,4.0,29,0.00,,---,0.00,VWS V14.01,2013-07-11 20:56:00,
2013-07-11 16:57:00,81.2,45.0,29.88,NW,306,11.2,11.2,28,0.00,,---,0.00,VWS V14.01,2013-07-11 20:57:00,
2013-07-11 16:58:00,81.2,45.0,29.88,WSW,254,4.5,11.2,28,0.00,,---,0.00,VWS V14.01,2013-07-11 20:58:00,
2013-07-11 16:59:00,81.2,45.0,29.88,NNW,329,4.9,7.8,28,0.00,,---,0.00,VWS V14.01,2013-07-11 20:59:00,
2013-07-11 17:00:00,77.2,42.5,29.88,NW,318,3.1,4.9,29,0.00,,---,0.00,VWS V14.01,2013-07-11 21:00:00,
2013-07-11 17:01:00,80.8,44.7,29.88,SW,235,3.1,4.9,28,0.00,,---,0.00,VWS V14.01,2013-07-11 21:01:00,
2013-07-11 17:02:00,81.0,44.9,29.88,WNW,288,4.0,8.7,28,0.00,,---,0.00,VWS V14.01,2013-07-11 21:02:00,
2013-07-11 17:03:00,81.0,44.9,29.88,NNW,330,5.4,6.9,28,0.00,,---,0.00,VWS V14.01,2013-07-11 21:03:00,
2013-07-11 17:04:00,81.2,45.0,29.88,NNW,338,3.1,5.4,28,0.00,,---,0.00,VWS V14.01,2013-07-11 21:04:00,
2013-07-11 17:05:00,76.5,42.8,29.88,NE,45,5.4,5.4,30,0.00,,---,0.00,VWS V14.01,2013-07-11 21:05:00,
2013-07-11 17:06:00,81.4,45.2,29.88,WNW,303,4.9,6.3,28,0.00,,---,0.00,VWS V14.01,2013-07-11 21:06:00,
2013-07-11 17:07:00,81.4,45.2,29.88,NNE,16,3.6,7.8,28,0.00,,---,0.00,VWS V14.01,2013-07-11 21:07:00,
2013-07-11 17:08:00,81.4,45.2,29.88,NW,320,5.8,5.8,28,0.00,,---,0.00,VWS V14.01,2013-07-11 21:08:00,
2013-07-11 17:09:00,81.4,45.2,29.88,WNW,296,4.0,7.4,28,0.00,,---,0.00,VWS V14.01,2013-07-11 21:09:00,
2013-07-11 17:10:00,76.5,42.8,29.88,NW,315,0.0,3.1,30,0.00,,---,0.00,VWS V14.01,2013-07-11 21:10:00,
2013-07-11 17:11:00,81.4,45.2,29.88,NNW,331,2.7,6.3,28,0.00,,---,0.00,VWS V14.01,2013-07-11 21:11:00,
2013-07-11 17:12:00,81.2,45.0,29.88,WNW,297,4.0,7.4,28,0.00,,---,0.00,VWS V14.01,2013-07-11 21:12:00,
2013-07-11 17:13:00,81.4,45.2,29.88,WSW,255,4.0,6.3,28,0.00,,---,0.00,VWS V14.01,2013-07-11 21:13:00,
2013-07-11 17:14:00,81.2,45.0,29.88,South,191,3.6,6.7,28,0.00,,---,0.00,VWS V14.01,2013-07-11 21:14:00,
2013-07-11 17:15:00,76.5,42.8,29.88,NNE,32,3.1,4.0,30,0.00,,---,0.00,VWS V14.01,2013-07-11 21:15:00,
2013-07-11 17:16:00,81.4,45.2,29.88,North,5,6.9,8.3,28,0.00,,---,0.00,VWS V14.01,2013-07-11 21:16:00,
2013-07-11 17:17:00,80.8,42.8,29.88,NW,326,5.8,8.7,26,0.00,,---,0.00,VWS V14.01,2013-07-11 21:17:00,
2013-07-11 17:18:00,80.8,42.8,29.88,West,270,4.0,5.8,26,0.00,,---,0.00,VWS V14.01,2013-07-11 21:18:00,
2013-07-11 17:19:00,80.8,44.7,29.88,WNW,301,2.7,4.5,28,0.00,,---,0.00,VWS V14.01,2013-07-11 21:19:00,
2013-07-11 17:20:00,76.7,42.1,29.88,North,356,3.6,4.0,29,0.00,,---,0.00,VWS V14.01,2013-07-11 21:20:00,
2013-07-11 17:21:00,80.8,44.7,29.88,NNW,332,6.3,6.3,28,0.00,,---,0.00,VWS V14.01,2013-07-11 21:21:00,
2013-07-11 17:22:00,81.0,44.9,29.88,WNW,282,0.0,6.3,28,0.00,,---,0.00,VWS V14.01,2013-07-11 21:22:00,
2013-07-11 17:23:00,80.8,42.8,29.88,NE,53,4.0,4.5,26,0.00,,---,0.00,VWS V14.01,2013-07-11 21:23:00,
2013-07-11 17:24:00,80.7,42.6,29.88,ENE,71,4.5,4.5,26,0.00,,---,0.00,VWS V14.01,2013-07-11 21:24:00,
2013-07-11 17:25:00,80.8,44.7,29.88,SSW,198,3.6,4.5,28,0.00,,---,0.00,VWS V14.01,2013-07-11 21:25:00,
2013-07-11 17:26:00,76.7,43.0,29.88,NE,53,3.6,4.9,30,0.00,,---,0.00,VWS V14.01,2013-07-11 21:26:00,
2013-07-11 17:27:00,80.7,44.6,29.88,West,269,2.7,2.7,28,0.00,,---,0.00,VWS V14.01,2013-07-11 21:27:00,
2013-07-11 17:28:00,80.7,44.6,29.88,North,351,0.0,5.8,28,0.00,,---,0.00,VWS V14.01,2013-07-11 21:28:00,
2013-07-11 17:29:00,80.7,44.6,29.88,NE,35,3.1,7.8,28,0.00,,---,0.00,VWS V14.01,2013-07-11 21:29:00,
2013-07-11 17:30:00,80.8,44.7,29.88,NW,308,0.0,3.6,28,0.00,,---,0.00,VWS V14.01,2013-07-11 21:30:00,
2013-07-11 17:31:00,76.9,40.4,29.88,NE,43,4.0,4.9,27,0.00,,---,0.00,VWS V14.01,2013-07-11 21:31:00,
2013-07-11 17:32:00,80.7,44.6,29.88,WNW,282,7.4,9.2,28,0.00,,---,0.00,VWS V14.01,2013-07-11 21:32:00,
2013-07-11 17:33:00,80.3,44.3,29.88,NW,325,4.9,9.6,28,0.00,,---,0.00,VWS V14.01,2013-07-11 21:33:00,
2013-07-11 17:34:00,79.9,44.9,29.88,North,0,8.3,9.2,29,0.00,,---,0.00,VWS V14.01,2013-07-11 21:34:00,
2013-07-11 17:35:00,79.8,44.7,29.88,NW,313,5.4,8.3,29,0.00,,---,0.00,VWS V14.01,2013-07-11 21:35:00,
2013-07-11 17:36:00,77.2,42.5,29.88,NE,38,0.0,3.1,29,0.00,,---,0.00,VWS V14.01,2013-07-11 21:36:00,
2013-07-11 17:37:00,79.2,44.2,29.88,North,10,5.8,6.9,29,0.00,,---,0.00,VWS V14.01,2013-07-11 21:37:00,
2013-07-11 17:38:00,79.2,44.2,29.88,WNW,296,4.9,5.8,29,0.00,,---,0.00,VWS V14.01,2013-07-11 21:38:00,
2013-07-11 17:39:00,79.2,44.2,29.88,SW,215,0.0,4.9,29,0.00,,---,0.00,VWS V14.01,2013-07-11 21:39:00,
2013-07-11 17:40:00,79.4,44.4,29.88,North,351,6.3,6.3,29,0.00,,---,0.00,VWS V14.01,2013-07-11 21:40:00,
2013-07-11 17:41:00,77.2,42.5,29.88,NNE,23,3.6,4.5,29,0.00,,---,0.00,VWS V14.01,2013-07-11 21:41:00,
2013-07-11 17:42:00,79.4,44.4,29.88,NW,313,5.4,7.4,29,0.00,,---,0.00,VWS V14.01,2013-07-11 21:42:00,
2013-07-11 17:43:00,79.2,44.2,29.88,NNW,327,6.3,8.3,29,0.00,,---,0.00,VWS V14.01,2013-07-11 21:43:00,
2013-07-11 17:44:00,79.0,41.3,29.88,North,356,0.0,6.3,26,0.00,,---,0.00,VWS V14.01,2013-07-11 21:44:00,
2013-07-11 17:45:00,78.7,41.0,29.88,North,1,0.0,2.7,26,0.00,,---,0.00,VWS V14.01,2013-07-11 21:45:00,
2013-07-11 17:46:00,76.7,42.1,29.88,ENE,57,0.0,4.9,29,0.00,,---,0.00,VWS V14.01,2013-07-11 21:46:00,
2013-07-11 17:47:00,78.3,41.6,29.88,ENE,63,0.0,3.6,27,0.00,,---,0.00,VWS V14.01,2013-07-11 21:47:00,
2013-07-11 17:48:00,78.3,41.6,29.88,NNE,23,0.0,4.5,27,0.00,,---,0.00,VWS V14.01,2013-07-11 21:48:00,
2013-07-11 17:49:00,78.1,41.5,29.88,NW,305,3.1,3.6,27,0.00,,---,0.00,VWS V14.01,2013-07-11 21:49:00,
2013-07-11 17:50:00,78.1,41.5,29.88,WNW,293,0.0,4.5,27,0.00,,---,0.00,VWS V14.01,2013-07-11 21:50:00,
2013-07-11 17:51:00,78.3,43.5,29.88,NE,41,2.7,4.5,29,0.00,,---,0.00,VWS V14.01,2013-07-11 21:51:00,
2013-07-11 17:52:00,75.8,42.2,29.88,North,10,0.0,4.5,30,0.00,,---,0.00,VWS V14.01,2013-07-11 21:52:00,
2013-07-11 17:53:00,78.1,43.3,29.88,NNW,343,2.7,6.7,29,0.00,,---,0.00,VWS V14.01,2013-07-11 21:53:00,
2013-07-11 17:54:00,78.0,43.2,29.88,SSW,197,2.7,3.1,29,0.00,,---,0.00,VWS V14.01,2013-07-11 21:54:00,
2013-07-11 17:55:00,77.8,43.0,29.88,NNE,16,3.6,5.8,29,0.00,,---,0.00,VWS V14.01,2013-07-11 21:55:00,
2013-07-11 17:56:00,77.8,43.0,29.88,North,4,0.0,4.0,29,0.00,,---,0.00,VWS V14.01,2013-07-11 21:56:00,
2013-07-11 17:57:00,75.3,41.7,29.88,North,356,0.0,0.0,30,0.00,,---,0.00,VWS V14.01,2013-07-11 21:57:00,
2013-07-11 17:58:00,77.6,42.9,29.88,NNW,330,2.7,4.5,29,0.00,,---,0.00,VWS V14.01,2013-07-11 21:58:00,
2013-07-11 17:59:00,77.4,42.7,29.88,WNW,286,2.7,3.1,29,0.00,,---,0.00,VWS V14.01,2013-07-11 21:59:00,
2013-07-11 18:00:00,77.2,42.5,29.88,NW,318,3.1,4.9,29,0.00,,---,0.00,VWS V14.01,2013-07-11 22:00:00,
2013-07-11 18:01:00,76.9,42.2,29.88,North,356,0.0,4.0,29,0.00,,---,0.00,VWS V14.01,2013-07-11 22:01:00,
2013-07-11 18:02:00,75.1,41.6,29.88,NE,52,3.6,5.8,30,0.00,,---,0.00,VWS V14.01,2013-07-11 22:02:00,
2013-07-11 18:03:00,76.7,43.0,29.88,SSE,150,0.0,5.8,30,0.00,,---,0.00,VWS V14.01,2013-07-11 22:03:00,
2013-07-11 18:04:00,76.5,42.8,29.88,NW,317,0.0,6.3,30,0.00,,---,0.00,VWS V14.01,2013-07-11 22:04:00,
2013-07-11 18:05:00,76.5,42.8,29.88,NE,45,5.4,5.4,30,0.00,,---,0.00,VWS V14.01,2013-07-11 22:05:00,
2013-07-11 18:06:00,76.3,42.7,29.88,WNW,301,0.0,5.4,30,0.00,,---,0.00,VWS V14.01,2013-07-11 22:06:00,
2013-07-11 18:07:00,75.8,42.2,29.88,NE,43,2.7,4.5,30,0.00,,---,0.00,VWS V14.01,2013-07-11 22:07:00,
2013-07-11 18:08:00,76.5,42.8,29.88,East,79,0.0,4.9,30,0.00,,---,0.00,VWS V14.01,2013-07-11 22:08:00,
2013-07-11 18:09:00,76.5,42.8,29.88,SSW,193,0.0,2.7,30,0.00,,---,0.00,VWS V14.01,2013-07-11 22:09:00,
2013-07-11 18:10:00,76.0,42.3,29.88,NE,52,4.5,4.5,30,0.00,,---,0.00,VWS V14.01,2013-07-11 22:10:00,
2013-07-11 18:11:00,76.5,42.8,29.88,North,4,3.6,5.4,30,0.00,,---,0.00,VWS V14.01,2013-07-11 22:11:00,
2013-07-11 18:12:00,76.0,42.3,29.88,NNE,31,2.7,6.9,30,0.00,,---,0.00,VWS V14.01,2013-07-11 22:12:00,
2013-07-11 18:13:00,76.5,42.8,29.88,ENE,57,2.7,5.8,30,0.00,,---,0.00,VWS V14.01,2013-07-11 22:13:00,
2013-07-11 18:14:00,76.5,42.8,29.88,NE,34,3.6,7.4,30,0.00,,---,0.00,VWS V14.01,2013-07-11 22:14:00,
2013-07-11 18:15:00,76.5,42.8,29.88,NNE,32,3.1,4.0,30,0.00,,---,0.00,VWS V14.01,2013-07-11 22:15:00,
2013-07-11 18:16:00,76.5,42.8,29.88,NNE,18,2.7,4.0,30,0.00,,---,0.00,VWS V14.01,2013-07-11 22:16:00,
2013-07-11 18:17:00,75.8,42.2,29.88,ENE,74,6.3,6.9,30,0.00,,---,0.00,VWS V14.01,2013-07-11 22:17:00,
2013-07-11 18:18:00,76.7,42.1,29.88,NE,35,3.6,4.0,29,0.00,,---,0.00,VWS V14.01,2013-07-11 22:18:00,
2013-07-11 18:19:00,76.7,42.1,29.88,ENE,72,3.6,4.5,29,0.00,,---,0.00,VWS V14.01,2013-07-11 22:19:00,
2013-07-11 18:20:00,76.7,42.1,29.88,WNW,285,0.0,4.5,29,0.00,,---,0.00,VWS V14.01,2013-07-11 22:20:00,
2013-07-11 18:21:00,76.7,42.1,29.88,West,266,4.5,5.8,29,0.00,,---,0.00,VWS V14.01,2013-07-11 22:21:00,
2013-07-11 18:22:00,75.4,41.9,29.88,NE,42,3.6,3.6,30,0.00,,---,0.00,VWS V14.01,2013-07-11 22:22:00,
2013-07-11 18:23:00,76.7,43.0,29.88,North,10,3.6,5.4,30,0.00,,---,0.00,VWS V14.01,2013-07-11 22:23:00,
2013-07-11 18:24:00,76.7,43.0,29.88,ENE,58,3.1,4.9,30,0.00,,---,0.00,VWS V14.01,2013-07-11 22:24:00,
2013-07-11 18:25:00,76.7,43.0,29.88,NE,48,2.7,3.6,30,0.00,,---,0.00,VWS V14.01,2013-07-11 22:25:00,
2013-07-11 18:26:00,76.7,43.0,29.88,NE,53,3.6,4.9,30,0.00,,---,0.00,VWS V14.01,2013-07-11 22:26:00,
2013-07-11 18:27:00,75.1,41.6,29.88,NNW,346,3.1,4.9,30,0.00,,---,0.00,VWS V14.01,2013-07-11 22:27:00,
2013-07-11 18:28:00,76.9,42.2,29.88,SE,128,0.0,0.0,29,0.00,,---,0.00,VWS V14.01,2013-07-11 22:28:00,
2013-07-11 18:29:00,76.9,42.2,29.88,ENE,61,4.0,4.9,29,0.00,,---,0.00,VWS V14.01,2013-07-11 22:29:00,
2013-07-11 18:30:00,76.9,40.4,29.88,NE,44,4.5,6.3,27,0.00,,---,0.00,VWS V14.01,2013-07-11 22:30:00,
2013-07-11 18:31:00,76.9,40.4,29.88,NE,43,4.0,4.9,27,0.00,,---,0.00,VWS V14.01,2013-07-11 22:31:00,
2013-07-11 18:32:00,75.1,41.6,29.88,NNW,346,0.0,3.6,30,0.00,,---,0.00,VWS V14.01,2013-07-11 22:32:00,
2013-07-11 18:33:00,77.1,42.4,29.88,ENE,69,4.0,4.5,29,0.00,,---,0.00,VWS V14.01,2013-07-11 22:33:00,
2013-07-11 18:34:00,77.1,42.4,29.88,NE,49,0.0,4.5,29,0.00,,---,0.00,VWS V14.01,2013-07-11 22:34:00,
2013-07-11 18:35:00,77.2,42.5,29.88,NNE,28,3.1,3.1,29,0.00,,---,0.00,VWS V14.01,2013-07-11 22:35:00,
2013-07-11 18:36:00,77.2,42.5,29.88,NE,38,0.0,3.1,29,0.00,,---,0.00,VWS V14.01,2013-07-11 22:36:00,
2013-07-11 18:37:00,74.9,43.1,29.88,NNW,342,0.0,3.1,32,0.00,,---,0.00,VWS V14.01,2013-07-11 22:37:00,
2013-07-11 18:38:00,77.4,42.7,29.88,ENE,65,0.0,2.7,29,0.00,,---,0.00,VWS V14.01,2013-07-11 22:38:00,
2013-07-11 18:39:00,77.4,42.7,29.88,NNE,29,0.0,0.0,29,0.00,,---,0.00,VWS V14.01,2013-07-11 22:39:00,
2013-07-11 18:40:00,77.4,42.7,29.88,ENE,59,3.6,4.0,29,0.00,,---,0.00,VWS V14.01,2013-07-11 22:40:00,
2013-07-11 18:41:00,77.2,42.5,29.88,NNE,23,4.5,4.9,29,0.00,,---,0.00,VWS V14.01,2013-07-11 22:41:00,
2013-07-11 18:42:00,74.7,43.7,29.88,ENE,67,4.5,4.5,33,0.00,,---,0.00,VWS V14.01,2013-07-11 22:42:00,
2013-07-11 18:43:00,76.9,42.2,29.88,NNE,33,2.7,3.6,29,0.00,,---,0.00,VWS V14.01,2013-07-11 22:43:00,
2013-07-11 18:44:00,76.9,42.2,29.88,ENE,60,4.0,4.0,29,0.00,,---,0.00,VWS V14.01,2013-07-11 22:44:00,
2013-07-11 18:45:00,76.9,42.2,29.88,ENE,65,4.9,4.9,29,0.00,,---,0.00,VWS V14.01,2013-07-11 22:45:00,
2013-07-11 18:46:00,76.9,42.2,29.88,NNE,32,3.6,5.4,29,0.00,,---,0.00,VWS V14.01,2013-07-11 22:46:00,
2013-07-11 18:47:00,76.7,43.0,29.88,ENE,57,0.0,4.9,30,0.00,,---,0.00,VWS V14.01,2013-07-11 22:47:00,
2013-07-11 18:48:00,74.5,45.1,29.88,NNE,29,0.0,3.6,35,0.00,,---,0.00,VWS V14.01,2013-07-11 22:48:00,
2013-07-11 18:49:00,76.3,42.7,29.88,South,174,0.0,0.0,30,0.00,,---,0.00,VWS V14.01,2013-07-11 22:49:00,
2013-07-11 18:50:00,76.2,42.5,29.88,ENE,77,2.7,4.9,30,0.00,,---,0.00,VWS V14.01,2013-07-11 22:50:00,
2013-07-11 18:51:00,76.0,42.3,29.88,NE,53,3.6,4.0,30,0.00,,---,0.00,VWS V14.01,2013-07-11 22:51:00,
2013-07-11 18:52:00,75.8,42.2,29.88,North,10,0.0,4.5,30,0.00,,---,0.00,VWS V14.01,2013-07-11 22:52:00,
2013-07-11 18:53:00,74.2,44.8,29.91,NW,309,0.0,0.0,35,0.00,,---,0.00,VWS V14.01,2013-07-11 22:53:00,
2013-07-11 18:54:00,75.6,42.0,29.88,NE,56,2.7,4.0,30,0.00,,---,0.00,VWS V14.01,2013-07-11 22:54:00,
2013-07-11 18:55:00,74.0,43.1,29.91,NE,56,3.1,4.9,33,0.00,,---,0.00,VWS V14.01,2013-07-11 22:55:00,
2013-07-11 18:56:00,75.4,41.9,29.88,North,356,0.0,0.0,30,0.00,,---,0.00,VWS V14.01,2013-07-11 22:56:00,
2013-07-11 18:57:00,75.3,41.7,29.88,North,356,0.0,0.0,30,0.00,,---,0.00,VWS V14.01,2013-07-11 22:57:00,
2013-07-11 18:58:00,73.8,42.9,29.91,NE,35,3.1,4.0,33,0.00,,---,0.00,VWS V14.01,2013-07-11 22:58:00,
2013-07-11 18:59:00,75.1,41.6,29.88,NE,46,0.0,0.0,30,0.00,,---,0.00,VWS V14.01,2013-07-11 22:59:00,
2013-07-11 19:00:00,75.1,41.6,29.88,NE,41,0.0,0.0,30,0.00,,---,0.00,VWS V14.01,2013-07-11 23:00:00,
2013-07-11 19:01:00,75.1,41.6,29.88,NE,53,5.8,5.8,30,0.00,,---,0.00,VWS V14.01,2013-07-11 23:01:00,
2013-07-11 19:02:00,75.1,41.6,29.88,NE,52,3.6,5.8,30,0.00,,---,0.00,VWS V14.01,2013-07-11 23:02:00,
2013-07-11 19:03:00,73.6,44.3,29.91,West,273,0.0,0.0,35,0.00,,---,0.00,VWS V14.01,2013-07-11 23:03:00,
2013-07-11 19:04:00,75.4,41.9,29.88,ENE,62,3.1,3.6,30,0.00,,---,0.00,VWS V14.01,2013-07-11 23:04:00,
2013-07-11 19:05:00,75.6,42.0,29.88,ENE,62,0.0,3.1,30,0.00,,---,0.00,VWS V14.01,2013-07-11 23:05:00,
2013-07-11 19:06:00,75.8,42.2,29.88,ENE,60,3.1,4.5,30,0.00,,---,0.00,VWS V14.01,2013-07-11 23:06:00,
2013-07-11 19:07:00,75.8,42.2,29.88,NE,43,2.7,4.5,30,0.00,,---,0.00,VWS V14.01,2013-07-11 23:07:00,
2013-07-11 19:08:00,76.0,42.3,29.88,North,351,4.0,4.0,30,0.00,,---,0.00,VWS V14.01,2013-07-11 23:08:00,
2013-07-11 19:09:00,73.6,44.3,29.91,NNE,26,0.0,3.1,35,0.00,,---,0.00,VWS V14.01,2013-07-11 23:09:00,
2013-07-11 19:10:00,76.0,42.3,29.88,NE,52,4.5,4.5,30,0.00,,---,0.00,VWS V14.01,2013-07-11 23:10:00,
2013-07-11 19:11:00,76.0,42.3,29.88,NE,56,4.0,5.4,30,0.00,,---,0.00,VWS V14.01,2013-07-11 23:11:00,
2013-07-11 19:12:00,76.0,42.3,29.88,NNE,31,2.7,6.9,30,0.00,,---,0.00,VWS V14.01,2013-07-11 23:12:00,
2013-07-11 19:13:00,76.0,42.3,29.88,NE,36,3.1,3.1,30,0.00,,---,0.00,VWS V14.01,2013-07-11 23:13:00,
2013-07-11 19:14:00,73.5,44.2,29.91,NNE,25,0.0,4.9,35,0.00,,---,0.00,VWS V14.01,2013-07-11 23:14:00,
2013-07-11 19:15:00,75.8,42.2,29.88,NNE,31,6.7,6.7,30,0.00,,---,0.00,VWS V14.01,2013-07-11 23:15:00,
2013-07-11 19:16:00,73.5,44.2,29.91,NE,45,3.1,4.5,35,0.00,,---,0.00,VWS V14.01,2013-07-11 23:16:00,
2013-07-11 19:17:00,75.8,42.2,29.88,ENE,60,4.5,8.3,30,0.00,,---,0.00,VWS V14.01,2013-07-11 23:17:00,
2013-07-11 19:18:00,75.8,42.2,29.88,NE,37,4.0,6.9,30,0.00,,---,0.00,VWS V14.01,2013-07-11 23:18:00,
2013-07-11 19:19:00,73.5,44.2,29.91,NE,34,3.6,5.8,35,0.00,,---,0.00,VWS V14.01,2013-07-11 23:19:00,
2013-07-11 19:20:00,75.6,42.0,29.88,NNE,27,3.1,5.4,30,0.00,,---,0.00,VWS V14.01,2013-07-11 23:20:00,
2013-07-11 19:21:00,75.6,42.0,29.88,NNE,16,4.0,5.4,30,0.00,,---,0.00,VWS V14.01,2013-07-11 23:21:00,
2013-07-11 19:22:00,75.4,41.9,29.88,NE,34,2.7,5.4,30,0.00,,---,0.00,VWS V14.01,2013-07-11 23:22:00,
2013-07-11 19:23:00,75.4,41.9,29.88,NNE,17,3.6,4.5,30,0.00,,---,0.00,VWS V14.01,2013-07-11 23:23:00,
2013-07-11 19:24:00,73.5,44.2,29.91,NE,39,0.0,4.9,35,0.00,,---,0.00,VWS V14.01,2013-07-11 23:24:00,
2013-07-11 19:25:00,75.4,41.9,29.88,NNE,20,3.1,4.0,30,0.00,,---,0.00,VWS V14.01,2013-07-11 23:25:00,
2013-07-11 19:26:00,73.5,44.2,29.91,NE,48,0.0,3.6,35,0.00,,---,0.00,VWS V14.01,2013-07-11 23:26:00,
2013-07-11 19:27:00,75.3,41.7,29.88,NE,41,4.9,5.8,30,0.00,,---,0.00,VWS V14.01,2013-07-11 23:27:00,
2013-07-11 19:28:00,75.1,41.6,29.88,NNE,17,0.0,4.9,30,0.00,,---,0.00,VWS V14.01,2013-07-11 23:28:00,
2013-07-11 19:29:00,73.6,44.3,29.91,NE,56,3.6,6.9,35,0.00,,---,0.00,VWS V14.01,2013-07-11 23:29:00,
2013-07-11 19:30:00,74.9,41.4,29.88,NE,40,4.0,4.9,30,0.00,,---,0.00,VWS V14.01,2013-07-11 23:30:00,
2013-07-11 19:31:00,74.9,41.4,29.88,NNE,12,3.1,4.0,30,0.00,,---,0.00,VWS V14.01,2013-07-11 23:31:00,
2013-07-11 19:32:00,75.1,41.6,29.88,NNW,346,3.1,4.0,30,0.00,,---,0.00,VWS V14.01,2013-07-11 23:32:00,
2013-07-11 19:33:00,75.1,41.6,29.88,NNW,346,0.0,3.6,30,0.00,,---,0.00,VWS V14.01,2013-07-11 23:33:00,
2013-07-11 19:34:00,73.6,44.3,29.91,ENE,63,0.0,0.0,35,0.00,,---,0.00,VWS V14.01,2013-07-11 23:34:00,
2013-07-11 19:35:00,75.1,43.2,29.88,ENE,59,2.7,4.5,32,0.00,,---,0.00,VWS V14.01,2013-07-11 23:35:00,
2013-07-11 19:36:00,74.9,43.1,29.88,NNE,13,2.7,4.0,32,0.00,,---,0.00,VWS V14.01,2013-07-11 23:36:00,
2013-07-11 19:37:00,74.9,43.1,29.88,NNW,333,3.1,4.5,32,0.00,,---,0.00,VWS V14.01,2013-07-11 23:37:00,
2013-07-11 19:38:00,74.9,43.1,29.88,NNW,342,0.0,3.1,32,0.00,,---,0.00,VWS V14.01,2013-07-11 23:38:00,
2013-07-11 19:39:00,73.6,44.3,29.91,ENE,59,2.7,5.4,35,0.00,,---,0.00,VWS V14.01,2013-07-11 23:39:00,
2013-07-11 19:40:00,74.9,41.4,29.88,ENE,62,3.6,4.0,30,0.00,,---,0.00,VWS V14.01,2013-07-11 23:40:00,
2013-07-11 19:41:00,74.9,43.9,29.88,NE,56,2.7,3.6,33,0.00,,---,0.00,VWS V14.01,2013-07-11 23:41:00,
2013-07-11 19:42:00,74.7,43.7,29.88,NE,56,0.0,3.1,33,0.00,,---,0.00,VWS V14.01,2013-07-11 23:42:00,
2013-07-11 19:43:00,74.7,43.7,29.88,NE,41,3.1,4.5,33,0.00,,---,0.00,VWS V14.01,2013-07-11 23:43:00,
2013-07-11 19:44:00,73.6,44.3,29.91,NE,50,0.0,3.1,35,0.00,,---,0.00,VWS V14.01,2013-07-11 23:44:00,
2013-07-11 19:45:00,74.5,43.6,29.88,NE,44,4.5,4.5,33,0.00,,---,0.00,VWS V14.01,2013-07-11 23:45:00,
2013-07-11 19:46:00,74.5,43.6,29.88,NE,46,0.0,4.5,33,0.00,,---,0.00,VWS V14.01,2013-07-11 23:46:00,
2013-07-11 19:47:00,74.5,43.6,29.88,NE,46,0.0,0.0,33,0.00,,---,0.00,VWS V14.01,2013-07-11 23:47:00,
2013-07-11 19:48:00,74.5,45.1,29.88,NNE,29,0.0,3.6,35,0.00,,---,0.00,VWS V14.01,2013-07-11 23:48:00,
2013-07-11 19:49:00,73.5,44.2,29.91,NE,39,2.7,4.9,35,0.00,,---,0.00,VWS V14.01,2013-07-11 23:49:00,
2013-07-11 19:50:00,74.4,45.0,29.91,East,85,3.6,4.9,35,0.00,,---,0.00,VWS V14.01,2013-07-11 23:50:00,
2013-07-11 19:51:00,74.4,43.4,29.91,NNW,342,5.4,5.8,33,0.00,,---,0.00,VWS V14.01,2013-07-11 23:51:00,
2013-07-11 19:52:00,74.2,44.8,29.91,NE,52,4.5,6.3,35,0.00,,---,0.00,VWS V14.01,2013-07-11 23:52:00,
2013-07-11 19:53:00,74.2,44.8,29.91,NE,52,0.0,5.8,35,0.00,,---,0.00,VWS V14.01,2013-07-11 23:53:00,
2013-07-11 19:54:00,73.3,44.0,29.91,ENE,73,3.6,3.6,35,0.00,,---,0.00,VWS V14.01,2013-07-11 23:54:00,
2013-07-11 19:55:00,74.0,43.1,29.91,NE,56,3.1,4.9,33,0.00,,---,0.00,VWS V14.01,2013-07-11 23:55:00,
2013-07-11 19:56:00,74.0,43.1,29.91,NE,55,3.6,4.0,33,0.00,,---,0.00,VWS V14.01,2013-07-11 23:56:00,
2013-07-11 19:57:00,73.8,42.9,29.91,NNW,344,3.6,4.9,33,0.00,,---,0.00,VWS V14.01,2013-07-11 23:57:00,
2013-07-11 19:58:00,73.8,42.9,29.91,NNE,27,3.1,6.3,33,0.00,,---,0.00,VWS V14.01,2013-07-11 23:58:00,
2013-07-11 19:59:00,72.7,43.5,29.91,NE,53,2.7,3.6,35,0.00,,---,0.00,VWS V14.01,2013-07-11 23:59:00,
2013-07-11 20:00:00,73.8,44.5,29.91,North,356,0.0,4.5,35,0.00,,---,0.00,VWS V14.01,2013-07-12 00:00:00,
2013-07-11 20:01:00,73.8,44.5,29.91,North,3,3.1,3.1,35,0.00,,---,0.00,VWS V14.01,2013-07-12 00:01:00,
2013-07-11 20:02:00,73.8,44.5,29.91,ENE,60,3.1,4.9,35,0.00,,---,0.00,VWS V14.01,2013-07-12 00:02:00,
2013-07-11 20:03:00,73.8,44.5,29.91,West,273,0.0,4.0,35,0.00,,---,0.00,VWS V14.01,2013-07-12 00:03:00,
2013-07-11 20:04:00,72.4,44.0,29.91,ENE,67,0.0,4.0,36,0.00,,---,0.00,VWS V14.01,2013-07-12 00:04:00,
2013-07-11 20:05:00,73.6,44.3,29.91,NE,41,0.0,4.0,35,0.00,,---,0.00,VWS V14.01,2013-07-12 00:05:00,
2013-07-11 20:06:00,73.6,44.3,29.91,NE,35,0.0,2.7,35,0.00,,---,0.00,VWS V14.01,2013-07-12 00:06:00,
2013-07-11 20:07:00,73.6,44.3,29.91,ENE,57,3.1,4.0,35,0.00,,---,0.00,VWS V14.01,2013-07-12 00:07:00,
2013-07-11 20:08:00,73.6,44.3,29.91,NNE,28,3.1,4.0,35,0.00,,---,0.00,VWS V14.01,2013-07-12 00:08:00,
2013-07-11 20:09:00,72.0,43.6,29.91,ENE,58,4.0,5.8,36,0.00,,---,0.00,VWS V14.01,2013-07-12 00:09:00,
2013-07-11 20:10:00,73.6,45.1,29.91,NNW,335,0.0,4.5,36,0.00,,---,0.00,VWS V14.01,2013-07-12 00:10:00,
2013-07-11 20:11:00,73.6,44.3,29.91,NNE,33,0.0,0.0,35,0.00,,---,0.00,VWS V14.01,2013-07-12 00:11:00,
2013-07-11 20:12:00,73.6,44.3,29.91,NW,310,3.1,3.6,35,0.00,,---,0.00,VWS V14.01,2013-07-12 00:12:00,
2013-07-11 20:13:00,73.6,44.3,29.91,NNW,344,4.9,4.9,35,0.00,,---,0.00,VWS V14.01,2013-07-12 00:13:00,
2013-07-11 20:14:00,71.7,43.3,29.91,NNE,13,0.0,0.0,36,0.00,,---,0.00,VWS V14.01,2013-07-12 00:14:00,
2013-07-11 20:15:00,73.6,44.3,29.91,NNW,342,4.0,4.5,35,0.00,,---,0.00,VWS V14.01,2013-07-12 00:15:00,
2013-07-11 20:16:00,73.5,44.2,29.91,NE,45,3.1,4.5,35,0.00,,---,0.00,VWS V14.01,2013-07-12 00:16:00,
2013-07-11 20:17:00,71.5,43.9,29.91,NE,53,0.0,0.0,37,0.00,,---,0.00,VWS V14.01,2013-07-12 00:17:00,
2013-07-11 20:18:00,73.5,44.2,29.91,NE,52,0.0,3.1,35,0.00,,---,0.00,VWS V14.01,2013-07-12 00:18:00,
2013-07-11 20:19:00,71.3,44.4,29.91,NE,50,2.7,3.6,38,0.00,,---,0.00,VWS V14.01,2013-07-12 00:19:00,
2013-07-11 20:20:00,73.5,44.2,29.91,ENE,59,4.0,4.0,35,0.00,,---,0.00,VWS V14.01,2013-07-12 00:20:00,
2013-07-11 20:21:00,73.5,44.2,29.91,NNW,333,3.6,4.0,35,0.00,,---,0.00,VWS V14.01,2013-07-12 00:21:00,
2013-07-11 20:22:00,73.5,44.2,29.91,North,10,0.0,5.8,35,0.00,,---,0.00,VWS V14.01,2013-07-12 00:22:00,
2013-07-11 20:23:00,73.5,44.2,29.91,East,80,3.6,3.6,35,0.00,,---,0.00,VWS V14.01,2013-07-12 00:23:00,
2013-07-11 20:24:00,70.9,44.1,29.91,NE,56,0.0,0.0,38,0.00,,---,0.00,VWS V14.01,2013-07-12 00:24:00,
2013-07-11 20:25:00,73.5,44.2,29.91,ENE,57,2.7,4.9,35,0.00,,---,0.00,VWS V14.01,2013-07-12 00:25:00,
2013-07-11 20:26:00,73.5,44.2,29.91,NE,48,0.0,3.6,35,0.00,,---,0.00,VWS V14.01,2013-07-12 00:26:00,
2013-07-11 20:27:00,73.6,44.3,29.91,ENE,59,0.0,4.9,35,0.00,,---,0.00,VWS V14.01,2013-07-12 00:27:00,
2013-07-11 20:28:00,73.6,44.3,29.91,NE,52,4.9,4.9,35,0.00,,---,0.00,VWS V14.01,2013-07-12 00:28:00,
2013-07-11 20:29:00,73.6,44.3,29.91,NE,56,3.6,6.9,35,0.00,,---,0.00,VWS V14.01,2013-07-12 00:29:00,
2013-07-11 20:30:00,70.4,44.3,29.91,North,0,0.0,0.0,39,0.00,,---,0.00,VWS V14.01,2013-07-12 00:30:00,
2013-07-11 20:31:00,73.6,44.3,29.91,ENE,64,0.0,3.6,35,0.00,,---,0.00,VWS V14.01,2013-07-12 00:31:00,
2013-07-11 20:32:00,73.6,44.3,29.91,ENE,64,0.0,3.6,35,0.00,,---,0.00,VWS V14.01,2013-07-12 00:32:00,
2013-07-11 20:33:00,73.6,44.3,29.91,ENE,63,0.0,2.7,35,0.00,,---,0.00,VWS V14.01,2013-07-12 00:33:00,
2013-07-11 20:34:00,73.6,44.3,29.91,ENE,63,0.0,0.0,35,0.00,,---,0.00,VWS V14.01,2013-07-12 00:34:00,
2013-07-11 20:35:00,70.0,44.0,29.91,North,0,0.0,0.0,39,0.00,,---,0.00,VWS V14.01,2013-07-12 00:35:00,
2013-07-11 20:36:00,73.6,44.3,29.91,ENE,57,4.0,4.5,35,0.00,,---,0.00,VWS V14.01,2013-07-12 00:36:00,
2013-07-11 20:37:00,73.6,44.3,29.91,NNE,33,4.5,6.7,35,0.00,,---,0.00,VWS V14.01,2013-07-12 00:37:00,
2013-07-11 20:38:00,73.8,44.5,29.91,NE,55,4.0,4.9,35,0.00,,---,0.00,VWS V14.01,2013-07-12 00:38:00,
2013-07-11 20:39:00,73.6,44.3,29.91,ENE,59,2.7,5.4,35,0.00,,---,0.00,VWS V14.01,2013-07-12 00:39:00,
2013-07-11 20:40:00,69.5,44.2,29.91,ENE,67,0.0,3.1,40,0.00,,---,0.00,VWS V14.01,2013-07-12 00:40:00,
2013-07-11 20:41:00,73.6,44.3,29.91,ENE,58,4.0,4.9,35,0.00,,---,0.00,VWS V14.01,2013-07-12 00:41:00,
2013-07-11 20:42:00,73.6,44.3,29.91,NE,51,3.1,4.9,35,0.00,,---,0.00,VWS V14.01,2013-07-12 00:42:00,
2013-07-11 20:43:00,73.6,44.3,29.91,NE,46,3.1,3.6,35,0.00,,---,0.00,VWS V14.01,2013-07-12 00:43:00,
2013-07-11 20:44:00,73.6,44.3,29.91,NE,50,0.0,3.1,35,0.00,,---,0.00,VWS V14.01,2013-07-12 00:44:00,
2013-07-11 20:45:00,69.3,43.3,29.91,NE,55,0.0,0.0,39,0.00,,---,0.00,VWS V14.01,2013-07-12 00:45:00,
2013-07-11 20:46:00,73.5,44.2,29.91,ENE,61,3.1,4.5,35,0.00,,---,0.00,VWS V14.01,2013-07-12 00:46:00,
2013-07-11 20:47:00,73.5,44.2,29.91,ENE,62,2.7,3.6,35,0.00,,---,0.00,VWS V14.01,2013-07-12 00:47:00,
2013-07-11 20:48:00,73.5,44.2,29.91,ENE,58,3.1,4.0,35,0.00,,---,0.00,VWS V14.01,2013-07-12 00:48:00,
2013-07-11 20:49:00,73.5,44.2,29.91,NE,39,2.7,4.9,35,0.00,,---,0.00,VWS V14.01,2013-07-12 00:49:00,
2013-07-11 20:50:00,69.1,43.8,29.91,NE,55,0.0,0.0,40,0.00,,---,0.00,VWS V14.01,2013-07-12 00:50:00,
2013-07-11 20:51:00,73.3,44.0,29.91,NE,45,3.1,5.8,35,0.00,,---,0.00,VWS V14.01,2013-07-12 00:51:00,
2013-07-11 20:52:00,73.3,44.0,29.91,ENE,60,3.1,4.9,35,0.00,,---,0.00,VWS V14.01,2013-07-12 00:52:00,
2013-07-11 20:53:00,73.3,44.0,29.91,ENE,64,3.6,4.0,35,0.00,,---,0.00,VWS V14.01,2013-07-12 00:53:00,
2013-07-11 20:54:00,73.3,44.0,29.91,ENE,73,3.6,3.6,35,0.00,,---,0.00,VWS V14.01,2013-07-12 00:54:00,
2013-07-11 20:55:00,69.0,43.7,29.91,NE,55,0.0,0.0,40,0.00,,---,0.00,VWS V14.01,2013-07-12 00:55:00,
2013-07-11 20:56:00,72.9,44.4,29.91,ENE,58,2.7,6.7,36,0.00,,---,0.00,VWS V14.01,2013-07-12 00:56:00,
2013-07-11 20:57:00,72.9,44.4,29.91,NE,55,5.4,5.4,36,0.00,,---,0.00,VWS V14.01,2013-07-12 00:57:00,
2013-07-11 20:58:00,72.9,43.7,29.91,ENE,67,3.6,5.8,35,0.00,,---,0.00,VWS V14.01,2013-07-12 00:58:00,
2013-07-11 20:59:00,72.7,43.5,29.91,NE,53,2.7,3.6,35,0.00,,---,0.00,VWS V14.01,2013-07-12 00:59:00,
2013-07-11 21:00:00,68.6,43.3,29.91,NW,316,0.0,3.6,40,0.00,,---,0.00,VWS V14.01,2013-07-12 01:00:00,
2013-07-11 21:01:00,72.6,44.1,29.91,ENE,59,0.0,5.8,36,0.00,,---,0.00,VWS V14.01,2013-07-12 01:01:00,
2013-07-11 21:02:00,72.6,44.1,29.91,ENE,74,2.7,5.4,36,0.00,,---,0.00,VWS V14.01,2013-07-12 01:02:00,
2013-07-11 21:03:00,72.6,44.1,29.91,ENE,65,3.6,4.0,36,0.00,,---,0.00,VWS V14.01,2013-07-12 01:03:00,
2013-07-11 21:04:00,72.4,44.0,29.91,ENE,67,0.0,4.0,36,0.00,,---,0.00,VWS V14.01,2013-07-12 01:04:00,
2013-07-11 21:05:00,68.4,43.8,29.91,SW,223,0.0,0.0,41,0.00,,---,0.00,VWS V14.01,2013-07-12 01:05:00,
2013-07-11 21:06:00,72.0,43.6,29.91,East,79,6.3,6.3,36,0.00,,---,0.00,VWS V14.01,2013-07-12 01:06:00,
2013-07-11 21:07:00,72.0,43.6,29.91,ENE,71,4.0,6.3,36,0.00,,---,0.00,VWS V14.01,2013-07-12 01:07:00,
2013-07-11 21:08:00,72.0,43.6,29.91,ENE,60,3.6,4.0,36,0.00,,---,0.00,VWS V14.01,2013-07-12 01:08:00,
2013-07-11 21:09:00,72.0,43.6,29.91,ENE,58,4.0,5.8,36,0.00,,---,0.00,VWS V14.01,2013-07-12 01:09:00,
2013-07-11 21:10:00,68.2,43.0,29.91,SSW,204,0.0,0.0,40,0.00,,---,0.00,VWS V14.01,2013-07-12 01:10:00,
2013-07-11 21:11:00,71.8,43.5,29.91,NE,52,0.0,4.9,36,0.00,,---,0.00,VWS V14.01,2013-07-12 01:11:00,
2013-07-11 21:12:00,71.8,43.5,29.91,NE,51,0.0,0.0,36,0.00,,---,0.00,VWS V14.01,2013-07-12 01:12:00,
2013-07-11 21:13:00,71.8,43.5,29.91,NNE,13,0.0,0.0,36,0.00,,---,0.00,VWS V14.01,2013-07-12 01:13:00,
2013-07-11 21:14:00,71.7,43.3,29.91,NNE,13,0.0,0.0,36,0.00,,---,0.00,VWS V14.01,2013-07-12 01:14:00,
2013-07-11 21:15:00,68.1,42.9,29.91,SSW,204,0.0,0.0,40,0.00,,---,0.00,VWS V14.01,2013-07-12 01:15:00,
2013-07-11 21:16:00,71.5,43.9,29.91,ENE,61,0.0,0.0,37,0.00,,---,0.00,VWS V14.01,2013-07-12 01:16:00,
2013-07-11 21:17:00,71.5,43.9,29.91,NE,53,0.0,0.0,37,0.00,,---,0.00,VWS V14.01,2013-07-12 01:17:00,
2013-07-11 21:18:00,71.3,43.7,29.91,NNE,13,0.0,0.0,37,0.00,,---,0.00,VWS V14.01,2013-07-12 01:18:00,
2013-07-11 21:19:00,71.3,44.4,29.91,NE,50,2.7,3.6,38,0.00,,---,0.00,VWS V14.01,2013-07-12 01:19:00,
2013-07-11 21:20:00,68.1,42.9,29.94,SSW,199,0.0,0.0,40,0.00,,---,0.00,VWS V14.01,2013-07-12 01:20:00,
2013-07-11 21:21:00,71.1,43.5,29.91,NE,52,0.0,0.0,37,0.00,,---,0.00,VWS V14.01,2013-07-12 01:21:00,
2013-07-11 21:22:00,71.1,44.2,29.91,NE,34,0.0,0.0,38,0.00,,---,0.00,VWS V14.01,2013-07-12 01:22:00,
2013-07-11 21:23:00,70.9,44.1,29.91,NE,53,0.0,0.0,38,0.00,,---,0.00,VWS V14.01,2013-07-12 01:23:00,
2013-07-11 21:24:00,70.9,44.1,29.91,NE,56,0.0,0.0,38,0.00,,---,0.00,VWS V14.01,2013-07-12 01:24:00,
2013-07-11 21:25:00,70.8,43.9,29.91,NNW,342,0.0,3.1,38,0.00,,---,0.00,VWS V14.01,2013-07-12 01:25:00,
2013-07-11 21:26:00,68.1,42.9,29.94,SSW,199,0.0,0.0,40,0.00,,---,0.00,VWS V14.01,2013-07-12 01:26:00,
2013-07-11 21:27:00,70.6,43.8,29.91,North,0,0.0,0.0,38,0.00,,---,0.00,VWS V14.01,2013-07-12 01:27:00,
2013-07-11 21:28:00,70.6,43.8,29.91,North,0,0.0,0.0,38,0.00,,---,0.00,VWS V14.01,2013-07-12 01:28:00,
2013-07-11 21:29:00,68.1,42.2,29.94,SSE,156,0.0,0.0,39,0.00,,---,0.00,VWS V14.01,2013-07-12 01:29:00,
2013-07-11 21:30:00,70.4,44.3,29.91,North,0,0.0,0.0,39,0.00,,---,0.00,VWS V14.01,2013-07-12 01:30:00,
2013-07-11 21:31:00,68.1,42.2,29.94,SSE,156,0.0,0.0,39,0.00,,---,0.00,VWS V14.01,2013-07-12 01:31:00,
2013-07-11 21:32:00,70.2,44.1,29.91,North,0,0.0,0.0,39,0.00,,---,0.00,VWS V14.01,2013-07-12 01:32:00,
2013-07-11 21:33:00,70.0,44.0,29.91,North,0,0.0,0.0,39,0.00,,---,0.00,VWS V14.01,2013-07-12 01:33:00,
2013-07-11 21:34:00,70.0,44.0,29.91,North,0,0.0,0.0,39,0.00,,---,0.00,VWS V14.01,2013-07-12 01:34:00,
2013-07-11 21:35:00,70.0,44.0,29.91,North,0,0.0,0.0,39,0.00,,---,0.00,VWS V14.01,2013-07-12 01:35:00,
2013-07-11 21:36:00,67.9,42.0,29.94,SSE,156,0.0,0.0,39,0.00,,---,0.00,VWS V14.01,2013-07-12 01:36:00,
2013-07-11 21:37:00,69.9,44.5,29.91,North,0,0.0,0.0,40,0.00,,---,0.00,VWS V14.01,2013-07-12 01:37:00,
2013-07-11 21:38:00,69.9,44.5,29.91,North,0,0.0,0.0,40,0.00,,---,0.00,VWS V14.01,2013-07-12 01:38:00,
2013-07-11 21:39:00,69.7,44.3,29.91,North,1,0.0,0.0,40,0.00,,---,0.00,VWS V14.01,2013-07-12 01:39:00,
2013-07-11 21:40:00,69.5,44.2,29.91,ENE,67,0.0,3.1,40,0.00,,---,0.00,VWS V14.01,2013-07-12 01:40:00,
2013-07-11 21:41:00,67.7,42.5,29.94,SSE,156,0.0,0.0,40,0.00,,---,0.00,VWS V14.01,2013-07-12 01:41:00,
2013-07-11 21:42:00,69.3,43.3,29.91,NE,49,2.7,4.0,39,0.00,,---,0.00,VWS V14.01,2013-07-12 01:42:00,
2013-07-11 21:43:00,69.3,43.3,29.91,NE,48,0.0,2.7,39,0.00,,---,0.00,VWS V14.01,2013-07-12 01:43:00,
2013-07-11 21:44:00,69.3,44.0,29.91,NE,53,0.0,0.0,40,0.00,,---,0.00,VWS V14.01,2013-07-12 01:44:00,
2013-07-11 21:45:00,69.3,43.3,29.91,NE,55,0.0,0.0,39,0.00,,---,0.00,VWS V14.01,2013-07-12 01:45:00,
2013-07-11 21:46:00,67.5,43.6,29.94,SSE,156,0.0,0.0,42,0.00,,---,0.00,VWS V14.01,2013-07-12 01:46:00,
2013-07-11 21:47:00,69.3,44.0,29.91,NE,55,0.0,0.0,40,0.00,,---,0.00,VWS V14.01,2013-07-12 01:47:00,
2013-07-11 21:48:00,69.3,44.0,29.91,NE,55,0.0,0.0,40,0.00,,---,0.00,VWS V14.01,2013-07-12 01:48:00,
2013-07-11 21:49:00,69.3,44.0,29.91,NE,55,0.0,0.0,40,0.00,,---,0.00,VWS V14.01,2013-07-12 01:49:00,
2013-07-11 21:50:00,69.1,43.8,29.91,NE,55,0.0,0.0,40,0.00,,---,0.00,VWS V14.01,2013-07-12 01:50:00,
2013-07-11 21:51:00,67.3,42.2,29.94,SSE,157,0.0,0.0,40,0.00,,---,0.00,VWS V14.01,2013-07-12 01:51:00,
2013-07-11 21:52:00,69.1,43.8,29.91,NE,55,0.0,0.0,40,0.00,,---,0.00,VWS V14.01,2013-07-12 01:52:00,
2013-07-11 21:53:00,69.0,43.7,29.91,NE,55,0.0,0.0,40,0.00,,---,0.00,VWS V14.01,2013-07-12 01:53:00,
2013-07-11 21:54:00,69.0,43.7,29.91,NE,55,0.0,0.0,40,0.00,,---,0.00,VWS V14.01,2013-07-12 01:54:00,
2013-07-11 21:55:00,69.0,43.7,29.91,NE,55,0.0,0.0,40,0.00,,---,0.00,VWS V14.01,2013-07-12 01:55:00,
2013-07-11 21:56:00,67.2,42.7,29.94,SSE,157,0.0,0.0,41,0.00,,---,0.00,VWS V14.01,2013-07-12 01:56:00,
2013-07-11 21:57:00,68.8,43.5,29.91,NE,55,0.0,0.0,40,0.00,,---,0.00,VWS V14.01,2013-07-12 01:57:00,
2013-07-11 21:58:00,68.8,43.5,29.91,NE,55,0.0,0.0,40,0.00,,---,0.00,VWS V14.01,2013-07-12 01:58:00,
2013-07-11 21:59:00,68.6,43.3,29.91,NW,325,0.0,0.0,40,0.00,,---,0.00,VWS V14.01,2013-07-12 01:59:00,
2013-07-11 22:00:00,68.6,43.3,29.91,NW,316,0.0,3.6,40,0.00,,---,0.00,VWS V14.01,2013-07-12 02:00:00,
2013-07-11 22:01:00,67.0,43.2,29.94,SSE,157,0.0,0.0,42,0.00,,---,0.00,VWS V14.01,2013-07-12 02:01:00,
2013-07-11 22:02:00,68.6,43.3,29.91,NW,316,0.0,0.0,40,0.00,,---,0.00,VWS V14.01,2013-07-12 02:02:00,
2013-07-11 22:03:00,68.4,42.5,29.91,NW,316,0.0,0.0,39,0.00,,---,0.00,VWS V14.01,2013-07-12 02:03:00,
2013-07-11 22:04:00,68.4,43.2,29.91,NW,316,0.0,0.0,40,0.00,,---,0.00,VWS V14.01,2013-07-12 02:04:00,
2013-07-11 22:05:00,68.4,43.8,29.91,SW,223,0.0,0.0,41,0.00,,---,0.00,VWS V14.01,2013-07-12 02:05:00,
2013-07-11 22:06:00,66.8,45.4,29.94,SSE,156,0.0,0.0,46,0.00,,---,0.00,VWS V14.01,2013-07-12 02:06:00,
2013-07-11 22:07:00,68.2,43.0,29.91,SSW,204,0.0,0.0,40,0.00,,---,0.00,VWS V14.01,2013-07-12 02:07:00,
2013-07-11 22:08:00,68.2,43.0,29.91,SSW,204,0.0,0.0,40,0.00,,---,0.00,VWS V14.01,2013-07-12 02:08:00,
2013-07-11 22:09:00,68.2,42.4,29.91,SSW,204,0.0,0.0,39,0.00,,---,0.00,VWS V14.01,2013-07-12 02:09:00,
2013-07-11 22:10:00,68.2,43.0,29.91,SSW,204,0.0,0.0,40,0.00,,---,0.00,VWS V14.01,2013-07-12 02:10:00,
2013-07-11 22:11:00,66.4,44.5,29.94,SSE,152,0.0,0.0,45,0.00,,---,0.00,VWS V14.01,2013-07-12 02:11:00,
2013-07-11 22:12:00,68.2,43.0,29.91,SSW,204,0.0,0.0,40,0.00,,---,0.00,VWS V14.01,2013-07-12 02:12:00,
2013-07-11 22:13:00,68.2,43.0,29.91,SSW,204,0.0,0.0,40,0.00,,---,0.00,VWS V14.01,2013-07-12 02:13:00,
2013-07-11 22:14:00,68.2,43.0,29.91,SSW,204,0.0,0.0,40,0.00,,---,0.00,VWS V14.01,2013-07-12 02:14:00,
2013-07-11 22:15:00,68.1,42.9,29.91,SSW,204,0.0,0.0,40,0.00,,---,0.00,VWS V14.01,2013-07-12 02:15:00,
2013-07-11 22:16:00,68.1,42.9,29.91,SSW,204,0.0,0.0,40,0.00,,---,0.00,VWS V14.01,2013-07-12 02:16:00,
2013-07-11 22:17:00,66.3,45.5,29.94,South,190,0.0,3.1,47,0.00,,---,0.00,VWS V14.01,2013-07-12 02:17:00,
2013-07-11 22:18:00,68.1,42.9,29.91,SSW,204,0.0,0.0,40,0.00,,---,0.00,VWS V14.01,2013-07-12 02:18:00,
2013-07-11 22:19:00,68.1,42.9,29.91,SSW,204,0.0,0.0,40,0.00,,---,0.00,VWS V14.01,2013-07-12 02:19:00,
2013-07-11 22:20:00,68.1,42.9,29.94,SSW,199,0.0,0.0,40,0.00,,---,0.00,VWS V14.01,2013-07-12 02:20:00,
2013-07-11 22:21:00,68.1,42.9,29.94,SSW,199,0.0,0.0,40,0.00,,---,0.00,VWS V14.01,2013-07-12 02:21:00,
2013-07-11 22:22:00,66.3,44.9,29.94,SSW,199,0.0,0.0,46,0.00,,---,0.00,VWS V14.01,2013-07-12 02:22:00,
2013-07-11 22:23:00,68.1,42.9,29.94,SSW,199,0.0,0.0,40,0.00,,---,0.00,VWS V14.01,2013-07-12 02:23:00,
2013-07-11 22:24:00,68.1,42.9,29.94,SSW,199,0.0,0.0,40,0.00,,---,0.00,VWS V14.01,2013-07-12 02:24:00,
2013-07-11 22:25:00,68.1,42.9,29.94,SSW,199,0.0,0.0,40,0.00,,---,0.00,VWS V14.01,2013-07-12 02:25:00,
2013-07-11 22:26:00,68.1,42.9,29.94,SSW,199,0.0,0.0,40,0.00,,---,0.00,VWS V14.01,2013-07-12 02:26:00,
2013-07-11 22:27:00,66.3,44.9,29.94,SE,129,0.0,0.0,46,0.00,,---,0.00,VWS V14.01,2013-07-12 02:27:00,
2013-07-11 22:28:00,68.1,42.9,29.94,SSE,156,0.0,0.0,40,0.00,,---,0.00,VWS V14.01,2013-07-12 02:28:00,
2013-07-11 22:29:00,68.1,42.2,29.94,SSE,156,0.0,0.0,39,0.00,,---,0.00,VWS V14.01,2013-07-12 02:29:00,
2013-07-11 22:30:00,68.1,42.9,29.94,SSE,156,0.0,0.0,40,0.00,,---,0.00,VWS V14.01,2013-07-12 02:30:00,
2013-07-11 22:31:00,68.1,42.2,29.94,SSE,156,0.0,0.0,39,0.00,,---,0.00,VWS V14.01,2013-07-12 02:31:00,
2013-07-11 22:32:00,65.9,45.1,29.94,SE,129,0.0,0.0,47,0.00,,---,0.00,VWS V14.01,2013-07-12 02:32:00,
2013-07-11 22:33:00,67.9,42.0,29.94,SSE,156,0.0,0.0,39,0.00,,---,0.00,VWS V14.01,2013-07-12 02:33:00,
2013-07-11 22:34:00,67.9,42.0,29.94,SSE,156,0.0,0.0,39,0.00,,---,0.00,VWS V14.01,2013-07-12 02:34:00,
2013-07-11 22:35:00,67.9,42.0,29.94,SSE,156,0.0,0.0,39,0.00,,---,0.00,VWS V14.01,2013-07-12 02:35:00,
2013-07-11 22:36:00,67.9,42.0,29.94,SSE,156,0.0,0.0,39,0.00,,---,0.00,VWS V14.01,2013-07-12 02:36:00,
2013-07-11 22:37:00,65.5,45.3,29.94,SE,129,0.0,0.0,48,0.00,,---,0.00,VWS V14.01,2013-07-12 02:37:00,
2013-07-11 22:38:00,67.9,42.0,29.94,SSE,156,0.0,0.0,39,0.00,,---,0.00,VWS V14.01,2013-07-12 02:38:00,
2013-07-11 22:39:00,67.7,41.9,29.94,SSE,156,0.0,0.0,39,0.00,,---,0.00,VWS V14.01,2013-07-12 02:39:00,
2013-07-11 22:40:00,67.7,42.5,29.94,SSE,156,0.0,0.0,40,0.00,,---,0.00,VWS V14.01,2013-07-12 02:40:00,
2013-07-11 22:41:00,67.7,42.5,29.94,SSE,156,0.0,0.0,40,0.00,,---,0.00,VWS V14.01,2013-07-12 02:41:00,
2013-07-11 22:42:00,65.4,45.7,29.94,SE,129,0.0,0.0,49,0.00,,---,0.00,VWS V14.01,2013-07-12 02:42:00,
2013-07-11 22:43:00,67.7,42.5,29.94,SSE,156,0.0,0.0,40,0.00,,---,0.00,VWS V14.01,2013-07-12 02:43:00,
2013-07-11 22:44:00,67.7,43.2,29.94,SSE,156,0.0,0.0,41,0.00,,---,0.00,VWS V14.01,2013-07-12 02:44:00,
2013-07-11 22:45:00,67.7,43.8,29.94,SSE,156,0.0,0.0,42,0.00,,---,0.00,VWS V14.01,2013-07-12 02:45:00,
2013-07-11 22:46:00,67.5,43.6,29.94,SSE,156,0.0,0.0,42,0.00,,---,0.00,VWS V14.01,2013-07-12 02:46:00,
2013-07-11 22:47:00,67.5,43.0,29.94,SSE,156,0.0,0.0,41,0.00,,---,0.00,VWS V14.01,2013-07-12 02:47:00,
2013-07-11 22:48:00,64.8,45.2,29.94,SE,138,0.0,0.0,49,0.00,,---,0.00,VWS V14.01,2013-07-12 02:48:00,
2013-07-11 22:49:00,67.3,42.8,29.94,SSE,156,0.0,0.0,41,0.00,,---,0.00,VWS V14.01,2013-07-12 02:49:00,
2013-07-11 22:50:00,67.3,42.8,29.94,SSE,157,0.0,0.0,41,0.00,,---,0.00,VWS V14.01,2013-07-12 02:50:00,
2013-07-11 22:51:00,67.3,42.2,29.94,SSE,157,0.0,0.0,40,0.00,,---,0.00,VWS V14.01,2013-07-12 02:51:00,
2013-07-11 22:52:00,67.3,42.2,29.94,SSE,156,0.0,0.0,40,0.00,,---,0.00,VWS V14.01,2013-07-12 02:52:00,
2013-07-11 22:53:00,64.5,45.4,29.94,SE,138,0.0,0.0,50,0.00,,---,0.00,VWS V14.01,2013-07-12 02:53:00,
2013-07-11 22:54:00,67.3,42.2,29.94,SSE,156,0.0,0.0,40,0.00,,---,0.00,VWS V14.01,2013-07-12 02:54:00,
2013-07-11 22:55:00,64.5,46.0,29.94,SE,138,0.0,0.0,51,0.00,,---,0.00,VWS V14.01,2013-07-12 02:55:00,
2013-07-11 22:56:00,67.2,42.7,29.94,SSE,157,0.0,0.0,41,0.00,,---,0.00,VWS V14.01,2013-07-12 02:56:00,
2013-07-11 22:57:00,67.2,42.7,29.94,SSE,156,0.0,0.0,41,0.00,,---,0.00,VWS V14.01,2013-07-12 02:57:00,
2013-07-11 22:58:00,64.1,45.6,29.94,SE,138,0.0,0.0,51,0.00,,---,0.00,VWS V14.01,2013-07-12 02:58:00,
2013-07-11 22:59:00,67.0,43.2,29.94,SSE,156,0.0,0.0,42,0.00,,---,0.00,VWS V14.01,2013-07-12 02:59:00,
2013-07-11 23:00:00,67.0,43.2,29.94,SSE,157,0.0,0.0,42,0.00,,---,0.00,VWS V14.01,2013-07-12 03:00:00,
2013-07-11 23:01:00,67.0,43.2,29.94,SSE,156,0.0,0.0,42,0.00,,---,0.00,VWS V14.01,2013-07-12 03:01:00,
2013-07-11 23:02:00,67.0,43.2,29.94,SSE,156,0.0,0.0,42,0.00,,---,0.00,VWS V14.01,2013-07-12 03:02:00,
2013-07-11 23:03:00,64.3,46.3,29.94,SE,138,0.0,0.0,52,0.00,,---,0.00,VWS V14.01,2013-07-12 03:03:00,
2013-07-11 23:04:00,66.8,44.2,29.94,SSE,156,0.0,0.0,44,0.00,,---,0.00,VWS V14.01,2013-07-12 03:04:00,
2013-07-11 23:05:00,66.8,44.8,29.94,SSE,156,0.0,0.0,45,0.00,,---,0.00,VWS V14.01,2013-07-12 03:05:00,
2013-07-11 23:06:00,66.8,45.4,29.94,SSE,156,0.0,0.0,46,0.00,,---,0.00,VWS V14.01,2013-07-12 03:06:00,
2013-07-11 23:07:00,66.6,45.2,29.94,SSE,156,0.0,0.0,46,0.00,,---,0.00,VWS V14.01,2013-07-12 03:07:00,
2013-07-11 23:08:00,63.9,47.0,29.94,SE,138,0.0,0.0,54,0.00,,---,0.00,VWS V14.01,2013-07-12 03:08:00,
2013-07-11 23:09:00,66.6,45.8,29.94,SSE,152,3.6,3.6,47,0.00,,---,0.00,VWS V14.01,2013-07-12 03:09:00,
2013-07-11 23:10:00,66.4,45.6,29.94,SSE,152,0.0,4.0,47,0.00,,---,0.00,VWS V14.01,2013-07-12 03:10:00,
2013-07-11 23:11:00,66.4,44.5,29.94,SSE,152,0.0,0.0,45,0.00,,---,0.00,VWS V14.01,2013-07-12 03:11:00,
2013-07-11 23:12:00,66.4,43.9,29.94,SSE,152,0.0,0.0,44,0.00,,---,0.00,VWS V14.01,2013-07-12 03:12:00,
2013-07-11 23:13:00,66.4,44.5,29.94,SSE,152,0.0,0.0,45,0.00,,---,0.00,VWS V14.01,2013-07-12 03:13:00,
2013-07-11 23:14:00,63.9,46.5,29.94,SE,134,0.0,0.0,53,0.00,,---,0.00,VWS V14.01,2013-07-12 03:14:00,
2013-07-11 23:15:00,66.3,44.3,29.94,SSE,151,0.0,0.0,45,0.00,,---,0.00,VWS V14.01,2013-07-12 03:15:00,
2013-07-11 23:16:00,66.3,45.5,29.94,South,190,3.1,3.6,47,0.00,,---,0.00,VWS V14.01,2013-07-12 03:16:00,
2013-07-11 23:17:00,66.3,45.5,29.94,South,190,0.0,3.1,47,0.00,,---,0.00,VWS V14.01,2013-07-12 03:17:00,
2013-07-11 23:18:00,66.3,45.5,29.94,South,190,0.0,0.0,47,0.00,,---,0.00,VWS V14.01,2013-07-12 03:18:00,
2013-07-11 23:19:00,64.3,45.8,29.94,SE,135,0.0,0.0,51,0.00,,---,0.00,VWS V14.01,2013-07-12 03:19:00,
2013-07-11 23:20:00,66.3,45.5,29.94,SSW,205,3.1,4.5,47,0.00,,---,0.00,VWS V14.01,2013-07-12 03:20:00,
2013-07-11 23:21:00,66.3,44.9,29.94,SSW,208,0.0,3.6,46,0.00,,---,0.00,VWS V14.01,2013-07-12 03:21:00,
2013-07-11 23:22:00,66.3,44.9,29.94,SSW,199,0.0,0.0,46,0.00,,---,0.00,VWS V14.01,2013-07-12 03:22:00,
2013-07-11 23:23:00,66.3,44.9,29.94,SE,137,3.6,3.6,46,0.00,,---,0.00,VWS V14.01,2013-07-12 03:23:00,
2013-07-11 23:24:00,64.5,46.0,29.94,SE,134,0.0,0.0,51,0.00,,---,0.00,VWS V14.01,2013-07-12 03:24:00,
2013-07-11 23:25:00,66.3,44.3,29.94,SE,137,0.0,0.0,45,0.00,,---,0.00,VWS V14.01,2013-07-12 03:25:00,
2013-07-11 23:26:00,66.3,44.3,29.94,SE,137,0.0,0.0,45,0.00,,---,0.00,VWS V14.01,2013-07-12 03:26:00,
2013-07-11 23:27:00,66.3,44.9,29.94,SE,137,0.0,0.0,46,0.00,,---,0.00,VWS V14.01,2013-07-12 03:27:00,
2013-07-11 23:28:00,66.3,44.3,29.94,SE,129,0.0,0.0,45,0.00,,---,0.00,VWS V14.01,2013-07-12 03:28:00,
2013-07-11 23:29:00,64.3,45.8,29.94,NNW,339,4.0,4.5,51,0.00,,---,0.00,VWS V14.01,2013-07-12 03:29:00,
2013-07-11 23:30:00,66.1,44.2,29.94,SE,129,0.0,0.0,45,0.00,,---,0.00,VWS V14.01,2013-07-12 03:30:00,
2013-07-11 23:31:00,66.1,45.3,29.94,SE,129,0.0,0.0,47,0.00,,---,0.00,VWS V14.01,2013-07-12 03:31:00,
2013-07-11 23:32:00,65.9,45.1,29.94,SE,129,0.0,0.0,47,0.00,,---,0.00,VWS V14.01,2013-07-12 03:32:00,
2013-07-11 23:33:00,65.7,45.0,29.94,SE,129,0.0,0.0,47,0.00,,---,0.00,VWS V14.01,2013-07-12 03:33:00,
2013-07-11 23:34:00,63.9,47.0,29.94,WSW,253,0.0,0.0,54,0.00,,---,0.00,VWS V14.01,2013-07-12 03:34:00,
2013-07-11 23:35:00,65.7,45.5,29.94,SE,129,0.0,0.0,48,0.00,,---,0.00,VWS V14.01,2013-07-12 03:35:00,
2013-07-11 23:36:00,65.5,45.3,29.94,SE,129,0.0,0.0,48,0.00,,---,0.00,VWS V14.01,2013-07-12 03:36:00,
2013-07-11 23:37:00,65.5,45.3,29.94,SE,129,0.0,0.0,48,0.00,,---,0.00,VWS V14.01,2013-07-12 03:37:00,
2013-07-11 23:38:00,65.5,45.3,29.94,SE,129,0.0,0.0,48,0.00,,---,0.00,VWS V14.01,2013-07-12 03:38:00,
2013-07-11 23:39:00,63.4,47.0,29.94,WSW,246,0.0,0.0,55,0.00,,---,0.00,VWS V14.01,2013-07-12 03:39:00,
2013-07-11 23:40:00,65.5,45.3,29.94,SE,129,0.0,0.0,48,0.00,,---,0.00,VWS V14.01,2013-07-12 03:40:00,
2013-07-11 23:41:00,65.4,45.2,29.94,SE,129,0.0,0.0,48,0.00,,---,0.00,VWS V14.01,2013-07-12 03:41:00,
2013-07-11 23:42:00,65.4,45.2,29.94,SE,129,0.0,0.0,48,0.00,,---,0.00,VWS V14.01,2013-07-12 03:42:00,
2013-07-11 23:43:00,65.2,45.6,29.94,SE,129,0.0,0.0,49,0.00,,---,0.00,VWS V14.01,2013-07-12 03:43:00,
2013-07-11 23:44:00,63.2,47.3,29.94,WSW,245,0.0,0.0,56,0.00,,---,0.00,VWS V14.01,2013-07-12 03:44:00,
2013-07-11 23:45:00,65.0,45.4,29.94,SE,129,0.0,0.0,49,0.00,,---,0.00,VWS V14.01,2013-07-12 03:45:00,
2013-07-11 23:46:00,65.0,45.4,29.94,SE,129,0.0,0.0,49,0.00,,---,0.00,VWS V14.01,2013-07-12 03:46:00,
2013-07-11 23:47:00,65.0,45.4,29.94,SE,132,0.0,0.0,49,0.00,,---,0.00,VWS V14.01,2013-07-12 03:47:00,
2013-07-11 23:48:00,64.8,45.2,29.94,SE,138,0.0,0.0,49,0.00,,---,0.00,VWS V14.01,2013-07-12 03:48:00,
2013-07-11 23:49:00,63.2,47.3,29.94,SW,224,0.0,0.0,56,0.00,,---,0.00,VWS V14.01,2013-07-12 03:49:00,
2013-07-11 23:50:00,64.8,45.2,29.94,SE,138,0.0,0.0,49,0.00,,---,0.00,VWS V14.01,2013-07-12 03:50:00,
2013-07-11 23:51:00,64.6,45.6,29.94,SE,138,0.0,0.0,50,0.00,,---,0.00,VWS V14.01,2013-07-12 03:51:00,
2013-07-11 23:52:00,64.6,45.6,29.94,SE,138,0.0,0.0,50,0.00,,---,0.00,VWS V14.01,2013-07-12 03:52:00,
2013-07-11 23:53:00,64.5,45.4,29.94,SE,138,0.0,0.0,50,0.00,,---,0.00,VWS V14.01,2013-07-12 03:53:00,
2013-07-11 23:54:00,63.2,46.8,29.94,SW,224,0.0,0.0,55,0.00,,---,0.00,VWS V14.01,2013-07-12 03:54:00,
2013-07-11 23:55:00,64.5,46.0,29.94,SE,138,0.0,0.0,51,0.00,,---,0.00,VWS V14.01,2013-07-12 03:55:00,
2013-07-11 23:56:00,64.3,45.8,29.94,SE,138,0.0,0.0,51,0.00,,---,0.00,VWS V14.01,2013-07-12 03:56:00,
2013-07-11 23:57:00,64.3,45.8,29.94,SE,138,0.0,0.0,51,0.00,,---,0.00,VWS V14.01,2013-07-12 03:57:00,
2013-07-11 23:58:00,64.1,45.6,29.94,SE,138,0.0,0.0,51,0.00,,---,0.00,VWS V14.01,2013-07-12 03:58:00,
2013-07-11 23:59:00,63.4,47.0,29.94,SSW,195,3.6,4.5,55,0.00,,---,0.00,VWS V14.01,2013-07-12 03:59:00,